<?xml version="1.0" encoding="UTF-8" standalone="no" ?>
<gpx xmlns="http://www.topografix.com/GPX/1/1" xmlns:xsi="http://www.w3.org/2001/XMLSchema-instance" xsi:schemaLocation="http://www.topografix.com/GPX/1/1 http://www.topografix.com/GPX/1/1/gpx.xsd" version="1.1" creator="VisuGPX - https://www.visugpx.com">
  <metadata>
    <name>Arthez de Bearn -Castede-Cami 41</name>
    <desc><![CDATA[Parcourt de 41 km plutôt roulant parsemé de sigles assez sympas et de zones très grasse ces  jours ci  ]]></desc>
  </metadata>
  <trk>
    <name><![CDATA[23-NOV-13 05:42:41 PM]]></name>
    <trkseg>
      <trkpt lat="43.49156" lon="-0.61817">
        <ele>110.69</ele>
        <time>2013-11-23T12:30:49Z</time>
      </trkpt>
      <trkpt lat="43.49156" lon="-0.61816">
        <ele>110.69</ele>
        <time>2013-11-23T12:31:20Z</time>
      </trkpt>
      <trkpt lat="43.49154" lon="-0.61811">
        <ele>110.21</ele>
        <time>2013-11-23T12:32:10Z</time>
      </trkpt>
      <trkpt lat="43.49154" lon="-0.61812">
        <ele>110.21</ele>
        <time>2013-11-23T12:32:54Z</time>
      </trkpt>
      <trkpt lat="43.49156" lon="-0.61817">
        <ele>110.69</ele>
        <time>2013-11-23T12:33:51Z</time>
      </trkpt>
      <trkpt lat="43.49157" lon="-0.61816">
        <ele>110.69</ele>
        <time>2013-11-23T12:34:35Z</time>
      </trkpt>
      <trkpt lat="43.49155" lon="-0.61818">
        <ele>110.21</ele>
        <time>2013-11-23T12:35:22Z</time>
      </trkpt>
      <trkpt lat="43.49155" lon="-0.6182">
        <ele>110.21</ele>
        <time>2013-11-23T12:36:16Z</time>
      </trkpt>
      <trkpt lat="43.49157" lon="-0.61818">
        <ele>110.21</ele>
        <time>2013-11-23T12:37:22Z</time>
      </trkpt>
      <trkpt lat="43.49154" lon="-0.61818">
        <ele>110.21</ele>
        <time>2013-11-23T12:38:29Z</time>
      </trkpt>
      <trkpt lat="43.49153" lon="-0.61819">
        <ele>110.21</ele>
        <time>2013-11-23T12:39:19Z</time>
      </trkpt>
      <trkpt lat="43.49154" lon="-0.61819">
        <ele>110.21</ele>
        <time>2013-11-23T12:40:01Z</time>
      </trkpt>
      <trkpt lat="43.49154" lon="-0.61821">
        <ele>110.69</ele>
        <time>2013-11-23T12:40:34Z</time>
      </trkpt>
      <trkpt lat="43.49156" lon="-0.61819">
        <ele>110.69</ele>
        <time>2013-11-23T12:41:07Z</time>
      </trkpt>
      <trkpt lat="43.49156" lon="-0.61818">
        <ele>110.21</ele>
        <time>2013-11-23T12:41:11Z</time>
      </trkpt>
      <trkpt lat="43.49165" lon="-0.61808">
        <ele>110.21</ele>
        <time>2013-11-23T12:41:18Z</time>
      </trkpt>
      <trkpt lat="43.49166" lon="-0.61802">
        <ele>110.21</ele>
        <time>2013-11-23T12:41:20Z</time>
      </trkpt>
      <trkpt lat="43.49167" lon="-0.618">
        <ele>110.21</ele>
        <time>2013-11-23T12:41:21Z</time>
      </trkpt>
      <trkpt lat="43.49168" lon="-0.61796">
        <ele>110.21</ele>
        <time>2013-11-23T12:41:22Z</time>
      </trkpt>
      <trkpt lat="43.49168" lon="-0.61793">
        <ele>109.73</ele>
        <time>2013-11-23T12:41:23Z</time>
      </trkpt>
      <trkpt lat="43.49169" lon="-0.6179">
        <ele>109.73</ele>
        <time>2013-11-23T12:41:24Z</time>
      </trkpt>
      <trkpt lat="43.49151" lon="-0.61746">
        <ele>110.21</ele>
        <time>2013-11-23T12:41:41Z</time>
      </trkpt>
      <trkpt lat="43.4912" lon="-0.61675">
        <ele>111.65</ele>
        <time>2013-11-23T12:42:04Z</time>
      </trkpt>
      <trkpt lat="43.49096" lon="-0.61609">
        <ele>111.65</ele>
        <time>2013-11-23T12:42:22Z</time>
      </trkpt>
      <trkpt lat="43.49064" lon="-0.61528">
        <ele>112.13</ele>
        <time>2013-11-23T12:42:46Z</time>
      </trkpt>
      <trkpt lat="43.49033" lon="-0.61461">
        <ele>113.57</ele>
        <time>2013-11-23T12:43:07Z</time>
      </trkpt>
      <trkpt lat="43.49006" lon="-0.61393">
        <ele>112.13</ele>
        <time>2013-11-23T12:43:26Z</time>
      </trkpt>
      <trkpt lat="43.48961" lon="-0.61283">
        <ele>112.13</ele>
        <time>2013-11-23T12:43:49Z</time>
      </trkpt>
      <trkpt lat="43.48914" lon="-0.61153">
        <ele>112.61</ele>
        <time>2013-11-23T12:44:14Z</time>
      </trkpt>
      <trkpt lat="43.48858" lon="-0.61105">
        <ele>113.57</ele>
        <time>2013-11-23T12:44:32Z</time>
      </trkpt>
      <trkpt lat="43.48741" lon="-0.61058">
        <ele>114.53</ele>
        <time>2013-11-23T12:45:01Z</time>
      </trkpt>
      <trkpt lat="43.48725" lon="-0.61051">
        <ele>114.53</ele>
        <time>2013-11-23T12:45:05Z</time>
      </trkpt>
      <trkpt lat="43.48717" lon="-0.61048">
        <ele>115.01</ele>
        <time>2013-11-23T12:45:07Z</time>
      </trkpt>
      <trkpt lat="43.48713" lon="-0.61046">
        <ele>115.01</ele>
        <time>2013-11-23T12:45:08Z</time>
      </trkpt>
      <trkpt lat="43.48605" lon="-0.61002">
        <ele>117.42</ele>
        <time>2013-11-23T12:45:35Z</time>
      </trkpt>
      <trkpt lat="43.48479" lon="-0.60949">
        <ele>117.9</ele>
        <time>2013-11-23T12:46:05Z</time>
      </trkpt>
      <trkpt lat="43.48417" lon="-0.60932">
        <ele>119.34</ele>
        <time>2013-11-23T12:46:23Z</time>
      </trkpt>
      <trkpt lat="43.48413" lon="-0.60931">
        <ele>118.86</ele>
        <time>2013-11-23T12:46:24Z</time>
      </trkpt>
      <trkpt lat="43.48408" lon="-0.60928">
        <ele>119.34</ele>
        <time>2013-11-23T12:46:25Z</time>
      </trkpt>
      <trkpt lat="43.48405" lon="-0.60924">
        <ele>118.86</ele>
        <time>2013-11-23T12:46:26Z</time>
      </trkpt>
      <trkpt lat="43.48403" lon="-0.60919">
        <ele>119.34</ele>
        <time>2013-11-23T12:46:27Z</time>
      </trkpt>
      <trkpt lat="43.48401" lon="-0.60913">
        <ele>118.86</ele>
        <time>2013-11-23T12:46:28Z</time>
      </trkpt>
      <trkpt lat="43.484" lon="-0.60906">
        <ele>119.34</ele>
        <time>2013-11-23T12:46:29Z</time>
      </trkpt>
      <trkpt lat="43.484" lon="-0.609">
        <ele>118.86</ele>
        <time>2013-11-23T12:46:30Z</time>
      </trkpt>
      <trkpt lat="43.484" lon="-0.60894">
        <ele>118.86</ele>
        <time>2013-11-23T12:46:31Z</time>
      </trkpt>
      <trkpt lat="43.48401" lon="-0.60872">
        <ele>117.9</ele>
        <time>2013-11-23T12:46:35Z</time>
      </trkpt>
      <trkpt lat="43.48397" lon="-0.60708">
        <ele>116.94</ele>
        <time>2013-11-23T12:47:00Z</time>
      </trkpt>
      <trkpt lat="43.48402" lon="-0.60612">
        <ele>116.94</ele>
        <time>2013-11-23T12:47:14Z</time>
      </trkpt>
      <trkpt lat="43.48407" lon="-0.60585">
        <ele>117.9</ele>
        <time>2013-11-23T12:47:19Z</time>
      </trkpt>
      <trkpt lat="43.48407" lon="-0.60579">
        <ele>117.9</ele>
        <time>2013-11-23T12:47:20Z</time>
      </trkpt>
      <trkpt lat="43.48405" lon="-0.60574">
        <ele>117.9</ele>
        <time>2013-11-23T12:47:21Z</time>
      </trkpt>
      <trkpt lat="43.48402" lon="-0.6057">
        <ele>117.9</ele>
        <time>2013-11-23T12:47:22Z</time>
      </trkpt>
      <trkpt lat="43.48397" lon="-0.60567">
        <ele>117.9</ele>
        <time>2013-11-23T12:47:23Z</time>
      </trkpt>
      <trkpt lat="43.48393" lon="-0.60566">
        <ele>117.42</ele>
        <time>2013-11-23T12:47:24Z</time>
      </trkpt>
      <trkpt lat="43.48388" lon="-0.60565">
        <ele>117.42</ele>
        <time>2013-11-23T12:47:25Z</time>
      </trkpt>
      <trkpt lat="43.48383" lon="-0.60565">
        <ele>116.94</ele>
        <time>2013-11-23T12:47:26Z</time>
      </trkpt>
      <trkpt lat="43.48377" lon="-0.60566">
        <ele>117.42</ele>
        <time>2013-11-23T12:47:27Z</time>
      </trkpt>
      <trkpt lat="43.48311" lon="-0.60574">
        <ele>117.42</ele>
        <time>2013-11-23T12:47:40Z</time>
      </trkpt>
      <trkpt lat="43.48306" lon="-0.60572">
        <ele>117.42</ele>
        <time>2013-11-23T12:47:41Z</time>
      </trkpt>
      <trkpt lat="43.48303" lon="-0.60568">
        <ele>117.42</ele>
        <time>2013-11-23T12:47:42Z</time>
      </trkpt>
      <trkpt lat="43.48301" lon="-0.60563">
        <ele>117.9</ele>
        <time>2013-11-23T12:47:43Z</time>
      </trkpt>
      <trkpt lat="43.48299" lon="-0.60558">
        <ele>117.9</ele>
        <time>2013-11-23T12:47:44Z</time>
      </trkpt>
      <trkpt lat="43.48298" lon="-0.60552">
        <ele>118.38</ele>
        <time>2013-11-23T12:47:45Z</time>
      </trkpt>
      <trkpt lat="43.48294" lon="-0.60541">
        <ele>118.38</ele>
        <time>2013-11-23T12:47:47Z</time>
      </trkpt>
      <trkpt lat="43.48292" lon="-0.60535">
        <ele>118.38</ele>
        <time>2013-11-23T12:47:48Z</time>
      </trkpt>
      <trkpt lat="43.48291" lon="-0.60529">
        <ele>118.38</ele>
        <time>2013-11-23T12:47:49Z</time>
      </trkpt>
      <trkpt lat="43.48289" lon="-0.60517">
        <ele>118.86</ele>
        <time>2013-11-23T12:47:51Z</time>
      </trkpt>
      <trkpt lat="43.48271" lon="-0.60443">
        <ele>118.38</ele>
        <time>2013-11-23T12:48:04Z</time>
      </trkpt>
      <trkpt lat="43.4827" lon="-0.60438">
        <ele>118.38</ele>
        <time>2013-11-23T12:48:05Z</time>
      </trkpt>
      <trkpt lat="43.48243" lon="-0.6034">
        <ele>117.9</ele>
        <time>2013-11-23T12:48:26Z</time>
      </trkpt>
      <trkpt lat="43.4822" lon="-0.60273">
        <ele>119.34</ele>
        <time>2013-11-23T12:48:40Z</time>
      </trkpt>
      <trkpt lat="43.48217" lon="-0.60269">
        <ele>118.86</ele>
        <time>2013-11-23T12:48:41Z</time>
      </trkpt>
      <trkpt lat="43.48214" lon="-0.60265">
        <ele>118.86</ele>
        <time>2013-11-23T12:48:42Z</time>
      </trkpt>
      <trkpt lat="43.4821" lon="-0.60263">
        <ele>118.86</ele>
        <time>2013-11-23T12:48:43Z</time>
      </trkpt>
      <trkpt lat="43.48206" lon="-0.60262">
        <ele>118.86</ele>
        <time>2013-11-23T12:48:44Z</time>
      </trkpt>
      <trkpt lat="43.48202" lon="-0.60262">
        <ele>119.34</ele>
        <time>2013-11-23T12:48:45Z</time>
      </trkpt>
      <trkpt lat="43.48199" lon="-0.60263">
        <ele>118.86</ele>
        <time>2013-11-23T12:48:46Z</time>
      </trkpt>
      <trkpt lat="43.48196" lon="-0.60264">
        <ele>118.86</ele>
        <time>2013-11-23T12:48:47Z</time>
      </trkpt>
      <trkpt lat="43.48192" lon="-0.60266">
        <ele>118.86</ele>
        <time>2013-11-23T12:48:48Z</time>
      </trkpt>
      <trkpt lat="43.48108" lon="-0.603">
        <ele>118.86</ele>
        <time>2013-11-23T12:49:10Z</time>
      </trkpt>
      <trkpt lat="43.4804" lon="-0.60318">
        <ele>119.82</ele>
        <time>2013-11-23T12:49:28Z</time>
      </trkpt>
      <trkpt lat="43.47986" lon="-0.60353">
        <ele>119.82</ele>
        <time>2013-11-23T12:49:45Z</time>
      </trkpt>
      <trkpt lat="43.4793" lon="-0.60382">
        <ele>120.3</ele>
        <time>2013-11-23T12:50:04Z</time>
      </trkpt>
      <trkpt lat="43.47871" lon="-0.604">
        <ele>121.26</ele>
        <time>2013-11-23T12:50:20Z</time>
      </trkpt>
      <trkpt lat="43.47868" lon="-0.60401">
        <ele>121.74</ele>
        <time>2013-11-23T12:50:21Z</time>
      </trkpt>
      <trkpt lat="43.47816" lon="-0.60416">
        <ele>122.22</ele>
        <time>2013-11-23T12:50:34Z</time>
      </trkpt>
      <trkpt lat="43.47744" lon="-0.60438">
        <ele>122.22</ele>
        <time>2013-11-23T12:50:54Z</time>
      </trkpt>
      <trkpt lat="43.47694" lon="-0.60464">
        <ele>122.71</ele>
        <time>2013-11-23T12:51:10Z</time>
      </trkpt>
      <trkpt lat="43.47691" lon="-0.60464">
        <ele>123.19</ele>
        <time>2013-11-23T12:51:11Z</time>
      </trkpt>
      <trkpt lat="43.47688" lon="-0.60465">
        <ele>123.19</ele>
        <time>2013-11-23T12:51:12Z</time>
      </trkpt>
      <trkpt lat="43.47684" lon="-0.60467">
        <ele>123.19</ele>
        <time>2013-11-23T12:51:13Z</time>
      </trkpt>
      <trkpt lat="43.47681" lon="-0.60469">
        <ele>123.19</ele>
        <time>2013-11-23T12:51:14Z</time>
      </trkpt>
      <trkpt lat="43.47626" lon="-0.60494">
        <ele>125.59</ele>
        <time>2013-11-23T12:51:34Z</time>
      </trkpt>
      <trkpt lat="43.47584" lon="-0.60522">
        <ele>128.47</ele>
        <time>2013-11-23T12:51:50Z</time>
      </trkpt>
      <trkpt lat="43.4754" lon="-0.60544">
        <ele>129.92</ele>
        <time>2013-11-23T12:52:07Z</time>
      </trkpt>
      <trkpt lat="43.47496" lon="-0.60562">
        <ele>133.28</ele>
        <time>2013-11-23T12:52:24Z</time>
      </trkpt>
      <trkpt lat="43.4748" lon="-0.60564">
        <ele>135.68</ele>
        <time>2013-11-23T12:52:31Z</time>
      </trkpt>
      <trkpt lat="43.47443" lon="-0.60524">
        <ele>136.16</ele>
        <time>2013-11-23T12:52:47Z</time>
      </trkpt>
      <trkpt lat="43.47386" lon="-0.60468">
        <ele>136.64</ele>
        <time>2013-11-23T12:53:07Z</time>
      </trkpt>
      <trkpt lat="43.47384" lon="-0.60464">
        <ele>136.16</ele>
        <time>2013-11-23T12:53:21Z</time>
      </trkpt>
      <trkpt lat="43.47361" lon="-0.60439">
        <ele>138.09</ele>
        <time>2013-11-23T12:53:37Z</time>
      </trkpt>
      <trkpt lat="43.47359" lon="-0.60436">
        <ele>137.13</ele>
        <time>2013-11-23T12:53:57Z</time>
      </trkpt>
      <trkpt lat="43.47358" lon="-0.60432">
        <ele>138.09</ele>
        <time>2013-11-23T12:54:01Z</time>
      </trkpt>
      <trkpt lat="43.47357" lon="-0.6043">
        <ele>137.13</ele>
        <time>2013-11-23T12:54:02Z</time>
      </trkpt>
      <trkpt lat="43.47356" lon="-0.60427">
        <ele>137.13</ele>
        <time>2013-11-23T12:54:03Z</time>
      </trkpt>
      <trkpt lat="43.47354" lon="-0.60425">
        <ele>137.61</ele>
        <time>2013-11-23T12:54:04Z</time>
      </trkpt>
      <trkpt lat="43.47353" lon="-0.60422">
        <ele>137.13</ele>
        <time>2013-11-23T12:54:05Z</time>
      </trkpt>
      <trkpt lat="43.47352" lon="-0.6042">
        <ele>137.13</ele>
        <time>2013-11-23T12:54:06Z</time>
      </trkpt>
      <trkpt lat="43.4735" lon="-0.60417">
        <ele>137.13</ele>
        <time>2013-11-23T12:54:07Z</time>
      </trkpt>
      <trkpt lat="43.47349" lon="-0.60413">
        <ele>137.13</ele>
        <time>2013-11-23T12:54:08Z</time>
      </trkpt>
      <trkpt lat="43.47348" lon="-0.60409">
        <ele>137.61</ele>
        <time>2013-11-23T12:54:09Z</time>
      </trkpt>
      <trkpt lat="43.47329" lon="-0.60348">
        <ele>134.72</ele>
        <time>2013-11-23T12:54:25Z</time>
      </trkpt>
      <trkpt lat="43.47309" lon="-0.60276">
        <ele>133.76</ele>
        <time>2013-11-23T12:54:37Z</time>
      </trkpt>
      <trkpt lat="43.47301" lon="-0.60252">
        <ele>133.28</ele>
        <time>2013-11-23T12:54:41Z</time>
      </trkpt>
      <trkpt lat="43.47296" lon="-0.60248">
        <ele>133.28</ele>
        <time>2013-11-23T12:54:42Z</time>
      </trkpt>
      <trkpt lat="43.47291" lon="-0.60247">
        <ele>132.8</ele>
        <time>2013-11-23T12:54:43Z</time>
      </trkpt>
      <trkpt lat="43.47286" lon="-0.60251">
        <ele>132.8</ele>
        <time>2013-11-23T12:54:44Z</time>
      </trkpt>
      <trkpt lat="43.47282" lon="-0.60256">
        <ele>133.28</ele>
        <time>2013-11-23T12:54:45Z</time>
      </trkpt>
      <trkpt lat="43.47277" lon="-0.60261">
        <ele>133.28</ele>
        <time>2013-11-23T12:54:46Z</time>
      </trkpt>
      <trkpt lat="43.47237" lon="-0.60294">
        <ele>134.24</ele>
        <time>2013-11-23T12:55:00Z</time>
      </trkpt>
      <trkpt lat="43.47197" lon="-0.60313">
        <ele>137.13</ele>
        <time>2013-11-23T12:55:19Z</time>
      </trkpt>
      <trkpt lat="43.4717" lon="-0.60325">
        <ele>140.01</ele>
        <time>2013-11-23T12:55:31Z</time>
      </trkpt>
      <trkpt lat="43.47141" lon="-0.60342">
        <ele>142.41</ele>
        <time>2013-11-23T12:55:46Z</time>
      </trkpt>
      <trkpt lat="43.47116" lon="-0.60374">
        <ele>145.78</ele>
        <time>2013-11-23T12:56:02Z</time>
      </trkpt>
      <trkpt lat="43.47097" lon="-0.60407">
        <ele>149.14</ele>
        <time>2013-11-23T12:56:18Z</time>
      </trkpt>
      <trkpt lat="43.47091" lon="-0.60417">
        <ele>150.58</ele>
        <time>2013-11-23T12:56:23Z</time>
      </trkpt>
      <trkpt lat="43.47086" lon="-0.6043">
        <ele>152.03</ele>
        <time>2013-11-23T12:56:30Z</time>
      </trkpt>
      <trkpt lat="43.47086" lon="-0.60431">
        <ele>152.51</ele>
        <time>2013-11-23T12:56:31Z</time>
      </trkpt>
      <trkpt lat="43.47085" lon="-0.60433">
        <ele>152.51</ele>
        <time>2013-11-23T12:56:32Z</time>
      </trkpt>
      <trkpt lat="43.47084" lon="-0.60435">
        <ele>152.51</ele>
        <time>2013-11-23T12:56:33Z</time>
      </trkpt>
      <trkpt lat="43.47084" lon="-0.60437">
        <ele>152.51</ele>
        <time>2013-11-23T12:56:34Z</time>
      </trkpt>
      <trkpt lat="43.47079" lon="-0.60456">
        <ele>155.87</ele>
        <time>2013-11-23T12:56:44Z</time>
      </trkpt>
      <trkpt lat="43.47064" lon="-0.60478">
        <ele>157.79</ele>
        <time>2013-11-23T12:56:57Z</time>
      </trkpt>
      <trkpt lat="43.47063" lon="-0.6048">
        <ele>157.79</ele>
        <time>2013-11-23T12:56:58Z</time>
      </trkpt>
      <trkpt lat="43.47063" lon="-0.60482">
        <ele>158.27</ele>
        <time>2013-11-23T12:56:59Z</time>
      </trkpt>
      <trkpt lat="43.47062" lon="-0.60484">
        <ele>157.79</ele>
        <time>2013-11-23T12:57:00Z</time>
      </trkpt>
      <trkpt lat="43.47061" lon="-0.60486">
        <ele>158.27</ele>
        <time>2013-11-23T12:57:01Z</time>
      </trkpt>
      <trkpt lat="43.4706" lon="-0.60488">
        <ele>158.27</ele>
        <time>2013-11-23T12:57:02Z</time>
      </trkpt>
      <trkpt lat="43.47059" lon="-0.6049">
        <ele>158.75</ele>
        <time>2013-11-23T12:57:03Z</time>
      </trkpt>
      <trkpt lat="43.47058" lon="-0.60492">
        <ele>158.27</ele>
        <time>2013-11-23T12:57:04Z</time>
      </trkpt>
      <trkpt lat="43.47057" lon="-0.60493">
        <ele>158.27</ele>
        <time>2013-11-23T12:57:05Z</time>
      </trkpt>
      <trkpt lat="43.47027" lon="-0.60508">
        <ele>158.75</ele>
        <time>2013-11-23T12:57:24Z</time>
      </trkpt>
      <trkpt lat="43.47025" lon="-0.60508">
        <ele>158.75</ele>
        <time>2013-11-23T12:57:25Z</time>
      </trkpt>
      <trkpt lat="43.47023" lon="-0.60509">
        <ele>158.75</ele>
        <time>2013-11-23T12:57:26Z</time>
      </trkpt>
      <trkpt lat="43.47005" lon="-0.60532">
        <ele>156.83</ele>
        <time>2013-11-23T12:57:35Z</time>
      </trkpt>
      <trkpt lat="43.46971" lon="-0.60588">
        <ele>155.39</ele>
        <time>2013-11-23T12:57:53Z</time>
      </trkpt>
      <trkpt lat="43.46935" lon="-0.60619">
        <ele>158.27</ele>
        <time>2013-11-23T12:58:11Z</time>
      </trkpt>
      <trkpt lat="43.46917" lon="-0.60633">
        <ele>161.64</ele>
        <time>2013-11-23T12:58:22Z</time>
      </trkpt>
      <trkpt lat="43.46904" lon="-0.60645">
        <ele>164.52</ele>
        <time>2013-11-23T12:58:32Z</time>
      </trkpt>
      <trkpt lat="43.46897" lon="-0.60653">
        <ele>166.45</ele>
        <time>2013-11-23T12:58:37Z</time>
      </trkpt>
      <trkpt lat="43.46897" lon="-0.60656">
        <ele>166.45</ele>
        <time>2013-11-23T12:58:38Z</time>
      </trkpt>
      <trkpt lat="43.46898" lon="-0.60716">
        <ele>168.37</ele>
        <time>2013-11-23T12:59:01Z</time>
      </trkpt>
      <trkpt lat="43.46897" lon="-0.60763">
        <ele>171.25</ele>
        <time>2013-11-23T12:59:21Z</time>
      </trkpt>
      <trkpt lat="43.46891" lon="-0.60813">
        <ele>172.69</ele>
        <time>2013-11-23T12:59:41Z</time>
      </trkpt>
      <trkpt lat="43.46874" lon="-0.60849">
        <ele>175.1</ele>
        <time>2013-11-23T12:59:58Z</time>
      </trkpt>
      <trkpt lat="43.46853" lon="-0.60884">
        <ele>178.46</ele>
        <time>2013-11-23T13:00:16Z</time>
      </trkpt>
      <trkpt lat="43.46837" lon="-0.60908">
        <ele>181.83</ele>
        <time>2013-11-23T13:00:32Z</time>
      </trkpt>
      <trkpt lat="43.46818" lon="-0.60918">
        <ele>185.19</ele>
        <time>2013-11-23T13:00:47Z</time>
      </trkpt>
      <trkpt lat="43.46817" lon="-0.60917">
        <ele>184.71</ele>
        <time>2013-11-23T13:00:48Z</time>
      </trkpt>
      <trkpt lat="43.46817" lon="-0.60915">
        <ele>184.71</ele>
        <time>2013-11-23T13:00:49Z</time>
      </trkpt>
      <trkpt lat="43.46814" lon="-0.6091">
        <ele>186.15</ele>
        <time>2013-11-23T13:00:52Z</time>
      </trkpt>
      <trkpt lat="43.46814" lon="-0.60908">
        <ele>186.15</ele>
        <time>2013-11-23T13:00:53Z</time>
      </trkpt>
      <trkpt lat="43.46813" lon="-0.60906">
        <ele>186.15</ele>
        <time>2013-11-23T13:00:54Z</time>
      </trkpt>
      <trkpt lat="43.46813" lon="-0.60904">
        <ele>186.15</ele>
        <time>2013-11-23T13:00:55Z</time>
      </trkpt>
      <trkpt lat="43.46812" lon="-0.60902">
        <ele>186.15</ele>
        <time>2013-11-23T13:00:56Z</time>
      </trkpt>
      <trkpt lat="43.46811" lon="-0.609">
        <ele>186.63</ele>
        <time>2013-11-23T13:00:57Z</time>
      </trkpt>
      <trkpt lat="43.4681" lon="-0.60897">
        <ele>187.11</ele>
        <time>2013-11-23T13:00:59Z</time>
      </trkpt>
      <trkpt lat="43.4681" lon="-0.60895">
        <ele>186.15</ele>
        <time>2013-11-23T13:01:00Z</time>
      </trkpt>
      <trkpt lat="43.46809" lon="-0.60894">
        <ele>187.11</ele>
        <time>2013-11-23T13:01:01Z</time>
      </trkpt>
      <trkpt lat="43.46793" lon="-0.60862">
        <ele>190</ele>
        <time>2013-11-23T13:01:21Z</time>
      </trkpt>
      <trkpt lat="43.46778" lon="-0.6083">
        <ele>192.4</ele>
        <time>2013-11-23T13:01:40Z</time>
      </trkpt>
      <trkpt lat="43.46778" lon="-0.60829">
        <ele>192.88</ele>
        <time>2013-11-23T13:01:41Z</time>
      </trkpt>
      <trkpt lat="43.46777" lon="-0.60828">
        <ele>192.88</ele>
        <time>2013-11-23T13:01:42Z</time>
      </trkpt>
      <trkpt lat="43.46756" lon="-0.60804">
        <ele>195.77</ele>
        <time>2013-11-23T13:02:00Z</time>
      </trkpt>
      <trkpt lat="43.4675" lon="-0.60797">
        <ele>197.21</ele>
        <time>2013-11-23T13:02:06Z</time>
      </trkpt>
      <trkpt lat="43.46726" lon="-0.60767">
        <ele>199.61</ele>
        <time>2013-11-23T13:02:26Z</time>
      </trkpt>
      <trkpt lat="43.46725" lon="-0.60765">
        <ele>200.09</ele>
        <time>2013-11-23T13:02:27Z</time>
      </trkpt>
      <trkpt lat="43.46724" lon="-0.60764">
        <ele>200.09</ele>
        <time>2013-11-23T13:02:28Z</time>
      </trkpt>
      <trkpt lat="43.46719" lon="-0.60756">
        <ele>201.53</ele>
        <time>2013-11-23T13:02:33Z</time>
      </trkpt>
      <trkpt lat="43.46718" lon="-0.60754">
        <ele>201.05</ele>
        <time>2013-11-23T13:02:34Z</time>
      </trkpt>
      <trkpt lat="43.46698" lon="-0.60731">
        <ele>202.98</ele>
        <time>2013-11-23T13:02:54Z</time>
      </trkpt>
      <trkpt lat="43.46683" lon="-0.6072">
        <ele>203.94</ele>
        <time>2013-11-23T13:03:05Z</time>
      </trkpt>
      <trkpt lat="43.46682" lon="-0.60719">
        <ele>203.94</ele>
        <time>2013-11-23T13:03:06Z</time>
      </trkpt>
      <trkpt lat="43.46681" lon="-0.60717">
        <ele>203.94</ele>
        <time>2013-11-23T13:03:07Z</time>
      </trkpt>
      <trkpt lat="43.4668" lon="-0.60716">
        <ele>204.42</ele>
        <time>2013-11-23T13:03:08Z</time>
      </trkpt>
      <trkpt lat="43.46679" lon="-0.60715">
        <ele>204.42</ele>
        <time>2013-11-23T13:03:09Z</time>
      </trkpt>
      <trkpt lat="43.46678" lon="-0.60714">
        <ele>204.42</ele>
        <time>2013-11-23T13:03:10Z</time>
      </trkpt>
      <trkpt lat="43.46676" lon="-0.60714">
        <ele>204.42</ele>
        <time>2013-11-23T13:03:11Z</time>
      </trkpt>
      <trkpt lat="43.46675" lon="-0.60713">
        <ele>204.42</ele>
        <time>2013-11-23T13:03:12Z</time>
      </trkpt>
      <trkpt lat="43.46674" lon="-0.60712">
        <ele>204.42</ele>
        <time>2013-11-23T13:03:13Z</time>
      </trkpt>
      <trkpt lat="43.46639" lon="-0.60707">
        <ele>206.82</ele>
        <time>2013-11-23T13:03:35Z</time>
      </trkpt>
      <trkpt lat="43.46638" lon="-0.60707">
        <ele>206.34</ele>
        <time>2013-11-23T13:03:36Z</time>
      </trkpt>
      <trkpt lat="43.46637" lon="-0.60706">
        <ele>206.34</ele>
        <time>2013-11-23T13:03:54Z</time>
      </trkpt>
      <trkpt lat="43.46636" lon="-0.60699">
        <ele>205.86</ele>
        <time>2013-11-23T13:04:34Z</time>
      </trkpt>
      <trkpt lat="43.46618" lon="-0.60709">
        <ele>206.34</ele>
        <time>2013-11-23T13:04:54Z</time>
      </trkpt>
      <trkpt lat="43.4656" lon="-0.6073">
        <ele>206.82</ele>
        <time>2013-11-23T13:05:14Z</time>
      </trkpt>
      <trkpt lat="43.46515" lon="-0.60767">
        <ele>209.22</ele>
        <time>2013-11-23T13:05:33Z</time>
      </trkpt>
      <trkpt lat="43.46492" lon="-0.60778">
        <ele>209.7</ele>
        <time>2013-11-23T13:05:47Z</time>
      </trkpt>
      <trkpt lat="43.46492" lon="-0.60776">
        <ele>209.22</ele>
        <time>2013-11-23T13:05:48Z</time>
      </trkpt>
      <trkpt lat="43.46492" lon="-0.60774">
        <ele>210.19</ele>
        <time>2013-11-23T13:05:49Z</time>
      </trkpt>
      <trkpt lat="43.46492" lon="-0.60771">
        <ele>209.7</ele>
        <time>2013-11-23T13:05:50Z</time>
      </trkpt>
      <trkpt lat="43.46492" lon="-0.60769">
        <ele>209.7</ele>
        <time>2013-11-23T13:05:51Z</time>
      </trkpt>
      <trkpt lat="43.46492" lon="-0.60765">
        <ele>209.7</ele>
        <time>2013-11-23T13:05:52Z</time>
      </trkpt>
      <trkpt lat="43.46492" lon="-0.60761">
        <ele>210.19</ele>
        <time>2013-11-23T13:05:53Z</time>
      </trkpt>
      <trkpt lat="43.46492" lon="-0.60758">
        <ele>209.7</ele>
        <time>2013-11-23T13:05:54Z</time>
      </trkpt>
      <trkpt lat="43.46492" lon="-0.60755">
        <ele>209.7</ele>
        <time>2013-11-23T13:05:55Z</time>
      </trkpt>
      <trkpt lat="43.46492" lon="-0.60752">
        <ele>210.19</ele>
        <time>2013-11-23T13:05:56Z</time>
      </trkpt>
      <trkpt lat="43.46491" lon="-0.60748">
        <ele>209.7</ele>
        <time>2013-11-23T13:05:57Z</time>
      </trkpt>
      <trkpt lat="43.46491" lon="-0.60744">
        <ele>209.7</ele>
        <time>2013-11-23T13:05:58Z</time>
      </trkpt>
      <trkpt lat="43.46485" lon="-0.60649">
        <ele>211.15</ele>
        <time>2013-11-23T13:06:21Z</time>
      </trkpt>
      <trkpt lat="43.46467" lon="-0.60573">
        <ele>213.07</ele>
        <time>2013-11-23T13:06:39Z</time>
      </trkpt>
      <trkpt lat="43.46442" lon="-0.60485">
        <ele>212.59</ele>
        <time>2013-11-23T13:06:59Z</time>
      </trkpt>
      <trkpt lat="43.46392" lon="-0.60381">
        <ele>211.63</ele>
        <time>2013-11-23T13:07:20Z</time>
      </trkpt>
      <trkpt lat="43.4637" lon="-0.60344">
        <ele>211.63</ele>
        <time>2013-11-23T13:07:28Z</time>
      </trkpt>
      <trkpt lat="43.46367" lon="-0.60339">
        <ele>211.63</ele>
        <time>2013-11-23T13:07:29Z</time>
      </trkpt>
      <trkpt lat="43.46348" lon="-0.60305">
        <ele>211.63</ele>
        <time>2013-11-23T13:07:36Z</time>
      </trkpt>
      <trkpt lat="43.46345" lon="-0.603">
        <ele>211.63</ele>
        <time>2013-11-23T13:07:37Z</time>
      </trkpt>
      <trkpt lat="43.46329" lon="-0.60272">
        <ele>211.63</ele>
        <time>2013-11-23T13:07:43Z</time>
      </trkpt>
      <trkpt lat="43.46319" lon="-0.6026">
        <ele>212.11</ele>
        <time>2013-11-23T13:07:46Z</time>
      </trkpt>
      <trkpt lat="43.46239" lon="-0.60183">
        <ele>211.63</ele>
        <time>2013-11-23T13:08:08Z</time>
      </trkpt>
      <trkpt lat="43.46212" lon="-0.60164">
        <ele>210.67</ele>
        <time>2013-11-23T13:08:14Z</time>
      </trkpt>
      <trkpt lat="43.46146" lon="-0.60131">
        <ele>208.26</ele>
        <time>2013-11-23T13:08:27Z</time>
      </trkpt>
      <trkpt lat="43.46141" lon="-0.6013">
        <ele>208.26</ele>
        <time>2013-11-23T13:08:28Z</time>
      </trkpt>
      <trkpt lat="43.46085" lon="-0.60125">
        <ele>207.3</ele>
        <time>2013-11-23T13:08:38Z</time>
      </trkpt>
      <trkpt lat="43.46063" lon="-0.60125">
        <ele>207.3</ele>
        <time>2013-11-23T13:08:42Z</time>
      </trkpt>
      <trkpt lat="43.45983" lon="-0.60132">
        <ele>206.82</ele>
        <time>2013-11-23T13:08:58Z</time>
      </trkpt>
      <trkpt lat="43.45979" lon="-0.60131">
        <ele>206.82</ele>
        <time>2013-11-23T13:08:59Z</time>
      </trkpt>
      <trkpt lat="43.45874" lon="-0.60111">
        <ele>209.7</ele>
        <time>2013-11-23T13:09:23Z</time>
      </trkpt>
      <trkpt lat="43.4587" lon="-0.6011">
        <ele>209.7</ele>
        <time>2013-11-23T13:09:24Z</time>
      </trkpt>
      <trkpt lat="43.45845" lon="-0.60108">
        <ele>210.19</ele>
        <time>2013-11-23T13:09:30Z</time>
      </trkpt>
      <trkpt lat="43.45828" lon="-0.60112">
        <ele>210.67</ele>
        <time>2013-11-23T13:09:34Z</time>
      </trkpt>
      <trkpt lat="43.45824" lon="-0.60115">
        <ele>210.67</ele>
        <time>2013-11-23T13:09:35Z</time>
      </trkpt>
      <trkpt lat="43.4582" lon="-0.60117">
        <ele>210.67</ele>
        <time>2013-11-23T13:09:36Z</time>
      </trkpt>
      <trkpt lat="43.45816" lon="-0.60118">
        <ele>210.19</ele>
        <time>2013-11-23T13:09:37Z</time>
      </trkpt>
      <trkpt lat="43.45812" lon="-0.60119">
        <ele>210.67</ele>
        <time>2013-11-23T13:09:38Z</time>
      </trkpt>
      <trkpt lat="43.45808" lon="-0.60121">
        <ele>211.15</ele>
        <time>2013-11-23T13:09:39Z</time>
      </trkpt>
      <trkpt lat="43.45805" lon="-0.60123">
        <ele>211.15</ele>
        <time>2013-11-23T13:09:40Z</time>
      </trkpt>
      <trkpt lat="43.45801" lon="-0.60124">
        <ele>211.15</ele>
        <time>2013-11-23T13:09:41Z</time>
      </trkpt>
      <trkpt lat="43.45755" lon="-0.60145">
        <ele>212.59</ele>
        <time>2013-11-23T13:09:54Z</time>
      </trkpt>
      <trkpt lat="43.45752" lon="-0.60148">
        <ele>213.07</ele>
        <time>2013-11-23T13:09:55Z</time>
      </trkpt>
      <trkpt lat="43.45749" lon="-0.60149">
        <ele>213.07</ele>
        <time>2013-11-23T13:09:56Z</time>
      </trkpt>
      <trkpt lat="43.45712" lon="-0.60177">
        <ele>215.95</ele>
        <time>2013-11-23T13:10:10Z</time>
      </trkpt>
      <trkpt lat="43.45681" lon="-0.60215">
        <ele>219.32</ele>
        <time>2013-11-23T13:10:28Z</time>
      </trkpt>
      <trkpt lat="43.45652" lon="-0.60256">
        <ele>221.72</ele>
        <time>2013-11-23T13:10:48Z</time>
      </trkpt>
      <trkpt lat="43.45639" lon="-0.6027">
        <ele>222.2</ele>
        <time>2013-11-23T13:10:56Z</time>
      </trkpt>
      <trkpt lat="43.45637" lon="-0.60272">
        <ele>221.72</ele>
        <time>2013-11-23T13:10:57Z</time>
      </trkpt>
      <trkpt lat="43.45635" lon="-0.60274">
        <ele>222.2</ele>
        <time>2013-11-23T13:10:58Z</time>
      </trkpt>
      <trkpt lat="43.45634" lon="-0.60276">
        <ele>222.2</ele>
        <time>2013-11-23T13:10:59Z</time>
      </trkpt>
      <trkpt lat="43.45632" lon="-0.60278">
        <ele>222.68</ele>
        <time>2013-11-23T13:11:00Z</time>
      </trkpt>
      <trkpt lat="43.45631" lon="-0.6028">
        <ele>222.68</ele>
        <time>2013-11-23T13:11:01Z</time>
      </trkpt>
      <trkpt lat="43.45629" lon="-0.60282">
        <ele>222.68</ele>
        <time>2013-11-23T13:11:02Z</time>
      </trkpt>
      <trkpt lat="43.45628" lon="-0.60284">
        <ele>222.68</ele>
        <time>2013-11-23T13:11:03Z</time>
      </trkpt>
      <trkpt lat="43.45626" lon="-0.60287">
        <ele>222.68</ele>
        <time>2013-11-23T13:11:04Z</time>
      </trkpt>
      <trkpt lat="43.456" lon="-0.60342">
        <ele>224.12</ele>
        <time>2013-11-23T13:11:24Z</time>
      </trkpt>
      <trkpt lat="43.45569" lon="-0.60409">
        <ele>223.64</ele>
        <time>2013-11-23T13:11:44Z</time>
      </trkpt>
      <trkpt lat="43.45549" lon="-0.60445">
        <ele>220.76</ele>
        <time>2013-11-23T13:11:51Z</time>
      </trkpt>
      <trkpt lat="43.45541" lon="-0.60464">
        <ele>218.36</ele>
        <time>2013-11-23T13:11:55Z</time>
      </trkpt>
      <trkpt lat="43.45528" lon="-0.6049">
        <ele>214.99</ele>
        <time>2013-11-23T13:12:00Z</time>
      </trkpt>
      <trkpt lat="43.45524" lon="-0.60495">
        <ele>214.03</ele>
        <time>2013-11-23T13:12:01Z</time>
      </trkpt>
      <trkpt lat="43.45512" lon="-0.6051">
        <ele>209.7</ele>
        <time>2013-11-23T13:12:04Z</time>
      </trkpt>
      <trkpt lat="43.455" lon="-0.60522">
        <ele>205.86</ele>
        <time>2013-11-23T13:12:07Z</time>
      </trkpt>
      <trkpt lat="43.45494" lon="-0.60527">
        <ele>203.94</ele>
        <time>2013-11-23T13:12:11Z</time>
      </trkpt>
      <trkpt lat="43.45493" lon="-0.60528">
        <ele>204.9</ele>
        <time>2013-11-23T13:12:36Z</time>
      </trkpt>
      <trkpt lat="43.45484" lon="-0.6053">
        <ele>204.42</ele>
        <time>2013-11-23T13:13:08Z</time>
      </trkpt>
      <trkpt lat="43.45488" lon="-0.60524">
        <ele>203.94</ele>
        <time>2013-11-23T13:13:25Z</time>
      </trkpt>
      <trkpt lat="43.45494" lon="-0.60518">
        <ele>205.38</ele>
        <time>2013-11-23T13:13:40Z</time>
      </trkpt>
      <trkpt lat="43.45494" lon="-0.60516">
        <ele>205.86</ele>
        <time>2013-11-23T13:13:43Z</time>
      </trkpt>
      <trkpt lat="43.45492" lon="-0.60511">
        <ele>204.42</ele>
        <time>2013-11-23T13:13:45Z</time>
      </trkpt>
      <trkpt lat="43.45492" lon="-0.60509">
        <ele>204.42</ele>
        <time>2013-11-23T13:13:46Z</time>
      </trkpt>
      <trkpt lat="43.45493" lon="-0.60505">
        <ele>203.94</ele>
        <time>2013-11-23T13:13:49Z</time>
      </trkpt>
      <trkpt lat="43.45494" lon="-0.60502">
        <ele>202.98</ele>
        <time>2013-11-23T13:13:50Z</time>
      </trkpt>
      <trkpt lat="43.45495" lon="-0.605">
        <ele>203.94</ele>
        <time>2013-11-23T13:13:51Z</time>
      </trkpt>
      <trkpt lat="43.45497" lon="-0.60498">
        <ele>203.94</ele>
        <time>2013-11-23T13:13:52Z</time>
      </trkpt>
      <trkpt lat="43.45498" lon="-0.60497">
        <ele>204.42</ele>
        <time>2013-11-23T13:13:53Z</time>
      </trkpt>
      <trkpt lat="43.45511" lon="-0.60472">
        <ele>206.82</ele>
        <time>2013-11-23T13:14:04Z</time>
      </trkpt>
      <trkpt lat="43.45515" lon="-0.60465">
        <ele>207.3</ele>
        <time>2013-11-23T13:14:07Z</time>
      </trkpt>
      <trkpt lat="43.45506" lon="-0.60431">
        <ele>203.94</ele>
        <time>2013-11-23T13:14:17Z</time>
      </trkpt>
      <trkpt lat="43.45505" lon="-0.60426">
        <ele>203.94</ele>
        <time>2013-11-23T13:14:18Z</time>
      </trkpt>
      <trkpt lat="43.45504" lon="-0.6041">
        <ele>203.46</ele>
        <time>2013-11-23T13:14:23Z</time>
      </trkpt>
      <trkpt lat="43.45501" lon="-0.60398">
        <ele>202.98</ele>
        <time>2013-11-23T13:14:27Z</time>
      </trkpt>
      <trkpt lat="43.45497" lon="-0.60389">
        <ele>201.53</ele>
        <time>2013-11-23T13:14:30Z</time>
      </trkpt>
      <trkpt lat="43.45495" lon="-0.60386">
        <ele>200.09</ele>
        <time>2013-11-23T13:14:32Z</time>
      </trkpt>
      <trkpt lat="43.45491" lon="-0.60377">
        <ele>198.65</ele>
        <time>2013-11-23T13:14:36Z</time>
      </trkpt>
      <trkpt lat="43.45483" lon="-0.60369">
        <ele>196.25</ele>
        <time>2013-11-23T13:14:42Z</time>
      </trkpt>
      <trkpt lat="43.45481" lon="-0.60372">
        <ele>195.28</ele>
        <time>2013-11-23T13:14:44Z</time>
      </trkpt>
      <trkpt lat="43.45475" lon="-0.60385">
        <ele>194.8</ele>
        <time>2013-11-23T13:14:50Z</time>
      </trkpt>
      <trkpt lat="43.45467" lon="-0.60394">
        <ele>192.4</ele>
        <time>2013-11-23T13:14:55Z</time>
      </trkpt>
      <trkpt lat="43.45457" lon="-0.60413">
        <ele>189.04</ele>
        <time>2013-11-23T13:15:04Z</time>
      </trkpt>
      <trkpt lat="43.4545" lon="-0.60418">
        <ele>189.04</ele>
        <time>2013-11-23T13:15:17Z</time>
      </trkpt>
      <trkpt lat="43.45443" lon="-0.60417">
        <ele>188.08</ele>
        <time>2013-11-23T13:15:22Z</time>
      </trkpt>
      <trkpt lat="43.45432" lon="-0.60403">
        <ele>185.19</ele>
        <time>2013-11-23T13:15:31Z</time>
      </trkpt>
      <trkpt lat="43.45431" lon="-0.60399">
        <ele>185.67</ele>
        <time>2013-11-23T13:15:36Z</time>
      </trkpt>
      <trkpt lat="43.45431" lon="-0.60394">
        <ele>186.63</ele>
        <time>2013-11-23T13:15:39Z</time>
      </trkpt>
      <trkpt lat="43.45427" lon="-0.60382">
        <ele>186.63</ele>
        <time>2013-11-23T13:15:44Z</time>
      </trkpt>
      <trkpt lat="43.45421" lon="-0.60376">
        <ele>184.71</ele>
        <time>2013-11-23T13:15:47Z</time>
      </trkpt>
      <trkpt lat="43.45417" lon="-0.60377">
        <ele>183.75</ele>
        <time>2013-11-23T13:15:50Z</time>
      </trkpt>
      <trkpt lat="43.45409" lon="-0.60387">
        <ele>181.83</ele>
        <time>2013-11-23T13:15:55Z</time>
      </trkpt>
      <trkpt lat="43.45412" lon="-0.60411">
        <ele>179.42</ele>
        <time>2013-11-23T13:16:13Z</time>
      </trkpt>
      <trkpt lat="43.45409" lon="-0.60415">
        <ele>179.42</ele>
        <time>2013-11-23T13:16:24Z</time>
      </trkpt>
      <trkpt lat="43.45409" lon="-0.60418">
        <ele>179.42</ele>
        <time>2013-11-23T13:16:30Z</time>
      </trkpt>
      <trkpt lat="43.45407" lon="-0.60424">
        <ele>179.42</ele>
        <time>2013-11-23T13:16:33Z</time>
      </trkpt>
      <trkpt lat="43.45392" lon="-0.60455">
        <ele>181.35</ele>
        <time>2013-11-23T13:16:49Z</time>
      </trkpt>
      <trkpt lat="43.45391" lon="-0.60458">
        <ele>181.35</ele>
        <time>2013-11-23T13:16:50Z</time>
      </trkpt>
      <trkpt lat="43.45384" lon="-0.60466">
        <ele>182.79</ele>
        <time>2013-11-23T13:16:56Z</time>
      </trkpt>
      <trkpt lat="43.45375" lon="-0.60485">
        <ele>182.31</ele>
        <time>2013-11-23T13:17:14Z</time>
      </trkpt>
      <trkpt lat="43.45371" lon="-0.60481">
        <ele>182.79</ele>
        <time>2013-11-23T13:17:32Z</time>
      </trkpt>
      <trkpt lat="43.4538" lon="-0.6047">
        <ele>182.79</ele>
        <time>2013-11-23T13:18:16Z</time>
      </trkpt>
      <trkpt lat="43.45374" lon="-0.60481">
        <ele>183.27</ele>
        <time>2013-11-23T13:19:07Z</time>
      </trkpt>
      <trkpt lat="43.45378" lon="-0.60477">
        <ele>183.75</ele>
        <time>2013-11-23T13:20:00Z</time>
      </trkpt>
      <trkpt lat="43.45372" lon="-0.60472">
        <ele>184.23</ele>
        <time>2013-11-23T13:20:50Z</time>
      </trkpt>
      <trkpt lat="43.45371" lon="-0.60483">
        <ele>184.23</ele>
        <time>2013-11-23T13:21:46Z</time>
      </trkpt>
      <trkpt lat="43.45373" lon="-0.60487">
        <ele>184.71</ele>
        <time>2013-11-23T13:22:45Z</time>
      </trkpt>
      <trkpt lat="43.45372" lon="-0.60492">
        <ele>184.71</ele>
        <time>2013-11-23T13:23:31Z</time>
      </trkpt>
      <trkpt lat="43.45371" lon="-0.60483">
        <ele>185.67</ele>
        <time>2013-11-23T13:24:12Z</time>
      </trkpt>
      <trkpt lat="43.45379" lon="-0.60494">
        <ele>185.19</ele>
        <time>2013-11-23T13:25:04Z</time>
      </trkpt>
      <trkpt lat="43.45371" lon="-0.60485">
        <ele>185.67</ele>
        <time>2013-11-23T13:25:54Z</time>
      </trkpt>
      <trkpt lat="43.45369" lon="-0.60487">
        <ele>185.67</ele>
        <time>2013-11-23T13:26:51Z</time>
      </trkpt>
      <trkpt lat="43.4537" lon="-0.60485">
        <ele>186.15</ele>
        <time>2013-11-23T13:27:45Z</time>
      </trkpt>
      <trkpt lat="43.45375" lon="-0.60482">
        <ele>186.15</ele>
        <time>2013-11-23T13:28:11Z</time>
      </trkpt>
      <trkpt lat="43.45372" lon="-0.60484">
        <ele>186.15</ele>
        <time>2013-11-23T13:28:49Z</time>
      </trkpt>
      <trkpt lat="43.45372" lon="-0.60486">
        <ele>186.63</ele>
        <time>2013-11-23T13:29:26Z</time>
      </trkpt>
      <trkpt lat="43.45371" lon="-0.60485">
        <ele>186.15</ele>
        <time>2013-11-23T13:30:07Z</time>
      </trkpt>
      <trkpt lat="43.45371" lon="-0.60487">
        <ele>186.63</ele>
        <time>2013-11-23T13:30:19Z</time>
      </trkpt>
      <trkpt lat="43.45358" lon="-0.60478">
        <ele>183.27</ele>
        <time>2013-11-23T13:30:29Z</time>
      </trkpt>
      <trkpt lat="43.45345" lon="-0.60474">
        <ele>180.38</ele>
        <time>2013-11-23T13:30:34Z</time>
      </trkpt>
      <trkpt lat="43.45342" lon="-0.60475">
        <ele>179.9</ele>
        <time>2013-11-23T13:30:35Z</time>
      </trkpt>
      <trkpt lat="43.45326" lon="-0.60484">
        <ele>177.02</ele>
        <time>2013-11-23T13:30:40Z</time>
      </trkpt>
      <trkpt lat="43.45319" lon="-0.60484">
        <ele>174.62</ele>
        <time>2013-11-23T13:30:42Z</time>
      </trkpt>
      <trkpt lat="43.45317" lon="-0.60484">
        <ele>174.62</ele>
        <time>2013-11-23T13:30:43Z</time>
      </trkpt>
      <trkpt lat="43.45314" lon="-0.60484">
        <ele>173.66</ele>
        <time>2013-11-23T13:30:44Z</time>
      </trkpt>
      <trkpt lat="43.453" lon="-0.60532">
        <ele>172.69</ele>
        <time>2013-11-23T13:30:59Z</time>
      </trkpt>
      <trkpt lat="43.453" lon="-0.60536">
        <ele>172.69</ele>
        <time>2013-11-23T13:31:00Z</time>
      </trkpt>
      <trkpt lat="43.45297" lon="-0.60548">
        <ele>172.21</ele>
        <time>2013-11-23T13:31:04Z</time>
      </trkpt>
      <trkpt lat="43.45296" lon="-0.6056">
        <ele>172.21</ele>
        <time>2013-11-23T13:31:09Z</time>
      </trkpt>
      <trkpt lat="43.45285" lon="-0.60593">
        <ele>170.77</ele>
        <time>2013-11-23T13:31:17Z</time>
      </trkpt>
      <trkpt lat="43.45271" lon="-0.60606">
        <ele>168.85</ele>
        <time>2013-11-23T13:31:21Z</time>
      </trkpt>
      <trkpt lat="43.45263" lon="-0.60609">
        <ele>167.89</ele>
        <time>2013-11-23T13:31:23Z</time>
      </trkpt>
      <trkpt lat="43.45243" lon="-0.60615">
        <ele>165.48</ele>
        <time>2013-11-23T13:31:28Z</time>
      </trkpt>
      <trkpt lat="43.45221" lon="-0.6062">
        <ele>161.64</ele>
        <time>2013-11-23T13:31:33Z</time>
      </trkpt>
      <trkpt lat="43.45199" lon="-0.60626">
        <ele>157.79</ele>
        <time>2013-11-23T13:31:38Z</time>
      </trkpt>
      <trkpt lat="43.45173" lon="-0.6064">
        <ele>154.43</ele>
        <time>2013-11-23T13:31:45Z</time>
      </trkpt>
      <trkpt lat="43.45169" lon="-0.60642">
        <ele>154.43</ele>
        <time>2013-11-23T13:31:46Z</time>
      </trkpt>
      <trkpt lat="43.45155" lon="-0.60651">
        <ele>152.03</ele>
        <time>2013-11-23T13:31:51Z</time>
      </trkpt>
      <trkpt lat="43.4516" lon="-0.60647">
        <ele>151.54</ele>
        <time>2013-11-23T13:32:04Z</time>
      </trkpt>
      <trkpt lat="43.45164" lon="-0.60629">
        <ele>151.54</ele>
        <time>2013-11-23T13:32:11Z</time>
      </trkpt>
      <trkpt lat="43.45166" lon="-0.60575">
        <ele>152.03</ele>
        <time>2013-11-23T13:32:27Z</time>
      </trkpt>
      <trkpt lat="43.45166" lon="-0.60572">
        <ele>151.54</ele>
        <time>2013-11-23T13:32:28Z</time>
      </trkpt>
      <trkpt lat="43.45166" lon="-0.60569">
        <ele>151.54</ele>
        <time>2013-11-23T13:32:29Z</time>
      </trkpt>
      <trkpt lat="43.45166" lon="-0.60566">
        <ele>151.54</ele>
        <time>2013-11-23T13:32:30Z</time>
      </trkpt>
      <trkpt lat="43.45166" lon="-0.60563">
        <ele>151.54</ele>
        <time>2013-11-23T13:32:31Z</time>
      </trkpt>
      <trkpt lat="43.45161" lon="-0.60506">
        <ele>150.1</ele>
        <time>2013-11-23T13:32:46Z</time>
      </trkpt>
      <trkpt lat="43.45152" lon="-0.60435">
        <ele>152.51</ele>
        <time>2013-11-23T13:33:05Z</time>
      </trkpt>
      <trkpt lat="43.45148" lon="-0.60368">
        <ele>152.99</ele>
        <time>2013-11-23T13:33:26Z</time>
      </trkpt>
      <trkpt lat="43.45142" lon="-0.603">
        <ele>152.03</ele>
        <time>2013-11-23T13:33:42Z</time>
      </trkpt>
      <trkpt lat="43.45136" lon="-0.60229">
        <ele>152.03</ele>
        <time>2013-11-23T13:34:01Z</time>
      </trkpt>
      <trkpt lat="43.45132" lon="-0.60175">
        <ele>154.91</ele>
        <time>2013-11-23T13:34:17Z</time>
      </trkpt>
      <trkpt lat="43.4513" lon="-0.60167">
        <ele>155.39</ele>
        <time>2013-11-23T13:34:32Z</time>
      </trkpt>
      <trkpt lat="43.45127" lon="-0.60166">
        <ele>154.91</ele>
        <time>2013-11-23T13:34:35Z</time>
      </trkpt>
      <trkpt lat="43.45086" lon="-0.60195">
        <ele>152.03</ele>
        <time>2013-11-23T13:34:53Z</time>
      </trkpt>
      <trkpt lat="43.4505" lon="-0.60172">
        <ele>151.54</ele>
        <time>2013-11-23T13:35:08Z</time>
      </trkpt>
      <trkpt lat="43.45023" lon="-0.60151">
        <ele>150.58</ele>
        <time>2013-11-23T13:35:19Z</time>
      </trkpt>
      <trkpt lat="43.45023" lon="-0.60149">
        <ele>150.1</ele>
        <time>2013-11-23T13:35:20Z</time>
      </trkpt>
      <trkpt lat="43.45021" lon="-0.60147">
        <ele>150.1</ele>
        <time>2013-11-23T13:35:28Z</time>
      </trkpt>
      <trkpt lat="43.4502" lon="-0.60147">
        <ele>149.62</ele>
        <time>2013-11-23T13:35:29Z</time>
      </trkpt>
      <trkpt lat="43.44993" lon="-0.60122">
        <ele>146.26</ele>
        <time>2013-11-23T13:35:43Z</time>
      </trkpt>
      <trkpt lat="43.44977" lon="-0.60098">
        <ele>143.85</ele>
        <time>2013-11-23T13:35:56Z</time>
      </trkpt>
      <trkpt lat="43.44969" lon="-0.60089">
        <ele>142.41</ele>
        <time>2013-11-23T13:36:01Z</time>
      </trkpt>
      <trkpt lat="43.44967" lon="-0.60088">
        <ele>141.93</ele>
        <time>2013-11-23T13:36:02Z</time>
      </trkpt>
      <trkpt lat="43.44966" lon="-0.60089">
        <ele>142.41</ele>
        <time>2013-11-23T13:36:03Z</time>
      </trkpt>
      <trkpt lat="43.44964" lon="-0.60091">
        <ele>141.93</ele>
        <time>2013-11-23T13:36:04Z</time>
      </trkpt>
      <trkpt lat="43.44962" lon="-0.60093">
        <ele>142.41</ele>
        <time>2013-11-23T13:36:05Z</time>
      </trkpt>
      <trkpt lat="43.4496" lon="-0.60096">
        <ele>141.93</ele>
        <time>2013-11-23T13:36:06Z</time>
      </trkpt>
      <trkpt lat="43.44927" lon="-0.60142">
        <ele>141.93</ele>
        <time>2013-11-23T13:36:23Z</time>
      </trkpt>
      <trkpt lat="43.44882" lon="-0.602">
        <ele>140.01</ele>
        <time>2013-11-23T13:36:41Z</time>
      </trkpt>
      <trkpt lat="43.44843" lon="-0.6023">
        <ele>136.64</ele>
        <time>2013-11-23T13:36:56Z</time>
      </trkpt>
      <trkpt lat="43.44839" lon="-0.60232">
        <ele>135.68</ele>
        <time>2013-11-23T13:37:10Z</time>
      </trkpt>
      <trkpt lat="43.44823" lon="-0.6024">
        <ele>135.2</ele>
        <time>2013-11-23T13:37:35Z</time>
      </trkpt>
      <trkpt lat="43.44809" lon="-0.60253">
        <ele>135.2</ele>
        <time>2013-11-23T13:37:51Z</time>
      </trkpt>
      <trkpt lat="43.44792" lon="-0.60283">
        <ele>134.72</ele>
        <time>2013-11-23T13:38:05Z</time>
      </trkpt>
      <trkpt lat="43.44746" lon="-0.60338">
        <ele>133.28</ele>
        <time>2013-11-23T13:38:22Z</time>
      </trkpt>
      <trkpt lat="43.44703" lon="-0.60384">
        <ele>132.32</ele>
        <time>2013-11-23T13:38:39Z</time>
      </trkpt>
      <trkpt lat="43.44662" lon="-0.60429">
        <ele>130.88</ele>
        <time>2013-11-23T13:38:59Z</time>
      </trkpt>
      <trkpt lat="43.44632" lon="-0.60465">
        <ele>129.92</ele>
        <time>2013-11-23T13:39:17Z</time>
      </trkpt>
      <trkpt lat="43.44598" lon="-0.6051">
        <ele>128.47</ele>
        <time>2013-11-23T13:39:36Z</time>
      </trkpt>
      <trkpt lat="43.44559" lon="-0.60566">
        <ele>127.03</ele>
        <time>2013-11-23T13:39:54Z</time>
      </trkpt>
      <trkpt lat="43.44517" lon="-0.60627">
        <ele>126.55</ele>
        <time>2013-11-23T13:40:13Z</time>
      </trkpt>
      <trkpt lat="43.44467" lon="-0.60693">
        <ele>124.63</ele>
        <time>2013-11-23T13:40:32Z</time>
      </trkpt>
      <trkpt lat="43.44415" lon="-0.60755">
        <ele>123.19</ele>
        <time>2013-11-23T13:40:54Z</time>
      </trkpt>
      <trkpt lat="43.44394" lon="-0.60775">
        <ele>123.67</ele>
        <time>2013-11-23T13:41:05Z</time>
      </trkpt>
      <trkpt lat="43.44393" lon="-0.60773">
        <ele>123.19</ele>
        <time>2013-11-23T13:41:06Z</time>
      </trkpt>
      <trkpt lat="43.44393" lon="-0.60771">
        <ele>123.19</ele>
        <time>2013-11-23T13:41:07Z</time>
      </trkpt>
      <trkpt lat="43.44392" lon="-0.60769">
        <ele>123.19</ele>
        <time>2013-11-23T13:41:08Z</time>
      </trkpt>
      <trkpt lat="43.44393" lon="-0.60768">
        <ele>123.67</ele>
        <time>2013-11-23T13:41:09Z</time>
      </trkpt>
      <trkpt lat="43.44393" lon="-0.60766">
        <ele>123.67</ele>
        <time>2013-11-23T13:41:10Z</time>
      </trkpt>
      <trkpt lat="43.44392" lon="-0.60764">
        <ele>123.19</ele>
        <time>2013-11-23T13:41:11Z</time>
      </trkpt>
      <trkpt lat="43.44392" lon="-0.60763">
        <ele>123.67</ele>
        <time>2013-11-23T13:41:12Z</time>
      </trkpt>
      <trkpt lat="43.44391" lon="-0.60761">
        <ele>123.67</ele>
        <time>2013-11-23T13:41:13Z</time>
      </trkpt>
      <trkpt lat="43.4439" lon="-0.60759">
        <ele>123.67</ele>
        <time>2013-11-23T13:41:14Z</time>
      </trkpt>
      <trkpt lat="43.4439" lon="-0.60758">
        <ele>123.67</ele>
        <time>2013-11-23T13:41:15Z</time>
      </trkpt>
      <trkpt lat="43.44389" lon="-0.60757">
        <ele>123.67</ele>
        <time>2013-11-23T13:41:16Z</time>
      </trkpt>
      <trkpt lat="43.44388" lon="-0.60755">
        <ele>123.67</ele>
        <time>2013-11-23T13:41:17Z</time>
      </trkpt>
      <trkpt lat="43.44387" lon="-0.60753">
        <ele>123.67</ele>
        <time>2013-11-23T13:41:18Z</time>
      </trkpt>
      <trkpt lat="43.44386" lon="-0.6075">
        <ele>123.19</ele>
        <time>2013-11-23T13:41:19Z</time>
      </trkpt>
      <trkpt lat="43.44385" lon="-0.60747">
        <ele>123.19</ele>
        <time>2013-11-23T13:41:20Z</time>
      </trkpt>
      <trkpt lat="43.44384" lon="-0.60744">
        <ele>123.19</ele>
        <time>2013-11-23T13:41:21Z</time>
      </trkpt>
      <trkpt lat="43.44371" lon="-0.60676">
        <ele>124.15</ele>
        <time>2013-11-23T13:41:40Z</time>
      </trkpt>
      <trkpt lat="43.44357" lon="-0.60606">
        <ele>123.67</ele>
        <time>2013-11-23T13:42:02Z</time>
      </trkpt>
      <trkpt lat="43.44341" lon="-0.60533">
        <ele>124.15</ele>
        <time>2013-11-23T13:42:20Z</time>
      </trkpt>
      <trkpt lat="43.4433" lon="-0.60482">
        <ele>121.26</ele>
        <time>2013-11-23T13:42:32Z</time>
      </trkpt>
      <trkpt lat="43.44313" lon="-0.60414">
        <ele>122.22</ele>
        <time>2013-11-23T13:42:50Z</time>
      </trkpt>
      <trkpt lat="43.4429" lon="-0.60352">
        <ele>124.63</ele>
        <time>2013-11-23T13:43:08Z</time>
      </trkpt>
      <trkpt lat="43.44268" lon="-0.60262">
        <ele>125.11</ele>
        <time>2013-11-23T13:43:29Z</time>
      </trkpt>
      <trkpt lat="43.44296" lon="-0.60216">
        <ele>126.07</ele>
        <time>2013-11-23T13:43:42Z</time>
      </trkpt>
      <trkpt lat="43.44294" lon="-0.60212">
        <ele>126.07</ele>
        <time>2013-11-23T13:43:43Z</time>
      </trkpt>
      <trkpt lat="43.44292" lon="-0.60209">
        <ele>125.11</ele>
        <time>2013-11-23T13:43:44Z</time>
      </trkpt>
      <trkpt lat="43.44238" lon="-0.60135">
        <ele>125.11</ele>
        <time>2013-11-23T13:44:06Z</time>
      </trkpt>
      <trkpt lat="43.44226" lon="-0.60107">
        <ele>125.11</ele>
        <time>2013-11-23T13:44:14Z</time>
      </trkpt>
      <trkpt lat="43.44227" lon="-0.60104">
        <ele>125.11</ele>
        <time>2013-11-23T13:44:15Z</time>
      </trkpt>
      <trkpt lat="43.44229" lon="-0.60101">
        <ele>125.11</ele>
        <time>2013-11-23T13:44:16Z</time>
      </trkpt>
      <trkpt lat="43.44232" lon="-0.60099">
        <ele>125.11</ele>
        <time>2013-11-23T13:44:17Z</time>
      </trkpt>
      <trkpt lat="43.44235" lon="-0.60098">
        <ele>125.11</ele>
        <time>2013-11-23T13:44:18Z</time>
      </trkpt>
      <trkpt lat="43.44286" lon="-0.60058">
        <ele>125.59</ele>
        <time>2013-11-23T13:44:38Z</time>
      </trkpt>
      <trkpt lat="43.44274" lon="-0.59997">
        <ele>126.07</ele>
        <time>2013-11-23T13:44:53Z</time>
      </trkpt>
      <trkpt lat="43.4426" lon="-0.59945">
        <ele>126.55</ele>
        <time>2013-11-23T13:45:03Z</time>
      </trkpt>
      <trkpt lat="43.44257" lon="-0.59935">
        <ele>127.03</ele>
        <time>2013-11-23T13:45:05Z</time>
      </trkpt>
      <trkpt lat="43.4423" lon="-0.59837">
        <ele>126.55</ele>
        <time>2013-11-23T13:45:26Z</time>
      </trkpt>
      <trkpt lat="43.44242" lon="-0.59766">
        <ele>126.55</ele>
        <time>2013-11-23T13:45:43Z</time>
      </trkpt>
      <trkpt lat="43.44261" lon="-0.59721">
        <ele>127.03</ele>
        <time>2013-11-23T13:45:55Z</time>
      </trkpt>
      <trkpt lat="43.44261" lon="-0.59717">
        <ele>127.51</ele>
        <time>2013-11-23T13:45:56Z</time>
      </trkpt>
      <trkpt lat="43.44261" lon="-0.59713">
        <ele>127.03</ele>
        <time>2013-11-23T13:45:57Z</time>
      </trkpt>
      <trkpt lat="43.44261" lon="-0.59709">
        <ele>127.03</ele>
        <time>2013-11-23T13:45:58Z</time>
      </trkpt>
      <trkpt lat="43.4426" lon="-0.59705">
        <ele>127.51</ele>
        <time>2013-11-23T13:45:59Z</time>
      </trkpt>
      <trkpt lat="43.44259" lon="-0.59701">
        <ele>127.03</ele>
        <time>2013-11-23T13:46:00Z</time>
      </trkpt>
      <trkpt lat="43.44253" lon="-0.59619">
        <ele>127.99</ele>
        <time>2013-11-23T13:46:18Z</time>
      </trkpt>
      <trkpt lat="43.44257" lon="-0.59518">
        <ele>128.95</ele>
        <time>2013-11-23T13:46:39Z</time>
      </trkpt>
      <trkpt lat="43.44282" lon="-0.59412">
        <ele>130.88</ele>
        <time>2013-11-23T13:47:03Z</time>
      </trkpt>
      <trkpt lat="43.44271" lon="-0.59338">
        <ele>133.28</ele>
        <time>2013-11-23T13:47:22Z</time>
      </trkpt>
      <trkpt lat="43.44272" lon="-0.59334">
        <ele>132.8</ele>
        <time>2013-11-23T13:47:23Z</time>
      </trkpt>
      <trkpt lat="43.44273" lon="-0.5933">
        <ele>132.8</ele>
        <time>2013-11-23T13:47:24Z</time>
      </trkpt>
      <trkpt lat="43.44275" lon="-0.59326">
        <ele>132.8</ele>
        <time>2013-11-23T13:47:25Z</time>
      </trkpt>
      <trkpt lat="43.44277" lon="-0.59321">
        <ele>132.8</ele>
        <time>2013-11-23T13:47:26Z</time>
      </trkpt>
      <trkpt lat="43.44266" lon="-0.59261">
        <ele>134.72</ele>
        <time>2013-11-23T13:47:42Z</time>
      </trkpt>
      <trkpt lat="43.44226" lon="-0.59183">
        <ele>134.24</ele>
        <time>2013-11-23T13:48:01Z</time>
      </trkpt>
      <trkpt lat="43.44197" lon="-0.59105">
        <ele>133.28</ele>
        <time>2013-11-23T13:48:20Z</time>
      </trkpt>
      <trkpt lat="43.44181" lon="-0.59008">
        <ele>133.76</ele>
        <time>2013-11-23T13:48:41Z</time>
      </trkpt>
      <trkpt lat="43.44138" lon="-0.58918">
        <ele>133.76</ele>
        <time>2013-11-23T13:49:03Z</time>
      </trkpt>
      <trkpt lat="43.4411" lon="-0.58865">
        <ele>132.8</ele>
        <time>2013-11-23T13:49:17Z</time>
      </trkpt>
      <trkpt lat="43.44099" lon="-0.58851">
        <ele>131.84</ele>
        <time>2013-11-23T13:49:21Z</time>
      </trkpt>
      <trkpt lat="43.4405" lon="-0.58786">
        <ele>130.88</ele>
        <time>2013-11-23T13:49:37Z</time>
      </trkpt>
      <trkpt lat="43.44048" lon="-0.58781">
        <ele>131.36</ele>
        <time>2013-11-23T13:49:38Z</time>
      </trkpt>
      <trkpt lat="43.44045" lon="-0.58776">
        <ele>131.36</ele>
        <time>2013-11-23T13:49:39Z</time>
      </trkpt>
      <trkpt lat="43.44022" lon="-0.58753">
        <ele>131.84</ele>
        <time>2013-11-23T13:49:46Z</time>
      </trkpt>
      <trkpt lat="43.44002" lon="-0.58737">
        <ele>131.36</ele>
        <time>2013-11-23T13:49:52Z</time>
      </trkpt>
      <trkpt lat="43.44002" lon="-0.58733">
        <ele>131.36</ele>
        <time>2013-11-23T13:49:53Z</time>
      </trkpt>
      <trkpt lat="43.44003" lon="-0.58728">
        <ele>131.84</ele>
        <time>2013-11-23T13:49:54Z</time>
      </trkpt>
      <trkpt lat="43.44005" lon="-0.58724">
        <ele>131.36</ele>
        <time>2013-11-23T13:49:55Z</time>
      </trkpt>
      <trkpt lat="43.44008" lon="-0.5872">
        <ele>131.36</ele>
        <time>2013-11-23T13:49:56Z</time>
      </trkpt>
      <trkpt lat="43.44011" lon="-0.58717">
        <ele>131.36</ele>
        <time>2013-11-23T13:49:57Z</time>
      </trkpt>
      <trkpt lat="43.44014" lon="-0.58715">
        <ele>131.84</ele>
        <time>2013-11-23T13:49:58Z</time>
      </trkpt>
      <trkpt lat="43.44017" lon="-0.58712">
        <ele>131.84</ele>
        <time>2013-11-23T13:49:59Z</time>
      </trkpt>
      <trkpt lat="43.4402" lon="-0.5871">
        <ele>131.84</ele>
        <time>2013-11-23T13:50:00Z</time>
      </trkpt>
      <trkpt lat="43.44022" lon="-0.58707">
        <ele>132.32</ele>
        <time>2013-11-23T13:50:01Z</time>
      </trkpt>
      <trkpt lat="43.44078" lon="-0.58659">
        <ele>134.24</ele>
        <time>2013-11-23T13:50:23Z</time>
      </trkpt>
      <trkpt lat="43.44079" lon="-0.58656">
        <ele>133.76</ele>
        <time>2013-11-23T13:50:24Z</time>
      </trkpt>
      <trkpt lat="43.4408" lon="-0.58652">
        <ele>134.24</ele>
        <time>2013-11-23T13:50:25Z</time>
      </trkpt>
      <trkpt lat="43.44079" lon="-0.58648">
        <ele>134.72</ele>
        <time>2013-11-23T13:50:26Z</time>
      </trkpt>
      <trkpt lat="43.44078" lon="-0.58646">
        <ele>134.72</ele>
        <time>2013-11-23T13:50:27Z</time>
      </trkpt>
      <trkpt lat="43.44076" lon="-0.58644">
        <ele>134.24</ele>
        <time>2013-11-23T13:50:28Z</time>
      </trkpt>
      <trkpt lat="43.44074" lon="-0.58642">
        <ele>134.72</ele>
        <time>2013-11-23T13:50:29Z</time>
      </trkpt>
      <trkpt lat="43.44072" lon="-0.5864">
        <ele>134.72</ele>
        <time>2013-11-23T13:50:30Z</time>
      </trkpt>
      <trkpt lat="43.4407" lon="-0.58639">
        <ele>135.2</ele>
        <time>2013-11-23T13:50:31Z</time>
      </trkpt>
      <trkpt lat="43.44064" lon="-0.58629">
        <ele>135.2</ele>
        <time>2013-11-23T13:50:36Z</time>
      </trkpt>
      <trkpt lat="43.44064" lon="-0.58625">
        <ele>134.72</ele>
        <time>2013-11-23T13:50:37Z</time>
      </trkpt>
      <trkpt lat="43.44065" lon="-0.58616">
        <ele>134.72</ele>
        <time>2013-11-23T13:50:40Z</time>
      </trkpt>
      <trkpt lat="43.44065" lon="-0.58614">
        <ele>134.72</ele>
        <time>2013-11-23T13:50:41Z</time>
      </trkpt>
      <trkpt lat="43.44046" lon="-0.5858">
        <ele>133.76</ele>
        <time>2013-11-23T13:50:57Z</time>
      </trkpt>
      <trkpt lat="43.4401" lon="-0.58501">
        <ele>134.24</ele>
        <time>2013-11-23T13:51:19Z</time>
      </trkpt>
      <trkpt lat="43.43984" lon="-0.58426">
        <ele>135.2</ele>
        <time>2013-11-23T13:51:38Z</time>
      </trkpt>
      <trkpt lat="43.43968" lon="-0.58365">
        <ele>135.2</ele>
        <time>2013-11-23T13:51:55Z</time>
      </trkpt>
      <trkpt lat="43.43965" lon="-0.58365">
        <ele>134.72</ele>
        <time>2013-11-23T13:51:56Z</time>
      </trkpt>
      <trkpt lat="43.43962" lon="-0.58366">
        <ele>134.72</ele>
        <time>2013-11-23T13:51:57Z</time>
      </trkpt>
      <trkpt lat="43.43892" lon="-0.58419">
        <ele>132.8</ele>
        <time>2013-11-23T13:52:16Z</time>
      </trkpt>
      <trkpt lat="43.43879" lon="-0.58428">
        <ele>132.8</ele>
        <time>2013-11-23T13:52:19Z</time>
      </trkpt>
      <trkpt lat="43.43874" lon="-0.58428">
        <ele>132.32</ele>
        <time>2013-11-23T13:52:20Z</time>
      </trkpt>
      <trkpt lat="43.4387" lon="-0.58426">
        <ele>132.32</ele>
        <time>2013-11-23T13:52:21Z</time>
      </trkpt>
      <trkpt lat="43.43865" lon="-0.58423">
        <ele>132.32</ele>
        <time>2013-11-23T13:52:22Z</time>
      </trkpt>
      <trkpt lat="43.43861" lon="-0.5842">
        <ele>132.32</ele>
        <time>2013-11-23T13:52:23Z</time>
      </trkpt>
      <trkpt lat="43.43857" lon="-0.58417">
        <ele>132.32</ele>
        <time>2013-11-23T13:52:24Z</time>
      </trkpt>
      <trkpt lat="43.43854" lon="-0.58413">
        <ele>132.8</ele>
        <time>2013-11-23T13:52:25Z</time>
      </trkpt>
      <trkpt lat="43.43851" lon="-0.58408">
        <ele>132.8</ele>
        <time>2013-11-23T13:52:26Z</time>
      </trkpt>
      <trkpt lat="43.43808" lon="-0.58333">
        <ele>132.8</ele>
        <time>2013-11-23T13:52:44Z</time>
      </trkpt>
      <trkpt lat="43.43766" lon="-0.58262">
        <ele>133.28</ele>
        <time>2013-11-23T13:53:02Z</time>
      </trkpt>
      <trkpt lat="43.43736" lon="-0.5821">
        <ele>133.76</ele>
        <time>2013-11-23T13:53:16Z</time>
      </trkpt>
      <trkpt lat="43.43718" lon="-0.58178">
        <ele>133.76</ele>
        <time>2013-11-23T13:53:24Z</time>
      </trkpt>
      <trkpt lat="43.43716" lon="-0.58174">
        <ele>133.28</ele>
        <time>2013-11-23T13:53:25Z</time>
      </trkpt>
      <trkpt lat="43.43713" lon="-0.5817">
        <ele>133.76</ele>
        <time>2013-11-23T13:53:26Z</time>
      </trkpt>
      <trkpt lat="43.4369" lon="-0.58129">
        <ele>133.28</ele>
        <time>2013-11-23T13:53:36Z</time>
      </trkpt>
      <trkpt lat="43.43687" lon="-0.58125">
        <ele>133.76</ele>
        <time>2013-11-23T13:53:37Z</time>
      </trkpt>
      <trkpt lat="43.43685" lon="-0.58121">
        <ele>133.76</ele>
        <time>2013-11-23T13:53:38Z</time>
      </trkpt>
      <trkpt lat="43.43683" lon="-0.58116">
        <ele>133.28</ele>
        <time>2013-11-23T13:53:39Z</time>
      </trkpt>
      <trkpt lat="43.4368" lon="-0.58112">
        <ele>133.28</ele>
        <time>2013-11-23T13:53:40Z</time>
      </trkpt>
      <trkpt lat="43.43678" lon="-0.58109">
        <ele>133.76</ele>
        <time>2013-11-23T13:53:41Z</time>
      </trkpt>
      <trkpt lat="43.43675" lon="-0.58105">
        <ele>133.76</ele>
        <time>2013-11-23T13:53:42Z</time>
      </trkpt>
      <trkpt lat="43.43672" lon="-0.58101">
        <ele>133.76</ele>
        <time>2013-11-23T13:53:43Z</time>
      </trkpt>
      <trkpt lat="43.4367" lon="-0.58097">
        <ele>133.76</ele>
        <time>2013-11-23T13:53:44Z</time>
      </trkpt>
      <trkpt lat="43.43668" lon="-0.58093">
        <ele>133.76</ele>
        <time>2013-11-23T13:53:45Z</time>
      </trkpt>
      <trkpt lat="43.43661" lon="-0.58079">
        <ele>133.28</ele>
        <time>2013-11-23T13:53:48Z</time>
      </trkpt>
      <trkpt lat="43.43607" lon="-0.57976">
        <ele>132.32</ele>
        <time>2013-11-23T13:54:09Z</time>
      </trkpt>
      <trkpt lat="43.43573" lon="-0.57926">
        <ele>132.32</ele>
        <time>2013-11-23T13:54:21Z</time>
      </trkpt>
      <trkpt lat="43.43566" lon="-0.57911">
        <ele>131.84</ele>
        <time>2013-11-23T13:54:24Z</time>
      </trkpt>
      <trkpt lat="43.43562" lon="-0.57907">
        <ele>131.36</ele>
        <time>2013-11-23T13:54:25Z</time>
      </trkpt>
      <trkpt lat="43.43558" lon="-0.57904">
        <ele>131.84</ele>
        <time>2013-11-23T13:54:26Z</time>
      </trkpt>
      <trkpt lat="43.43532" lon="-0.57885">
        <ele>130.88</ele>
        <time>2013-11-23T13:54:33Z</time>
      </trkpt>
      <trkpt lat="43.43504" lon="-0.57863">
        <ele>130.88</ele>
        <time>2013-11-23T13:54:40Z</time>
      </trkpt>
      <trkpt lat="43.435" lon="-0.57859">
        <ele>130.88</ele>
        <time>2013-11-23T13:54:41Z</time>
      </trkpt>
      <trkpt lat="43.43495" lon="-0.57855">
        <ele>131.36</ele>
        <time>2013-11-23T13:54:42Z</time>
      </trkpt>
      <trkpt lat="43.43429" lon="-0.57801">
        <ele>130.4</ele>
        <time>2013-11-23T13:55:00Z</time>
      </trkpt>
      <trkpt lat="43.43378" lon="-0.57729">
        <ele>130.4</ele>
        <time>2013-11-23T13:55:20Z</time>
      </trkpt>
      <trkpt lat="43.43369" lon="-0.57715">
        <ele>130.4</ele>
        <time>2013-11-23T13:55:31Z</time>
      </trkpt>
      <trkpt lat="43.43368" lon="-0.57713">
        <ele>130.4</ele>
        <time>2013-11-23T13:55:32Z</time>
      </trkpt>
      <trkpt lat="43.43367" lon="-0.57711">
        <ele>130.4</ele>
        <time>2013-11-23T13:55:33Z</time>
      </trkpt>
      <trkpt lat="43.43366" lon="-0.57709">
        <ele>130.4</ele>
        <time>2013-11-23T13:55:34Z</time>
      </trkpt>
      <trkpt lat="43.43365" lon="-0.57707">
        <ele>130.4</ele>
        <time>2013-11-23T13:55:35Z</time>
      </trkpt>
      <trkpt lat="43.43364" lon="-0.57705">
        <ele>130.4</ele>
        <time>2013-11-23T13:55:36Z</time>
      </trkpt>
      <trkpt lat="43.43363" lon="-0.57703">
        <ele>130.88</ele>
        <time>2013-11-23T13:55:37Z</time>
      </trkpt>
      <trkpt lat="43.43362" lon="-0.57701">
        <ele>130.88</ele>
        <time>2013-11-23T13:55:38Z</time>
      </trkpt>
      <trkpt lat="43.4336" lon="-0.57699">
        <ele>130.4</ele>
        <time>2013-11-23T13:55:39Z</time>
      </trkpt>
      <trkpt lat="43.43358" lon="-0.57697">
        <ele>130.4</ele>
        <time>2013-11-23T13:55:40Z</time>
      </trkpt>
      <trkpt lat="43.43357" lon="-0.57695">
        <ele>130.88</ele>
        <time>2013-11-23T13:55:41Z</time>
      </trkpt>
      <trkpt lat="43.43336" lon="-0.57635">
        <ele>131.36</ele>
        <time>2013-11-23T13:55:58Z</time>
      </trkpt>
      <trkpt lat="43.43314" lon="-0.5757">
        <ele>132.32</ele>
        <time>2013-11-23T13:56:16Z</time>
      </trkpt>
      <trkpt lat="43.43298" lon="-0.57489">
        <ele>132.32</ele>
        <time>2013-11-23T13:56:37Z</time>
      </trkpt>
      <trkpt lat="43.43291" lon="-0.57414">
        <ele>132.32</ele>
        <time>2013-11-23T13:56:56Z</time>
      </trkpt>
      <trkpt lat="43.43275" lon="-0.57351">
        <ele>133.76</ele>
        <time>2013-11-23T13:57:13Z</time>
      </trkpt>
      <trkpt lat="43.43246" lon="-0.57273">
        <ele>132.8</ele>
        <time>2013-11-23T13:57:31Z</time>
      </trkpt>
      <trkpt lat="43.4323" lon="-0.57198">
        <ele>133.28</ele>
        <time>2013-11-23T13:57:48Z</time>
      </trkpt>
      <trkpt lat="43.43202" lon="-0.57108">
        <ele>135.2</ele>
        <time>2013-11-23T13:58:10Z</time>
      </trkpt>
      <trkpt lat="43.43181" lon="-0.57073">
        <ele>135.2</ele>
        <time>2013-11-23T13:58:24Z</time>
      </trkpt>
      <trkpt lat="43.43159" lon="-0.57017">
        <ele>135.68</ele>
        <time>2013-11-23T13:58:40Z</time>
      </trkpt>
      <trkpt lat="43.43137" lon="-0.56974">
        <ele>136.64</ele>
        <time>2013-11-23T13:58:55Z</time>
      </trkpt>
      <trkpt lat="43.43122" lon="-0.56961">
        <ele>135.68</ele>
        <time>2013-11-23T13:59:06Z</time>
      </trkpt>
      <trkpt lat="43.43116" lon="-0.56954">
        <ele>135.68</ele>
        <time>2013-11-23T13:59:10Z</time>
      </trkpt>
      <trkpt lat="43.43113" lon="-0.56951">
        <ele>136.16</ele>
        <time>2013-11-23T13:59:12Z</time>
      </trkpt>
      <trkpt lat="43.43105" lon="-0.56892">
        <ele>137.61</ele>
        <time>2013-11-23T13:59:29Z</time>
      </trkpt>
      <trkpt lat="43.43107" lon="-0.56886">
        <ele>137.13</ele>
        <time>2013-11-23T13:59:31Z</time>
      </trkpt>
      <trkpt lat="43.43107" lon="-0.56872">
        <ele>137.13</ele>
        <time>2013-11-23T13:59:35Z</time>
      </trkpt>
      <trkpt lat="43.43093" lon="-0.56805">
        <ele>138.57</ele>
        <time>2013-11-23T13:59:54Z</time>
      </trkpt>
      <trkpt lat="43.43077" lon="-0.56767">
        <ele>138.57</ele>
        <time>2013-11-23T14:00:11Z</time>
      </trkpt>
      <trkpt lat="43.43077" lon="-0.56752">
        <ele>138.57</ele>
        <time>2013-11-23T14:00:15Z</time>
      </trkpt>
      <trkpt lat="43.43059" lon="-0.56701">
        <ele>138.57</ele>
        <time>2013-11-23T14:00:31Z</time>
      </trkpt>
      <trkpt lat="43.43031" lon="-0.5664">
        <ele>139.05</ele>
        <time>2013-11-23T14:00:48Z</time>
      </trkpt>
      <trkpt lat="43.43024" lon="-0.56588">
        <ele>140.01</ele>
        <time>2013-11-23T14:01:02Z</time>
      </trkpt>
      <trkpt lat="43.43033" lon="-0.56531">
        <ele>140.97</ele>
        <time>2013-11-23T14:01:17Z</time>
      </trkpt>
      <trkpt lat="43.43049" lon="-0.56502">
        <ele>141.45</ele>
        <time>2013-11-23T14:01:28Z</time>
      </trkpt>
      <trkpt lat="43.43048" lon="-0.56432">
        <ele>141.93</ele>
        <time>2013-11-23T14:01:46Z</time>
      </trkpt>
      <trkpt lat="43.43047" lon="-0.56428">
        <ele>141.45</ele>
        <time>2013-11-23T14:01:47Z</time>
      </trkpt>
      <trkpt lat="43.43041" lon="-0.56413">
        <ele>142.41</ele>
        <time>2013-11-23T14:01:52Z</time>
      </trkpt>
      <trkpt lat="43.43037" lon="-0.56394">
        <ele>142.41</ele>
        <time>2013-11-23T14:01:58Z</time>
      </trkpt>
      <trkpt lat="43.43045" lon="-0.56345">
        <ele>142.41</ele>
        <time>2013-11-23T14:02:14Z</time>
      </trkpt>
      <trkpt lat="43.43047" lon="-0.56288">
        <ele>142.89</ele>
        <time>2013-11-23T14:02:32Z</time>
      </trkpt>
      <trkpt lat="43.43034" lon="-0.56232">
        <ele>143.85</ele>
        <time>2013-11-23T14:02:50Z</time>
      </trkpt>
      <trkpt lat="43.43021" lon="-0.56181">
        <ele>144.34</ele>
        <time>2013-11-23T14:03:06Z</time>
      </trkpt>
      <trkpt lat="43.43" lon="-0.56132">
        <ele>145.78</ele>
        <time>2013-11-23T14:03:21Z</time>
      </trkpt>
      <trkpt lat="43.42986" lon="-0.56077">
        <ele>145.78</ele>
        <time>2013-11-23T14:03:37Z</time>
      </trkpt>
      <trkpt lat="43.42989" lon="-0.5602">
        <ele>146.26</ele>
        <time>2013-11-23T14:03:53Z</time>
      </trkpt>
      <trkpt lat="43.43001" lon="-0.55994">
        <ele>146.26</ele>
        <time>2013-11-23T14:04:07Z</time>
      </trkpt>
      <trkpt lat="43.43005" lon="-0.55993">
        <ele>145.78</ele>
        <time>2013-11-23T14:04:29Z</time>
      </trkpt>
      <trkpt lat="43.43004" lon="-0.55994">
        <ele>145.78</ele>
        <time>2013-11-23T14:04:34Z</time>
      </trkpt>
      <trkpt lat="43.43005" lon="-0.56004">
        <ele>145.78</ele>
        <time>2013-11-23T14:04:39Z</time>
      </trkpt>
      <trkpt lat="43.4302" lon="-0.56049">
        <ele>145.78</ele>
        <time>2013-11-23T14:04:53Z</time>
      </trkpt>
      <trkpt lat="43.43038" lon="-0.56103">
        <ele>145.78</ele>
        <time>2013-11-23T14:05:08Z</time>
      </trkpt>
      <trkpt lat="43.43059" lon="-0.56163">
        <ele>145.3</ele>
        <time>2013-11-23T14:05:24Z</time>
      </trkpt>
      <trkpt lat="43.43061" lon="-0.56239">
        <ele>144.34</ele>
        <time>2013-11-23T14:05:41Z</time>
      </trkpt>
      <trkpt lat="43.43067" lon="-0.5631">
        <ele>143.37</ele>
        <time>2013-11-23T14:05:56Z</time>
      </trkpt>
      <trkpt lat="43.43082" lon="-0.56382">
        <ele>143.37</ele>
        <time>2013-11-23T14:06:13Z</time>
      </trkpt>
      <trkpt lat="43.43091" lon="-0.56447">
        <ele>142.89</ele>
        <time>2013-11-23T14:06:27Z</time>
      </trkpt>
      <trkpt lat="43.43097" lon="-0.56516">
        <ele>142.41</ele>
        <time>2013-11-23T14:06:41Z</time>
      </trkpt>
      <trkpt lat="43.431" lon="-0.56545">
        <ele>141.93</ele>
        <time>2013-11-23T14:06:48Z</time>
      </trkpt>
      <trkpt lat="43.43106" lon="-0.56551">
        <ele>141.45</ele>
        <time>2013-11-23T14:06:52Z</time>
      </trkpt>
      <trkpt lat="43.43113" lon="-0.56549">
        <ele>141.45</ele>
        <time>2013-11-23T14:07:09Z</time>
      </trkpt>
      <trkpt lat="43.43122" lon="-0.56547">
        <ele>140.97</ele>
        <time>2013-11-23T14:07:26Z</time>
      </trkpt>
      <trkpt lat="43.43128" lon="-0.56538">
        <ele>141.45</ele>
        <time>2013-11-23T14:07:43Z</time>
      </trkpt>
      <trkpt lat="43.43141" lon="-0.56519">
        <ele>142.89</ele>
        <time>2013-11-23T14:08:06Z</time>
      </trkpt>
      <trkpt lat="43.4317" lon="-0.56486">
        <ele>144.82</ele>
        <time>2013-11-23T14:08:25Z</time>
      </trkpt>
      <trkpt lat="43.43196" lon="-0.56457">
        <ele>144.82</ele>
        <time>2013-11-23T14:08:40Z</time>
      </trkpt>
      <trkpt lat="43.4322" lon="-0.56428">
        <ele>145.78</ele>
        <time>2013-11-23T14:08:55Z</time>
      </trkpt>
      <trkpt lat="43.43246" lon="-0.56398">
        <ele>146.26</ele>
        <time>2013-11-23T14:09:11Z</time>
      </trkpt>
      <trkpt lat="43.4327" lon="-0.56372">
        <ele>147.7</ele>
        <time>2013-11-23T14:09:27Z</time>
      </trkpt>
      <trkpt lat="43.43296" lon="-0.56341">
        <ele>150.1</ele>
        <time>2013-11-23T14:09:44Z</time>
      </trkpt>
      <trkpt lat="43.43319" lon="-0.56312">
        <ele>152.99</ele>
        <time>2013-11-23T14:10:01Z</time>
      </trkpt>
      <trkpt lat="43.43326" lon="-0.56302">
        <ele>153.95</ele>
        <time>2013-11-23T14:10:07Z</time>
      </trkpt>
      <trkpt lat="43.43341" lon="-0.56287">
        <ele>157.31</ele>
        <time>2013-11-23T14:10:24Z</time>
      </trkpt>
      <trkpt lat="43.43348" lon="-0.56281">
        <ele>159.72</ele>
        <time>2013-11-23T14:10:33Z</time>
      </trkpt>
      <trkpt lat="43.43358" lon="-0.56268">
        <ele>162.6</ele>
        <time>2013-11-23T14:10:54Z</time>
      </trkpt>
      <trkpt lat="43.43366" lon="-0.5626">
        <ele>165.48</ele>
        <time>2013-11-23T14:11:10Z</time>
      </trkpt>
      <trkpt lat="43.43381" lon="-0.5624">
        <ele>168.37</ele>
        <time>2013-11-23T14:11:33Z</time>
      </trkpt>
      <trkpt lat="43.43389" lon="-0.56228">
        <ele>170.29</ele>
        <time>2013-11-23T14:11:47Z</time>
      </trkpt>
      <trkpt lat="43.43398" lon="-0.56215">
        <ele>171.73</ele>
        <time>2013-11-23T14:12:14Z</time>
      </trkpt>
      <trkpt lat="43.43396" lon="-0.56212">
        <ele>171.73</ele>
        <time>2013-11-23T14:12:40Z</time>
      </trkpt>
      <trkpt lat="43.43396" lon="-0.5621">
        <ele>171.25</ele>
        <time>2013-11-23T14:13:20Z</time>
      </trkpt>
      <trkpt lat="43.43406" lon="-0.56201">
        <ele>173.17</ele>
        <time>2013-11-23T14:13:38Z</time>
      </trkpt>
      <trkpt lat="43.43424" lon="-0.56182">
        <ele>177.02</ele>
        <time>2013-11-23T14:13:48Z</time>
      </trkpt>
      <trkpt lat="43.43433" lon="-0.56168">
        <ele>178.94</ele>
        <time>2013-11-23T14:13:55Z</time>
      </trkpt>
      <trkpt lat="43.43441" lon="-0.56158">
        <ele>180.38</ele>
        <time>2013-11-23T14:14:01Z</time>
      </trkpt>
      <trkpt lat="43.43458" lon="-0.5614">
        <ele>183.27</ele>
        <time>2013-11-23T14:14:13Z</time>
      </trkpt>
      <trkpt lat="43.43465" lon="-0.56135">
        <ele>185.19</ele>
        <time>2013-11-23T14:14:18Z</time>
      </trkpt>
      <trkpt lat="43.43489" lon="-0.56123">
        <ele>188.08</ele>
        <time>2013-11-23T14:14:35Z</time>
      </trkpt>
      <trkpt lat="43.43509" lon="-0.56111">
        <ele>190</ele>
        <time>2013-11-23T14:14:52Z</time>
      </trkpt>
      <trkpt lat="43.43508" lon="-0.56109">
        <ele>190</ele>
        <time>2013-11-23T14:15:37Z</time>
      </trkpt>
      <trkpt lat="43.43503" lon="-0.56111">
        <ele>190</ele>
        <time>2013-11-23T14:16:27Z</time>
      </trkpt>
      <trkpt lat="43.43499" lon="-0.56112">
        <ele>190.48</ele>
        <time>2013-11-23T14:17:21Z</time>
      </trkpt>
      <trkpt lat="43.43503" lon="-0.56105">
        <ele>190.96</ele>
        <time>2013-11-23T14:18:10Z</time>
      </trkpt>
      <trkpt lat="43.43503" lon="-0.56113">
        <ele>192.4</ele>
        <time>2013-11-23T14:18:54Z</time>
      </trkpt>
      <trkpt lat="43.43508" lon="-0.56108">
        <ele>192.88</ele>
        <time>2013-11-23T14:19:24Z</time>
      </trkpt>
      <trkpt lat="43.43511" lon="-0.56111">
        <ele>192.88</ele>
        <time>2013-11-23T14:19:49Z</time>
      </trkpt>
      <trkpt lat="43.43512" lon="-0.56111">
        <ele>192.4</ele>
        <time>2013-11-23T14:20:11Z</time>
      </trkpt>
      <trkpt lat="43.43517" lon="-0.56106">
        <ele>192.4</ele>
        <time>2013-11-23T14:20:52Z</time>
      </trkpt>
      <trkpt lat="43.43516" lon="-0.56108">
        <ele>192.4</ele>
        <time>2013-11-23T14:21:28Z</time>
      </trkpt>
      <trkpt lat="43.43516" lon="-0.56105">
        <ele>191.92</ele>
        <time>2013-11-23T14:22:11Z</time>
      </trkpt>
      <trkpt lat="43.43514" lon="-0.56108">
        <ele>192.88</ele>
        <time>2013-11-23T14:22:44Z</time>
      </trkpt>
      <trkpt lat="43.43515" lon="-0.56111">
        <ele>192.88</ele>
        <time>2013-11-23T14:22:54Z</time>
      </trkpt>
      <trkpt lat="43.4352" lon="-0.56125">
        <ele>191.92</ele>
        <time>2013-11-23T14:23:01Z</time>
      </trkpt>
      <trkpt lat="43.43521" lon="-0.56128">
        <ele>191.92</ele>
        <time>2013-11-23T14:23:02Z</time>
      </trkpt>
      <trkpt lat="43.43522" lon="-0.56132">
        <ele>192.4</ele>
        <time>2013-11-23T14:23:03Z</time>
      </trkpt>
      <trkpt lat="43.43524" lon="-0.56136">
        <ele>191.92</ele>
        <time>2013-11-23T14:23:04Z</time>
      </trkpt>
      <trkpt lat="43.43525" lon="-0.5614">
        <ele>191.92</ele>
        <time>2013-11-23T14:23:05Z</time>
      </trkpt>
      <trkpt lat="43.43527" lon="-0.56145">
        <ele>191.44</ele>
        <time>2013-11-23T14:23:06Z</time>
      </trkpt>
      <trkpt lat="43.43553" lon="-0.56218">
        <ele>191.44</ele>
        <time>2013-11-23T14:23:21Z</time>
      </trkpt>
      <trkpt lat="43.43585" lon="-0.56319">
        <ele>188.56</ele>
        <time>2013-11-23T14:23:38Z</time>
      </trkpt>
      <trkpt lat="43.43604" lon="-0.56368">
        <ele>186.63</ele>
        <time>2013-11-23T14:23:45Z</time>
      </trkpt>
      <trkpt lat="43.43606" lon="-0.56376">
        <ele>186.63</ele>
        <time>2013-11-23T14:23:46Z</time>
      </trkpt>
      <trkpt lat="43.43608" lon="-0.56383">
        <ele>187.11</ele>
        <time>2013-11-23T14:23:47Z</time>
      </trkpt>
      <trkpt lat="43.43608" lon="-0.56388">
        <ele>186.63</ele>
        <time>2013-11-23T14:23:48Z</time>
      </trkpt>
      <trkpt lat="43.43609" lon="-0.56393">
        <ele>186.63</ele>
        <time>2013-11-23T14:23:49Z</time>
      </trkpt>
      <trkpt lat="43.43609" lon="-0.56397">
        <ele>186.15</ele>
        <time>2013-11-23T14:23:50Z</time>
      </trkpt>
      <trkpt lat="43.43609" lon="-0.56401">
        <ele>186.15</ele>
        <time>2013-11-23T14:23:51Z</time>
      </trkpt>
      <trkpt lat="43.43609" lon="-0.56417">
        <ele>186.15</ele>
        <time>2013-11-23T14:23:56Z</time>
      </trkpt>
      <trkpt lat="43.43608" lon="-0.56421">
        <ele>186.15</ele>
        <time>2013-11-23T14:23:57Z</time>
      </trkpt>
      <trkpt lat="43.43607" lon="-0.56425">
        <ele>185.67</ele>
        <time>2013-11-23T14:23:58Z</time>
      </trkpt>
      <trkpt lat="43.43606" lon="-0.5643">
        <ele>185.19</ele>
        <time>2013-11-23T14:23:59Z</time>
      </trkpt>
      <trkpt lat="43.43605" lon="-0.56436">
        <ele>184.71</ele>
        <time>2013-11-23T14:24:00Z</time>
      </trkpt>
      <trkpt lat="43.43604" lon="-0.56443">
        <ele>184.23</ele>
        <time>2013-11-23T14:24:01Z</time>
      </trkpt>
      <trkpt lat="43.43603" lon="-0.56482">
        <ele>181.83</ele>
        <time>2013-11-23T14:24:06Z</time>
      </trkpt>
      <trkpt lat="43.43605" lon="-0.5649">
        <ele>181.35</ele>
        <time>2013-11-23T14:24:07Z</time>
      </trkpt>
      <trkpt lat="43.43607" lon="-0.56499">
        <ele>180.87</ele>
        <time>2013-11-23T14:24:08Z</time>
      </trkpt>
      <trkpt lat="43.4361" lon="-0.56509">
        <ele>179.42</ele>
        <time>2013-11-23T14:24:09Z</time>
      </trkpt>
      <trkpt lat="43.43613" lon="-0.56518">
        <ele>179.9</ele>
        <time>2013-11-23T14:24:10Z</time>
      </trkpt>
      <trkpt lat="43.43617" lon="-0.56527">
        <ele>179.9</ele>
        <time>2013-11-23T14:24:11Z</time>
      </trkpt>
      <trkpt lat="43.43628" lon="-0.56554">
        <ele>178.46</ele>
        <time>2013-11-23T14:24:14Z</time>
      </trkpt>
      <trkpt lat="43.43637" lon="-0.56573">
        <ele>177.02</ele>
        <time>2013-11-23T14:24:16Z</time>
      </trkpt>
      <trkpt lat="43.43643" lon="-0.56593">
        <ele>175.58</ele>
        <time>2013-11-23T14:24:18Z</time>
      </trkpt>
      <trkpt lat="43.43645" lon="-0.56603">
        <ele>174.62</ele>
        <time>2013-11-23T14:24:19Z</time>
      </trkpt>
      <trkpt lat="43.43655" lon="-0.56667">
        <ele>173.66</ele>
        <time>2013-11-23T14:24:26Z</time>
      </trkpt>
      <trkpt lat="43.43655" lon="-0.56676">
        <ele>173.66</ele>
        <time>2013-11-23T14:24:27Z</time>
      </trkpt>
      <trkpt lat="43.43654" lon="-0.56684">
        <ele>173.17</ele>
        <time>2013-11-23T14:24:28Z</time>
      </trkpt>
      <trkpt lat="43.43653" lon="-0.56692">
        <ele>173.17</ele>
        <time>2013-11-23T14:24:29Z</time>
      </trkpt>
      <trkpt lat="43.43652" lon="-0.56701">
        <ele>172.21</ele>
        <time>2013-11-23T14:24:30Z</time>
      </trkpt>
      <trkpt lat="43.43645" lon="-0.56741">
        <ele>169.81</ele>
        <time>2013-11-23T14:24:34Z</time>
      </trkpt>
      <trkpt lat="43.43645" lon="-0.56752">
        <ele>168.85</ele>
        <time>2013-11-23T14:24:35Z</time>
      </trkpt>
      <trkpt lat="43.43646" lon="-0.56764">
        <ele>168.37</ele>
        <time>2013-11-23T14:24:36Z</time>
      </trkpt>
      <trkpt lat="43.43648" lon="-0.56775">
        <ele>167.41</ele>
        <time>2013-11-23T14:24:37Z</time>
      </trkpt>
      <trkpt lat="43.43651" lon="-0.56785">
        <ele>165.96</ele>
        <time>2013-11-23T14:24:38Z</time>
      </trkpt>
      <trkpt lat="43.43656" lon="-0.56799">
        <ele>165.48</ele>
        <time>2013-11-23T14:24:40Z</time>
      </trkpt>
      <trkpt lat="43.43659" lon="-0.56804">
        <ele>165</ele>
        <time>2013-11-23T14:24:41Z</time>
      </trkpt>
      <trkpt lat="43.43663" lon="-0.56807">
        <ele>165</ele>
        <time>2013-11-23T14:24:42Z</time>
      </trkpt>
      <trkpt lat="43.43667" lon="-0.56808">
        <ele>164.04</ele>
        <time>2013-11-23T14:24:43Z</time>
      </trkpt>
      <trkpt lat="43.43671" lon="-0.56808">
        <ele>164.52</ele>
        <time>2013-11-23T14:24:44Z</time>
      </trkpt>
      <trkpt lat="43.43682" lon="-0.56809">
        <ele>165.96</ele>
        <time>2013-11-23T14:24:48Z</time>
      </trkpt>
      <trkpt lat="43.43683" lon="-0.56809">
        <ele>165.96</ele>
        <time>2013-11-23T14:24:49Z</time>
      </trkpt>
      <trkpt lat="43.43685" lon="-0.56809">
        <ele>165.96</ele>
        <time>2013-11-23T14:24:50Z</time>
      </trkpt>
      <trkpt lat="43.43687" lon="-0.5681">
        <ele>166.93</ele>
        <time>2013-11-23T14:24:51Z</time>
      </trkpt>
      <trkpt lat="43.43689" lon="-0.56811">
        <ele>167.41</ele>
        <time>2013-11-23T14:24:52Z</time>
      </trkpt>
      <trkpt lat="43.43692" lon="-0.56811">
        <ele>167.41</ele>
        <time>2013-11-23T14:24:53Z</time>
      </trkpt>
      <trkpt lat="43.43713" lon="-0.56821">
        <ele>170.77</ele>
        <time>2013-11-23T14:25:03Z</time>
      </trkpt>
      <trkpt lat="43.4372" lon="-0.56827">
        <ele>170.77</ele>
        <time>2013-11-23T14:25:07Z</time>
      </trkpt>
      <trkpt lat="43.43726" lon="-0.56827">
        <ele>171.73</ele>
        <time>2013-11-23T14:25:11Z</time>
      </trkpt>
      <trkpt lat="43.43747" lon="-0.56834">
        <ele>173.66</ele>
        <time>2013-11-23T14:25:23Z</time>
      </trkpt>
      <trkpt lat="43.43767" lon="-0.56836">
        <ele>176.54</ele>
        <time>2013-11-23T14:25:37Z</time>
      </trkpt>
      <trkpt lat="43.43774" lon="-0.56838">
        <ele>177.5</ele>
        <time>2013-11-23T14:25:41Z</time>
      </trkpt>
      <trkpt lat="43.43781" lon="-0.56844">
        <ele>177.98</ele>
        <time>2013-11-23T14:25:46Z</time>
      </trkpt>
      <trkpt lat="43.43793" lon="-0.56867">
        <ele>180.87</ele>
        <time>2013-11-23T14:26:02Z</time>
      </trkpt>
      <trkpt lat="43.43806" lon="-0.5689">
        <ele>181.83</ele>
        <time>2013-11-23T14:26:19Z</time>
      </trkpt>
      <trkpt lat="43.43807" lon="-0.56892">
        <ele>181.83</ele>
        <time>2013-11-23T14:26:20Z</time>
      </trkpt>
      <trkpt lat="43.43812" lon="-0.56899">
        <ele>182.31</ele>
        <time>2013-11-23T14:26:24Z</time>
      </trkpt>
      <trkpt lat="43.43818" lon="-0.56904">
        <ele>183.27</ele>
        <time>2013-11-23T14:26:28Z</time>
      </trkpt>
      <trkpt lat="43.43824" lon="-0.56913">
        <ele>183.27</ele>
        <time>2013-11-23T14:26:31Z</time>
      </trkpt>
      <trkpt lat="43.43831" lon="-0.56916">
        <ele>184.23</ele>
        <time>2013-11-23T14:26:36Z</time>
      </trkpt>
      <trkpt lat="43.43837" lon="-0.56919">
        <ele>184.23</ele>
        <time>2013-11-23T14:26:40Z</time>
      </trkpt>
      <trkpt lat="43.43845" lon="-0.5692">
        <ele>184.71</ele>
        <time>2013-11-23T14:26:45Z</time>
      </trkpt>
      <trkpt lat="43.43856" lon="-0.56924">
        <ele>185.67</ele>
        <time>2013-11-23T14:26:51Z</time>
      </trkpt>
      <trkpt lat="43.43867" lon="-0.56932">
        <ele>186.15</ele>
        <time>2013-11-23T14:26:57Z</time>
      </trkpt>
      <trkpt lat="43.43873" lon="-0.56935">
        <ele>186.63</ele>
        <time>2013-11-23T14:27:01Z</time>
      </trkpt>
      <trkpt lat="43.43883" lon="-0.5694">
        <ele>187.11</ele>
        <time>2013-11-23T14:27:07Z</time>
      </trkpt>
      <trkpt lat="43.4389" lon="-0.5694">
        <ele>187.11</ele>
        <time>2013-11-23T14:27:11Z</time>
      </trkpt>
      <trkpt lat="43.43894" lon="-0.5694">
        <ele>187.11</ele>
        <time>2013-11-23T14:27:14Z</time>
      </trkpt>
      <trkpt lat="43.43904" lon="-0.56934">
        <ele>188.08</ele>
        <time>2013-11-23T14:27:20Z</time>
      </trkpt>
      <trkpt lat="43.43907" lon="-0.56917">
        <ele>190.96</ele>
        <time>2013-11-23T14:27:31Z</time>
      </trkpt>
      <trkpt lat="43.43914" lon="-0.5691">
        <ele>192.88</ele>
        <time>2013-11-23T14:27:38Z</time>
      </trkpt>
      <trkpt lat="43.43917" lon="-0.56903">
        <ele>193.36</ele>
        <time>2013-11-23T14:27:41Z</time>
      </trkpt>
      <trkpt lat="43.43926" lon="-0.56894">
        <ele>195.28</ele>
        <time>2013-11-23T14:27:47Z</time>
      </trkpt>
      <trkpt lat="43.43936" lon="-0.56877">
        <ele>198.65</ele>
        <time>2013-11-23T14:28:03Z</time>
      </trkpt>
      <trkpt lat="43.43951" lon="-0.56859">
        <ele>201.53</ele>
        <time>2013-11-23T14:28:22Z</time>
      </trkpt>
      <trkpt lat="43.4396" lon="-0.56847">
        <ele>204.9</ele>
        <time>2013-11-23T14:28:36Z</time>
      </trkpt>
      <trkpt lat="43.43957" lon="-0.56836">
        <ele>205.86</ele>
        <time>2013-11-23T14:28:49Z</time>
      </trkpt>
      <trkpt lat="43.43947" lon="-0.56809">
        <ele>209.22</ele>
        <time>2013-11-23T14:29:07Z</time>
      </trkpt>
      <trkpt lat="43.43947" lon="-0.56807">
        <ele>209.7</ele>
        <time>2013-11-23T14:29:08Z</time>
      </trkpt>
      <trkpt lat="43.43934" lon="-0.56782">
        <ele>213.07</ele>
        <time>2013-11-23T14:29:26Z</time>
      </trkpt>
      <trkpt lat="43.4393" lon="-0.56772">
        <ele>214.03</ele>
        <time>2013-11-23T14:29:32Z</time>
      </trkpt>
      <trkpt lat="43.43928" lon="-0.56763">
        <ele>214.51</ele>
        <time>2013-11-23T14:29:37Z</time>
      </trkpt>
      <trkpt lat="43.4392" lon="-0.56735">
        <ele>217.4</ele>
        <time>2013-11-23T14:29:55Z</time>
      </trkpt>
      <trkpt lat="43.43915" lon="-0.56722">
        <ele>218.36</ele>
        <time>2013-11-23T14:30:02Z</time>
      </trkpt>
      <trkpt lat="43.43902" lon="-0.56688">
        <ele>220.76</ele>
        <time>2013-11-23T14:30:23Z</time>
      </trkpt>
      <trkpt lat="43.43891" lon="-0.56655">
        <ele>222.68</ele>
        <time>2013-11-23T14:30:43Z</time>
      </trkpt>
      <trkpt lat="43.43887" lon="-0.56645">
        <ele>224.12</ele>
        <time>2013-11-23T14:30:49Z</time>
      </trkpt>
      <trkpt lat="43.43883" lon="-0.56632">
        <ele>224.61</ele>
        <time>2013-11-23T14:30:56Z</time>
      </trkpt>
      <trkpt lat="43.43875" lon="-0.56612">
        <ele>226.53</ele>
        <time>2013-11-23T14:31:08Z</time>
      </trkpt>
      <trkpt lat="43.43863" lon="-0.56574">
        <ele>227.49</ele>
        <time>2013-11-23T14:31:26Z</time>
      </trkpt>
      <trkpt lat="43.43845" lon="-0.56507">
        <ele>228.45</ele>
        <time>2013-11-23T14:31:44Z</time>
      </trkpt>
      <trkpt lat="43.43822" lon="-0.56455">
        <ele>228.45</ele>
        <time>2013-11-23T14:31:56Z</time>
      </trkpt>
      <trkpt lat="43.43822" lon="-0.56453">
        <ele>227.49</ele>
        <time>2013-11-23T14:31:58Z</time>
      </trkpt>
      <trkpt lat="43.43822" lon="-0.5645">
        <ele>227.97</ele>
        <time>2013-11-23T14:32:25Z</time>
      </trkpt>
      <trkpt lat="43.43822" lon="-0.56449">
        <ele>227.97</ele>
        <time>2013-11-23T14:33:19Z</time>
      </trkpt>
      <trkpt lat="43.43821" lon="-0.56447">
        <ele>228.45</ele>
        <time>2013-11-23T14:33:42Z</time>
      </trkpt>
      <trkpt lat="43.43823" lon="-0.56452">
        <ele>228.93</ele>
        <time>2013-11-23T14:34:06Z</time>
      </trkpt>
      <trkpt lat="43.43824" lon="-0.56453">
        <ele>228.93</ele>
        <time>2013-11-23T14:34:41Z</time>
      </trkpt>
      <trkpt lat="43.43822" lon="-0.56449">
        <ele>228.93</ele>
        <time>2013-11-23T14:35:14Z</time>
      </trkpt>
      <trkpt lat="43.43825" lon="-0.56455">
        <ele>229.41</ele>
        <time>2013-11-23T14:35:36Z</time>
      </trkpt>
      <trkpt lat="43.43826" lon="-0.56455">
        <ele>229.41</ele>
        <time>2013-11-23T14:35:37Z</time>
      </trkpt>
      <trkpt lat="43.43827" lon="-0.56455">
        <ele>229.41</ele>
        <time>2013-11-23T14:35:38Z</time>
      </trkpt>
      <trkpt lat="43.43829" lon="-0.56453">
        <ele>229.41</ele>
        <time>2013-11-23T14:35:40Z</time>
      </trkpt>
      <trkpt lat="43.4383" lon="-0.56452">
        <ele>229.89</ele>
        <time>2013-11-23T14:35:41Z</time>
      </trkpt>
      <trkpt lat="43.43831" lon="-0.56452">
        <ele>229.89</ele>
        <time>2013-11-23T14:35:42Z</time>
      </trkpt>
      <trkpt lat="43.43848" lon="-0.56435">
        <ele>227.49</ele>
        <time>2013-11-23T14:35:54Z</time>
      </trkpt>
      <trkpt lat="43.4385" lon="-0.56431">
        <ele>227.49</ele>
        <time>2013-11-23T14:36:19Z</time>
      </trkpt>
      <trkpt lat="43.4385" lon="-0.56431">
        <ele>227.97</ele>
        <time>2013-11-23T14:36:29Z</time>
      </trkpt>
      <trkpt lat="43.43835" lon="-0.56449">
        <ele>229.89</ele>
        <time>2013-11-23T14:36:51Z</time>
      </trkpt>
      <trkpt lat="43.43825" lon="-0.56451">
        <ele>229.41</ele>
        <time>2013-11-23T14:37:08Z</time>
      </trkpt>
      <trkpt lat="43.43823" lon="-0.56449">
        <ele>228.93</ele>
        <time>2013-11-23T14:37:20Z</time>
      </trkpt>
      <trkpt lat="43.43819" lon="-0.5644">
        <ele>229.41</ele>
        <time>2013-11-23T14:37:24Z</time>
      </trkpt>
      <trkpt lat="43.43819" lon="-0.56438">
        <ele>228.93</ele>
        <time>2013-11-23T14:37:25Z</time>
      </trkpt>
      <trkpt lat="43.43818" lon="-0.56435">
        <ele>229.41</ele>
        <time>2013-11-23T14:37:26Z</time>
      </trkpt>
      <trkpt lat="43.43798" lon="-0.56384">
        <ele>227.49</ele>
        <time>2013-11-23T14:37:42Z</time>
      </trkpt>
      <trkpt lat="43.43787" lon="-0.56368">
        <ele>225.57</ele>
        <time>2013-11-23T14:37:46Z</time>
      </trkpt>
      <trkpt lat="43.43775" lon="-0.56335">
        <ele>225.57</ele>
        <time>2013-11-23T14:37:52Z</time>
      </trkpt>
      <trkpt lat="43.43772" lon="-0.56328">
        <ele>225.09</ele>
        <time>2013-11-23T14:37:53Z</time>
      </trkpt>
      <trkpt lat="43.43769" lon="-0.56321">
        <ele>225.09</ele>
        <time>2013-11-23T14:37:54Z</time>
      </trkpt>
      <trkpt lat="43.43764" lon="-0.56315">
        <ele>224.61</ele>
        <time>2013-11-23T14:37:55Z</time>
      </trkpt>
      <trkpt lat="43.4376" lon="-0.56309">
        <ele>224.12</ele>
        <time>2013-11-23T14:37:56Z</time>
      </trkpt>
      <trkpt lat="43.43757" lon="-0.56303">
        <ele>223.64</ele>
        <time>2013-11-23T14:37:57Z</time>
      </trkpt>
      <trkpt lat="43.43746" lon="-0.56286">
        <ele>223.64</ele>
        <time>2013-11-23T14:38:00Z</time>
      </trkpt>
      <trkpt lat="43.43739" lon="-0.56276">
        <ele>223.16</ele>
        <time>2013-11-23T14:38:02Z</time>
      </trkpt>
      <trkpt lat="43.43735" lon="-0.56271">
        <ele>223.16</ele>
        <time>2013-11-23T14:38:03Z</time>
      </trkpt>
      <trkpt lat="43.43717" lon="-0.56237">
        <ele>221.24</ele>
        <time>2013-11-23T14:38:09Z</time>
      </trkpt>
      <trkpt lat="43.43714" lon="-0.56231">
        <ele>220.76</ele>
        <time>2013-11-23T14:38:10Z</time>
      </trkpt>
      <trkpt lat="43.43684" lon="-0.56173">
        <ele>218.36</ele>
        <time>2013-11-23T14:38:18Z</time>
      </trkpt>
      <trkpt lat="43.4368" lon="-0.56167">
        <ele>218.36</ele>
        <time>2013-11-23T14:38:19Z</time>
      </trkpt>
      <trkpt lat="43.43677" lon="-0.5616">
        <ele>217.88</ele>
        <time>2013-11-23T14:38:20Z</time>
      </trkpt>
      <trkpt lat="43.43652" lon="-0.56122">
        <ele>217.88</ele>
        <time>2013-11-23T14:38:26Z</time>
      </trkpt>
      <trkpt lat="43.43648" lon="-0.56118">
        <ele>217.88</ele>
        <time>2013-11-23T14:38:27Z</time>
      </trkpt>
      <trkpt lat="43.43642" lon="-0.56113">
        <ele>217.88</ele>
        <time>2013-11-23T14:38:28Z</time>
      </trkpt>
      <trkpt lat="43.4362" lon="-0.56086">
        <ele>218.36</ele>
        <time>2013-11-23T14:38:34Z</time>
      </trkpt>
      <trkpt lat="43.43617" lon="-0.56081">
        <ele>219.32</ele>
        <time>2013-11-23T14:38:35Z</time>
      </trkpt>
      <trkpt lat="43.43606" lon="-0.56062">
        <ele>219.32</ele>
        <time>2013-11-23T14:38:39Z</time>
      </trkpt>
      <trkpt lat="43.43577" lon="-0.56006">
        <ele>222.2</ele>
        <time>2013-11-23T14:38:56Z</time>
      </trkpt>
      <trkpt lat="43.43558" lon="-0.55962">
        <ele>223.64</ele>
        <time>2013-11-23T14:39:14Z</time>
      </trkpt>
      <trkpt lat="43.43547" lon="-0.55916">
        <ele>226.53</ele>
        <time>2013-11-23T14:39:30Z</time>
      </trkpt>
      <trkpt lat="43.43547" lon="-0.55913">
        <ele>226.53</ele>
        <time>2013-11-23T14:39:31Z</time>
      </trkpt>
      <trkpt lat="43.43548" lon="-0.5591">
        <ele>227.01</ele>
        <time>2013-11-23T14:39:32Z</time>
      </trkpt>
      <trkpt lat="43.43548" lon="-0.55907">
        <ele>226.53</ele>
        <time>2013-11-23T14:39:33Z</time>
      </trkpt>
      <trkpt lat="43.43548" lon="-0.55903">
        <ele>226.53</ele>
        <time>2013-11-23T14:39:34Z</time>
      </trkpt>
      <trkpt lat="43.43549" lon="-0.559">
        <ele>227.01</ele>
        <time>2013-11-23T14:39:35Z</time>
      </trkpt>
      <trkpt lat="43.43549" lon="-0.55897">
        <ele>227.01</ele>
        <time>2013-11-23T14:39:36Z</time>
      </trkpt>
      <trkpt lat="43.43559" lon="-0.55869">
        <ele>225.57</ele>
        <time>2013-11-23T14:39:46Z</time>
      </trkpt>
      <trkpt lat="43.4356" lon="-0.55863">
        <ele>225.09</ele>
        <time>2013-11-23T14:39:47Z</time>
      </trkpt>
      <trkpt lat="43.43562" lon="-0.55848">
        <ele>224.12</ele>
        <time>2013-11-23T14:39:49Z</time>
      </trkpt>
      <trkpt lat="43.43564" lon="-0.55808">
        <ele>220.76</ele>
        <time>2013-11-23T14:39:54Z</time>
      </trkpt>
      <trkpt lat="43.43564" lon="-0.558">
        <ele>220.28</ele>
        <time>2013-11-23T14:39:55Z</time>
      </trkpt>
      <trkpt lat="43.43562" lon="-0.55767">
        <ele>217.4</ele>
        <time>2013-11-23T14:39:59Z</time>
      </trkpt>
      <trkpt lat="43.43562" lon="-0.55761">
        <ele>217.4</ele>
        <time>2013-11-23T14:40:00Z</time>
      </trkpt>
      <trkpt lat="43.43564" lon="-0.55756">
        <ele>216.91</ele>
        <time>2013-11-23T14:40:01Z</time>
      </trkpt>
      <trkpt lat="43.43567" lon="-0.55753">
        <ele>216.43</ele>
        <time>2013-11-23T14:40:02Z</time>
      </trkpt>
      <trkpt lat="43.4357" lon="-0.55754">
        <ele>215.95</ele>
        <time>2013-11-23T14:40:03Z</time>
      </trkpt>
      <trkpt lat="43.43573" lon="-0.55755">
        <ele>216.43</ele>
        <time>2013-11-23T14:40:04Z</time>
      </trkpt>
      <trkpt lat="43.43575" lon="-0.55757">
        <ele>216.43</ele>
        <time>2013-11-23T14:40:05Z</time>
      </trkpt>
      <trkpt lat="43.43578" lon="-0.55761">
        <ele>216.91</ele>
        <time>2013-11-23T14:40:06Z</time>
      </trkpt>
      <trkpt lat="43.4358" lon="-0.55764">
        <ele>216.91</ele>
        <time>2013-11-23T14:40:07Z</time>
      </trkpt>
      <trkpt lat="43.43582" lon="-0.55766">
        <ele>216.91</ele>
        <time>2013-11-23T14:40:08Z</time>
      </trkpt>
      <trkpt lat="43.43585" lon="-0.55768">
        <ele>217.4</ele>
        <time>2013-11-23T14:40:09Z</time>
      </trkpt>
      <trkpt lat="43.43612" lon="-0.55789">
        <ele>220.76</ele>
        <time>2013-11-23T14:40:22Z</time>
      </trkpt>
      <trkpt lat="43.43642" lon="-0.55821">
        <ele>223.64</ele>
        <time>2013-11-23T14:40:39Z</time>
      </trkpt>
      <trkpt lat="43.43658" lon="-0.55838">
        <ele>226.53</ele>
        <time>2013-11-23T14:40:50Z</time>
      </trkpt>
      <trkpt lat="43.43694" lon="-0.55869">
        <ele>228.93</ele>
        <time>2013-11-23T14:41:12Z</time>
      </trkpt>
      <trkpt lat="43.43728" lon="-0.55852">
        <ele>231.81</ele>
        <time>2013-11-23T14:41:33Z</time>
      </trkpt>
      <trkpt lat="43.43729" lon="-0.55851">
        <ele>231.81</ele>
        <time>2013-11-23T14:41:34Z</time>
      </trkpt>
      <trkpt lat="43.43736" lon="-0.55845">
        <ele>233.26</ele>
        <time>2013-11-23T14:41:39Z</time>
      </trkpt>
      <trkpt lat="43.43737" lon="-0.55844">
        <ele>233.74</ele>
        <time>2013-11-23T14:41:40Z</time>
      </trkpt>
      <trkpt lat="43.43738" lon="-0.55843">
        <ele>233.74</ele>
        <time>2013-11-23T14:41:41Z</time>
      </trkpt>
      <trkpt lat="43.4375" lon="-0.55831">
        <ele>235.18</ele>
        <time>2013-11-23T14:41:52Z</time>
      </trkpt>
      <trkpt lat="43.43752" lon="-0.5583">
        <ele>235.18</ele>
        <time>2013-11-23T14:41:53Z</time>
      </trkpt>
      <trkpt lat="43.43754" lon="-0.55829">
        <ele>235.66</ele>
        <time>2013-11-23T14:41:54Z</time>
      </trkpt>
      <trkpt lat="43.43777" lon="-0.55802">
        <ele>239.02</ele>
        <time>2013-11-23T14:42:14Z</time>
      </trkpt>
      <trkpt lat="43.43786" lon="-0.55792">
        <ele>239.51</ele>
        <time>2013-11-23T14:42:22Z</time>
      </trkpt>
      <trkpt lat="43.43797" lon="-0.55775">
        <ele>240.47</ele>
        <time>2013-11-23T14:42:32Z</time>
      </trkpt>
      <trkpt lat="43.43805" lon="-0.55748">
        <ele>241.43</ele>
        <time>2013-11-23T14:42:45Z</time>
      </trkpt>
      <trkpt lat="43.43805" lon="-0.55746">
        <ele>241.43</ele>
        <time>2013-11-23T14:42:46Z</time>
      </trkpt>
      <trkpt lat="43.43805" lon="-0.55743">
        <ele>241.43</ele>
        <time>2013-11-23T14:42:47Z</time>
      </trkpt>
      <trkpt lat="43.43805" lon="-0.55742">
        <ele>241.43</ele>
        <time>2013-11-23T14:42:48Z</time>
      </trkpt>
      <trkpt lat="43.43805" lon="-0.5574">
        <ele>241.91</ele>
        <time>2013-11-23T14:42:49Z</time>
      </trkpt>
      <trkpt lat="43.43805" lon="-0.55738">
        <ele>241.91</ele>
        <time>2013-11-23T14:42:50Z</time>
      </trkpt>
      <trkpt lat="43.43805" lon="-0.55736">
        <ele>241.91</ele>
        <time>2013-11-23T14:42:51Z</time>
      </trkpt>
      <trkpt lat="43.43809" lon="-0.55696">
        <ele>242.87</ele>
        <time>2013-11-23T14:43:10Z</time>
      </trkpt>
      <trkpt lat="43.4381" lon="-0.55688">
        <ele>243.35</ele>
        <time>2013-11-23T14:43:14Z</time>
      </trkpt>
      <trkpt lat="43.43811" lon="-0.55686">
        <ele>243.35</ele>
        <time>2013-11-23T14:43:15Z</time>
      </trkpt>
      <trkpt lat="43.43811" lon="-0.55683">
        <ele>242.87</ele>
        <time>2013-11-23T14:43:16Z</time>
      </trkpt>
      <trkpt lat="43.43811" lon="-0.55681">
        <ele>243.35</ele>
        <time>2013-11-23T14:43:17Z</time>
      </trkpt>
      <trkpt lat="43.43812" lon="-0.55678">
        <ele>243.35</ele>
        <time>2013-11-23T14:43:18Z</time>
      </trkpt>
      <trkpt lat="43.43812" lon="-0.55676">
        <ele>243.35</ele>
        <time>2013-11-23T14:43:19Z</time>
      </trkpt>
      <trkpt lat="43.43812" lon="-0.55673">
        <ele>243.35</ele>
        <time>2013-11-23T14:43:20Z</time>
      </trkpt>
      <trkpt lat="43.43813" lon="-0.55664">
        <ele>243.35</ele>
        <time>2013-11-23T14:43:25Z</time>
      </trkpt>
      <trkpt lat="43.43813" lon="-0.55662">
        <ele>242.87</ele>
        <time>2013-11-23T14:43:26Z</time>
      </trkpt>
      <trkpt lat="43.43826" lon="-0.55581">
        <ele>239.99</ele>
        <time>2013-11-23T14:43:47Z</time>
      </trkpt>
      <trkpt lat="43.4386" lon="-0.55507">
        <ele>239.02</ele>
        <time>2013-11-23T14:44:08Z</time>
      </trkpt>
      <trkpt lat="43.43869" lon="-0.55483">
        <ele>236.62</ele>
        <time>2013-11-23T14:44:13Z</time>
      </trkpt>
      <trkpt lat="43.43869" lon="-0.55477">
        <ele>235.66</ele>
        <time>2013-11-23T14:44:14Z</time>
      </trkpt>
      <trkpt lat="43.43868" lon="-0.55461">
        <ele>234.7</ele>
        <time>2013-11-23T14:44:16Z</time>
      </trkpt>
      <trkpt lat="43.43867" lon="-0.55453">
        <ele>234.22</ele>
        <time>2013-11-23T14:44:17Z</time>
      </trkpt>
      <trkpt lat="43.43865" lon="-0.55445">
        <ele>233.74</ele>
        <time>2013-11-23T14:44:18Z</time>
      </trkpt>
      <trkpt lat="43.43863" lon="-0.55436">
        <ele>233.74</ele>
        <time>2013-11-23T14:44:19Z</time>
      </trkpt>
      <trkpt lat="43.43861" lon="-0.55427">
        <ele>232.78</ele>
        <time>2013-11-23T14:44:20Z</time>
      </trkpt>
      <trkpt lat="43.4386" lon="-0.55419">
        <ele>231.81</ele>
        <time>2013-11-23T14:44:21Z</time>
      </trkpt>
      <trkpt lat="43.43859" lon="-0.55411">
        <ele>231.81</ele>
        <time>2013-11-23T14:44:22Z</time>
      </trkpt>
      <trkpt lat="43.43859" lon="-0.55404">
        <ele>231.33</ele>
        <time>2013-11-23T14:44:23Z</time>
      </trkpt>
      <trkpt lat="43.4386" lon="-0.55398">
        <ele>231.33</ele>
        <time>2013-11-23T14:44:24Z</time>
      </trkpt>
      <trkpt lat="43.43862" lon="-0.55393">
        <ele>231.81</ele>
        <time>2013-11-23T14:44:25Z</time>
      </trkpt>
      <trkpt lat="43.43863" lon="-0.5539">
        <ele>231.81</ele>
        <time>2013-11-23T14:44:26Z</time>
      </trkpt>
      <trkpt lat="43.43863" lon="-0.55387">
        <ele>231.33</ele>
        <time>2013-11-23T14:44:27Z</time>
      </trkpt>
      <trkpt lat="43.43864" lon="-0.55384">
        <ele>231.81</ele>
        <time>2013-11-23T14:44:28Z</time>
      </trkpt>
      <trkpt lat="43.43864" lon="-0.55381">
        <ele>232.3</ele>
        <time>2013-11-23T14:44:29Z</time>
      </trkpt>
      <trkpt lat="43.43864" lon="-0.55379">
        <ele>232.78</ele>
        <time>2013-11-23T14:44:30Z</time>
      </trkpt>
      <trkpt lat="43.43864" lon="-0.55377">
        <ele>233.26</ele>
        <time>2013-11-23T14:44:31Z</time>
      </trkpt>
      <trkpt lat="43.43865" lon="-0.55375">
        <ele>233.74</ele>
        <time>2013-11-23T14:44:49Z</time>
      </trkpt>
      <trkpt lat="43.43865" lon="-0.55373">
        <ele>232.78</ele>
        <time>2013-11-23T14:45:14Z</time>
      </trkpt>
      <trkpt lat="43.43866" lon="-0.55373">
        <ele>232.78</ele>
        <time>2013-11-23T14:45:15Z</time>
      </trkpt>
      <trkpt lat="43.43869" lon="-0.55373">
        <ele>232.3</ele>
        <time>2013-11-23T14:45:17Z</time>
      </trkpt>
      <trkpt lat="43.43871" lon="-0.55374">
        <ele>232.3</ele>
        <time>2013-11-23T14:45:18Z</time>
      </trkpt>
      <trkpt lat="43.43873" lon="-0.55376">
        <ele>231.81</ele>
        <time>2013-11-23T14:45:19Z</time>
      </trkpt>
      <trkpt lat="43.43875" lon="-0.55377">
        <ele>231.81</ele>
        <time>2013-11-23T14:45:20Z</time>
      </trkpt>
      <trkpt lat="43.43877" lon="-0.55379">
        <ele>231.33</ele>
        <time>2013-11-23T14:45:21Z</time>
      </trkpt>
      <trkpt lat="43.43878" lon="-0.55382">
        <ele>231.33</ele>
        <time>2013-11-23T14:45:22Z</time>
      </trkpt>
      <trkpt lat="43.4388" lon="-0.55383">
        <ele>231.33</ele>
        <time>2013-11-23T14:45:23Z</time>
      </trkpt>
      <trkpt lat="43.43896" lon="-0.55394">
        <ele>229.89</ele>
        <time>2013-11-23T14:45:28Z</time>
      </trkpt>
      <trkpt lat="43.43913" lon="-0.55406">
        <ele>228.93</ele>
        <time>2013-11-23T14:45:32Z</time>
      </trkpt>
      <trkpt lat="43.43928" lon="-0.55414">
        <ele>227.49</ele>
        <time>2013-11-23T14:45:35Z</time>
      </trkpt>
      <trkpt lat="43.43989" lon="-0.55441">
        <ele>224.61</ele>
        <time>2013-11-23T14:45:46Z</time>
      </trkpt>
      <trkpt lat="43.43995" lon="-0.55444">
        <ele>224.12</ele>
        <time>2013-11-23T14:45:47Z</time>
      </trkpt>
      <trkpt lat="43.44016" lon="-0.55457">
        <ele>223.16</ele>
        <time>2013-11-23T14:45:51Z</time>
      </trkpt>
      <trkpt lat="43.4402" lon="-0.55461">
        <ele>224.12</ele>
        <time>2013-11-23T14:45:52Z</time>
      </trkpt>
      <trkpt lat="43.44024" lon="-0.55465">
        <ele>223.16</ele>
        <time>2013-11-23T14:45:53Z</time>
      </trkpt>
      <trkpt lat="43.44028" lon="-0.5547">
        <ele>223.64</ele>
        <time>2013-11-23T14:45:54Z</time>
      </trkpt>
      <trkpt lat="43.44031" lon="-0.55474">
        <ele>223.16</ele>
        <time>2013-11-23T14:45:55Z</time>
      </trkpt>
      <trkpt lat="43.44035" lon="-0.55479">
        <ele>223.64</ele>
        <time>2013-11-23T14:45:56Z</time>
      </trkpt>
      <trkpt lat="43.44047" lon="-0.55503">
        <ele>223.16</ele>
        <time>2013-11-23T14:46:01Z</time>
      </trkpt>
      <trkpt lat="43.44086" lon="-0.5559">
        <ele>223.64</ele>
        <time>2013-11-23T14:46:21Z</time>
      </trkpt>
      <trkpt lat="43.44115" lon="-0.55654">
        <ele>225.57</ele>
        <time>2013-11-23T14:46:38Z</time>
      </trkpt>
      <trkpt lat="43.44115" lon="-0.55655">
        <ele>225.09</ele>
        <time>2013-11-23T14:46:39Z</time>
      </trkpt>
      <trkpt lat="43.44117" lon="-0.55653">
        <ele>225.57</ele>
        <time>2013-11-23T14:46:43Z</time>
      </trkpt>
      <trkpt lat="43.44117" lon="-0.55652">
        <ele>225.09</ele>
        <time>2013-11-23T14:46:44Z</time>
      </trkpt>
      <trkpt lat="43.44114" lon="-0.5565">
        <ele>225.57</ele>
        <time>2013-11-23T14:46:58Z</time>
      </trkpt>
      <trkpt lat="43.44115" lon="-0.5565">
        <ele>225.09</ele>
        <time>2013-11-23T14:47:28Z</time>
      </trkpt>
      <trkpt lat="43.44115" lon="-0.5565">
        <ele>225.57</ele>
        <time>2013-11-23T14:47:59Z</time>
      </trkpt>
      <trkpt lat="43.44115" lon="-0.5565">
        <ele>225.09</ele>
        <time>2013-11-23T14:48:37Z</time>
      </trkpt>
      <trkpt lat="43.44115" lon="-0.55649">
        <ele>224.61</ele>
        <time>2013-11-23T14:49:12Z</time>
      </trkpt>
      <trkpt lat="43.44114" lon="-0.55651">
        <ele>224.12</ele>
        <time>2013-11-23T14:49:49Z</time>
      </trkpt>
      <trkpt lat="43.44113" lon="-0.55651">
        <ele>223.64</ele>
        <time>2013-11-23T14:49:56Z</time>
      </trkpt>
      <trkpt lat="43.44113" lon="-0.55653">
        <ele>225.09</ele>
        <time>2013-11-23T14:49:57Z</time>
      </trkpt>
      <trkpt lat="43.44113" lon="-0.55655">
        <ele>224.12</ele>
        <time>2013-11-23T14:49:58Z</time>
      </trkpt>
      <trkpt lat="43.44115" lon="-0.55657">
        <ele>225.09</ele>
        <time>2013-11-23T14:49:59Z</time>
      </trkpt>
      <trkpt lat="43.44116" lon="-0.55659">
        <ele>225.09</ele>
        <time>2013-11-23T14:50:00Z</time>
      </trkpt>
      <trkpt lat="43.44117" lon="-0.55661">
        <ele>225.09</ele>
        <time>2013-11-23T14:50:01Z</time>
      </trkpt>
      <trkpt lat="43.44118" lon="-0.55663">
        <ele>225.09</ele>
        <time>2013-11-23T14:50:02Z</time>
      </trkpt>
      <trkpt lat="43.44119" lon="-0.55665">
        <ele>224.61</ele>
        <time>2013-11-23T14:50:03Z</time>
      </trkpt>
      <trkpt lat="43.44133" lon="-0.55702">
        <ele>226.05</ele>
        <time>2013-11-23T14:50:26Z</time>
      </trkpt>
      <trkpt lat="43.44133" lon="-0.55707">
        <ele>225.09</ele>
        <time>2013-11-23T14:50:48Z</time>
      </trkpt>
      <trkpt lat="43.44132" lon="-0.5571">
        <ele>225.57</ele>
        <time>2013-11-23T14:51:20Z</time>
      </trkpt>
      <trkpt lat="43.44143" lon="-0.55736">
        <ele>225.09</ele>
        <time>2013-11-23T14:51:41Z</time>
      </trkpt>
      <trkpt lat="43.44144" lon="-0.55741">
        <ele>225.57</ele>
        <time>2013-11-23T14:51:42Z</time>
      </trkpt>
      <trkpt lat="43.44146" lon="-0.55746">
        <ele>226.05</ele>
        <time>2013-11-23T14:51:43Z</time>
      </trkpt>
      <trkpt lat="43.44149" lon="-0.55761">
        <ele>225.09</ele>
        <time>2013-11-23T14:51:46Z</time>
      </trkpt>
      <trkpt lat="43.4415" lon="-0.55767">
        <ele>225.57</ele>
        <time>2013-11-23T14:51:47Z</time>
      </trkpt>
      <trkpt lat="43.44158" lon="-0.55797">
        <ele>224.61</ele>
        <time>2013-11-23T14:51:53Z</time>
      </trkpt>
      <trkpt lat="43.44194" lon="-0.55899">
        <ele>224.12</ele>
        <time>2013-11-23T14:52:10Z</time>
      </trkpt>
      <trkpt lat="43.44228" lon="-0.56025">
        <ele>224.12</ele>
        <time>2013-11-23T14:52:30Z</time>
      </trkpt>
      <trkpt lat="43.44236" lon="-0.5605">
        <ele>224.61</ele>
        <time>2013-11-23T14:52:34Z</time>
      </trkpt>
      <trkpt lat="43.44239" lon="-0.56057">
        <ele>225.09</ele>
        <time>2013-11-23T14:52:35Z</time>
      </trkpt>
      <trkpt lat="43.44267" lon="-0.56137">
        <ele>225.57</ele>
        <time>2013-11-23T14:52:50Z</time>
      </trkpt>
      <trkpt lat="43.44269" lon="-0.56142">
        <ele>225.57</ele>
        <time>2013-11-23T14:52:51Z</time>
      </trkpt>
      <trkpt lat="43.44271" lon="-0.56147">
        <ele>225.57</ele>
        <time>2013-11-23T14:52:52Z</time>
      </trkpt>
      <trkpt lat="43.44273" lon="-0.56151">
        <ele>225.57</ele>
        <time>2013-11-23T14:52:53Z</time>
      </trkpt>
      <trkpt lat="43.44274" lon="-0.56155">
        <ele>226.05</ele>
        <time>2013-11-23T14:52:54Z</time>
      </trkpt>
      <trkpt lat="43.44275" lon="-0.56159">
        <ele>225.57</ele>
        <time>2013-11-23T14:52:55Z</time>
      </trkpt>
      <trkpt lat="43.44276" lon="-0.56162">
        <ele>226.05</ele>
        <time>2013-11-23T14:52:56Z</time>
      </trkpt>
      <trkpt lat="43.44277" lon="-0.56165">
        <ele>226.05</ele>
        <time>2013-11-23T14:52:57Z</time>
      </trkpt>
      <trkpt lat="43.44278" lon="-0.56168">
        <ele>226.05</ele>
        <time>2013-11-23T14:52:58Z</time>
      </trkpt>
      <trkpt lat="43.44279" lon="-0.56171">
        <ele>225.57</ele>
        <time>2013-11-23T14:52:59Z</time>
      </trkpt>
      <trkpt lat="43.44282" lon="-0.56179">
        <ele>225.57</ele>
        <time>2013-11-23T14:53:15Z</time>
      </trkpt>
      <trkpt lat="43.44283" lon="-0.5618">
        <ele>225.57</ele>
        <time>2013-11-23T14:53:16Z</time>
      </trkpt>
      <trkpt lat="43.44286" lon="-0.5618">
        <ele>226.05</ele>
        <time>2013-11-23T14:53:18Z</time>
      </trkpt>
      <trkpt lat="43.44284" lon="-0.56174">
        <ele>226.05</ele>
        <time>2013-11-23T14:53:23Z</time>
      </trkpt>
      <trkpt lat="43.44283" lon="-0.56172">
        <ele>226.05</ele>
        <time>2013-11-23T14:53:32Z</time>
      </trkpt>
      <trkpt lat="43.4428" lon="-0.56167">
        <ele>225.57</ele>
        <time>2013-11-23T14:53:36Z</time>
      </trkpt>
      <trkpt lat="43.44279" lon="-0.56165">
        <ele>226.05</ele>
        <time>2013-11-23T14:53:37Z</time>
      </trkpt>
      <trkpt lat="43.44277" lon="-0.56161">
        <ele>225.57</ele>
        <time>2013-11-23T14:53:38Z</time>
      </trkpt>
      <trkpt lat="43.44253" lon="-0.56098">
        <ele>225.57</ele>
        <time>2013-11-23T14:53:54Z</time>
      </trkpt>
      <trkpt lat="43.44219" lon="-0.55998">
        <ele>224.12</ele>
        <time>2013-11-23T14:54:12Z</time>
      </trkpt>
      <trkpt lat="43.44181" lon="-0.5586">
        <ele>223.64</ele>
        <time>2013-11-23T14:54:35Z</time>
      </trkpt>
      <trkpt lat="43.44168" lon="-0.55823">
        <ele>224.12</ele>
        <time>2013-11-23T14:54:42Z</time>
      </trkpt>
      <trkpt lat="43.44164" lon="-0.55812">
        <ele>224.12</ele>
        <time>2013-11-23T14:54:44Z</time>
      </trkpt>
      <trkpt lat="43.4414" lon="-0.55726">
        <ele>226.05</ele>
        <time>2013-11-23T14:55:00Z</time>
      </trkpt>
      <trkpt lat="43.44139" lon="-0.55721">
        <ele>225.57</ele>
        <time>2013-11-23T14:55:01Z</time>
      </trkpt>
      <trkpt lat="43.44137" lon="-0.55715">
        <ele>225.57</ele>
        <time>2013-11-23T14:55:02Z</time>
      </trkpt>
      <trkpt lat="43.44101" lon="-0.55625">
        <ele>223.64</ele>
        <time>2013-11-23T14:55:18Z</time>
      </trkpt>
      <trkpt lat="43.44098" lon="-0.55619">
        <ele>223.16</ele>
        <time>2013-11-23T14:55:19Z</time>
      </trkpt>
      <trkpt lat="43.44039" lon="-0.5549">
        <ele>221.72</ele>
        <time>2013-11-23T14:55:41Z</time>
      </trkpt>
      <trkpt lat="43.44022" lon="-0.55465">
        <ele>221.24</ele>
        <time>2013-11-23T14:55:46Z</time>
      </trkpt>
      <trkpt lat="43.44018" lon="-0.55462">
        <ele>221.72</ele>
        <time>2013-11-23T14:55:47Z</time>
      </trkpt>
      <trkpt lat="43.44014" lon="-0.55458">
        <ele>221.72</ele>
        <time>2013-11-23T14:55:48Z</time>
      </trkpt>
      <trkpt lat="43.44002" lon="-0.5545">
        <ele>222.2</ele>
        <time>2013-11-23T14:55:51Z</time>
      </trkpt>
      <trkpt lat="43.43957" lon="-0.55431">
        <ele>223.64</ele>
        <time>2013-11-23T14:56:02Z</time>
      </trkpt>
      <trkpt lat="43.43909" lon="-0.55405">
        <ele>227.01</ele>
        <time>2013-11-23T14:56:17Z</time>
      </trkpt>
      <trkpt lat="43.43868" lon="-0.55376">
        <ele>229.89</ele>
        <time>2013-11-23T14:56:36Z</time>
      </trkpt>
      <trkpt lat="43.43849" lon="-0.55361">
        <ele>233.26</ele>
        <time>2013-11-23T14:56:47Z</time>
      </trkpt>
      <trkpt lat="43.43842" lon="-0.55357">
        <ele>233.74</ele>
        <time>2013-11-23T14:56:51Z</time>
      </trkpt>
      <trkpt lat="43.43841" lon="-0.55356">
        <ele>234.22</ele>
        <time>2013-11-23T14:56:52Z</time>
      </trkpt>
      <trkpt lat="43.43839" lon="-0.55355">
        <ele>234.7</ele>
        <time>2013-11-23T14:56:53Z</time>
      </trkpt>
      <trkpt lat="43.43837" lon="-0.55354">
        <ele>234.7</ele>
        <time>2013-11-23T14:56:54Z</time>
      </trkpt>
      <trkpt lat="43.43836" lon="-0.55353">
        <ele>234.7</ele>
        <time>2013-11-23T14:56:55Z</time>
      </trkpt>
      <trkpt lat="43.43834" lon="-0.55352">
        <ele>235.18</ele>
        <time>2013-11-23T14:56:56Z</time>
      </trkpt>
      <trkpt lat="43.43833" lon="-0.5535">
        <ele>235.18</ele>
        <time>2013-11-23T14:56:57Z</time>
      </trkpt>
      <trkpt lat="43.43831" lon="-0.55349">
        <ele>236.14</ele>
        <time>2013-11-23T14:56:58Z</time>
      </trkpt>
      <trkpt lat="43.4383" lon="-0.55348">
        <ele>236.14</ele>
        <time>2013-11-23T14:56:59Z</time>
      </trkpt>
      <trkpt lat="43.43829" lon="-0.55346">
        <ele>236.62</ele>
        <time>2013-11-23T14:57:00Z</time>
      </trkpt>
      <trkpt lat="43.43828" lon="-0.55344">
        <ele>236.62</ele>
        <time>2013-11-23T14:57:01Z</time>
      </trkpt>
      <trkpt lat="43.43826" lon="-0.55343">
        <ele>236.62</ele>
        <time>2013-11-23T14:57:02Z</time>
      </trkpt>
      <trkpt lat="43.43824" lon="-0.55343">
        <ele>237.58</ele>
        <time>2013-11-23T14:57:03Z</time>
      </trkpt>
      <trkpt lat="43.43823" lon="-0.55342">
        <ele>237.1</ele>
        <time>2013-11-23T14:57:04Z</time>
      </trkpt>
      <trkpt lat="43.43821" lon="-0.55341">
        <ele>237.58</ele>
        <time>2013-11-23T14:57:05Z</time>
      </trkpt>
      <trkpt lat="43.4382" lon="-0.55339">
        <ele>238.06</ele>
        <time>2013-11-23T14:57:06Z</time>
      </trkpt>
      <trkpt lat="43.43812" lon="-0.55334">
        <ele>239.99</ele>
        <time>2013-11-23T14:57:11Z</time>
      </trkpt>
      <trkpt lat="43.43806" lon="-0.55332">
        <ele>239.99</ele>
        <time>2013-11-23T14:57:15Z</time>
      </trkpt>
      <trkpt lat="43.43789" lon="-0.55329">
        <ele>243.35</ele>
        <time>2013-11-23T14:57:27Z</time>
      </trkpt>
      <trkpt lat="43.43763" lon="-0.55332">
        <ele>246.23</ele>
        <time>2013-11-23T14:57:45Z</time>
      </trkpt>
      <trkpt lat="43.43733" lon="-0.55335">
        <ele>248.64</ele>
        <time>2013-11-23T14:58:03Z</time>
      </trkpt>
      <trkpt lat="43.43693" lon="-0.55342">
        <ele>250.56</ele>
        <time>2013-11-23T14:58:22Z</time>
      </trkpt>
      <trkpt lat="43.43643" lon="-0.55343">
        <ele>252</ele>
        <time>2013-11-23T14:58:42Z</time>
      </trkpt>
      <trkpt lat="43.43614" lon="-0.55339">
        <ele>251.04</ele>
        <time>2013-11-23T14:58:51Z</time>
      </trkpt>
      <trkpt lat="43.4361" lon="-0.55337">
        <ele>251.52</ele>
        <time>2013-11-23T14:58:52Z</time>
      </trkpt>
      <trkpt lat="43.43608" lon="-0.55334">
        <ele>250.56</ele>
        <time>2013-11-23T14:58:53Z</time>
      </trkpt>
      <trkpt lat="43.43606" lon="-0.5533">
        <ele>250.08</ele>
        <time>2013-11-23T14:58:54Z</time>
      </trkpt>
      <trkpt lat="43.43605" lon="-0.55326">
        <ele>250.08</ele>
        <time>2013-11-23T14:58:55Z</time>
      </trkpt>
      <trkpt lat="43.43609" lon="-0.55278">
        <ele>250.08</ele>
        <time>2013-11-23T14:59:12Z</time>
      </trkpt>
      <trkpt lat="43.43603" lon="-0.55219">
        <ele>249.6</ele>
        <time>2013-11-23T14:59:30Z</time>
      </trkpt>
      <trkpt lat="43.43597" lon="-0.55205">
        <ele>249.12</ele>
        <time>2013-11-23T14:59:33Z</time>
      </trkpt>
      <trkpt lat="43.43596" lon="-0.552">
        <ele>248.16</ele>
        <time>2013-11-23T14:59:34Z</time>
      </trkpt>
      <trkpt lat="43.43596" lon="-0.55193">
        <ele>248.64</ele>
        <time>2013-11-23T14:59:35Z</time>
      </trkpt>
      <trkpt lat="43.43597" lon="-0.55186">
        <ele>248.16</ele>
        <time>2013-11-23T14:59:36Z</time>
      </trkpt>
      <trkpt lat="43.43599" lon="-0.55179">
        <ele>247.68</ele>
        <time>2013-11-23T14:59:37Z</time>
      </trkpt>
      <trkpt lat="43.43601" lon="-0.55171">
        <ele>247.68</ele>
        <time>2013-11-23T14:59:38Z</time>
      </trkpt>
      <trkpt lat="43.43604" lon="-0.55164">
        <ele>246.72</ele>
        <time>2013-11-23T14:59:39Z</time>
      </trkpt>
      <trkpt lat="43.43626" lon="-0.55112">
        <ele>243.35</ele>
        <time>2013-11-23T14:59:45Z</time>
      </trkpt>
      <trkpt lat="43.43644" lon="-0.55068">
        <ele>240.47</ele>
        <time>2013-11-23T14:59:50Z</time>
      </trkpt>
      <trkpt lat="43.43649" lon="-0.55061">
        <ele>239.51</ele>
        <time>2013-11-23T14:59:51Z</time>
      </trkpt>
      <trkpt lat="43.43673" lon="-0.55024">
        <ele>235.66</ele>
        <time>2013-11-23T14:59:55Z</time>
      </trkpt>
      <trkpt lat="43.43704" lon="-0.54977">
        <ele>231.33</ele>
        <time>2013-11-23T14:59:59Z</time>
      </trkpt>
      <trkpt lat="43.43719" lon="-0.54953">
        <ele>230.37</ele>
        <time>2013-11-23T15:00:01Z</time>
      </trkpt>
      <trkpt lat="43.43741" lon="-0.54924">
        <ele>230.37</ele>
        <time>2013-11-23T15:00:04Z</time>
      </trkpt>
      <trkpt lat="43.43749" lon="-0.54918">
        <ele>231.33</ele>
        <time>2013-11-23T15:00:05Z</time>
      </trkpt>
      <trkpt lat="43.43757" lon="-0.54913">
        <ele>231.33</ele>
        <time>2013-11-23T15:00:06Z</time>
      </trkpt>
      <trkpt lat="43.43797" lon="-0.54879">
        <ele>227.97</ele>
        <time>2013-11-23T15:00:11Z</time>
      </trkpt>
      <trkpt lat="43.43822" lon="-0.54853">
        <ele>225.09</ele>
        <time>2013-11-23T15:00:14Z</time>
      </trkpt>
      <trkpt lat="43.43862" lon="-0.54807">
        <ele>221.72</ele>
        <time>2013-11-23T15:00:19Z</time>
      </trkpt>
      <trkpt lat="43.4389" lon="-0.54781">
        <ele>218.84</ele>
        <time>2013-11-23T15:00:22Z</time>
      </trkpt>
      <trkpt lat="43.43912" lon="-0.54765">
        <ele>215.47</ele>
        <time>2013-11-23T15:00:24Z</time>
      </trkpt>
      <trkpt lat="43.43933" lon="-0.5475">
        <ele>212.59</ele>
        <time>2013-11-23T15:00:26Z</time>
      </trkpt>
      <trkpt lat="43.43965" lon="-0.54733">
        <ele>208.26</ele>
        <time>2013-11-23T15:00:29Z</time>
      </trkpt>
      <trkpt lat="43.43986" lon="-0.54724">
        <ele>204.42</ele>
        <time>2013-11-23T15:00:31Z</time>
      </trkpt>
      <trkpt lat="43.44005" lon="-0.54716">
        <ele>201.05</ele>
        <time>2013-11-23T15:00:33Z</time>
      </trkpt>
      <trkpt lat="43.44014" lon="-0.54715">
        <ele>200.09</ele>
        <time>2013-11-23T15:00:34Z</time>
      </trkpt>
      <trkpt lat="43.44023" lon="-0.54716">
        <ele>199.13</ele>
        <time>2013-11-23T15:00:35Z</time>
      </trkpt>
      <trkpt lat="43.44033" lon="-0.54718">
        <ele>198.17</ele>
        <time>2013-11-23T15:00:36Z</time>
      </trkpt>
      <trkpt lat="43.44054" lon="-0.54724">
        <ele>195.28</ele>
        <time>2013-11-23T15:00:38Z</time>
      </trkpt>
      <trkpt lat="43.44073" lon="-0.54733">
        <ele>191.92</ele>
        <time>2013-11-23T15:00:40Z</time>
      </trkpt>
      <trkpt lat="43.4408" lon="-0.54736">
        <ele>190</ele>
        <time>2013-11-23T15:00:41Z</time>
      </trkpt>
      <trkpt lat="43.44087" lon="-0.54737">
        <ele>188.56</ele>
        <time>2013-11-23T15:00:42Z</time>
      </trkpt>
      <trkpt lat="43.44094" lon="-0.54735">
        <ele>187.59</ele>
        <time>2013-11-23T15:00:43Z</time>
      </trkpt>
      <trkpt lat="43.441" lon="-0.54729">
        <ele>186.15</ele>
        <time>2013-11-23T15:00:44Z</time>
      </trkpt>
      <trkpt lat="43.44104" lon="-0.5472">
        <ele>184.71</ele>
        <time>2013-11-23T15:00:45Z</time>
      </trkpt>
      <trkpt lat="43.44108" lon="-0.54709">
        <ele>183.75</ele>
        <time>2013-11-23T15:00:46Z</time>
      </trkpt>
      <trkpt lat="43.44111" lon="-0.54696">
        <ele>182.31</ele>
        <time>2013-11-23T15:00:47Z</time>
      </trkpt>
      <trkpt lat="43.44114" lon="-0.54683">
        <ele>180.87</ele>
        <time>2013-11-23T15:00:48Z</time>
      </trkpt>
      <trkpt lat="43.44124" lon="-0.54622">
        <ele>178.94</ele>
        <time>2013-11-23T15:00:53Z</time>
      </trkpt>
      <trkpt lat="43.44128" lon="-0.54612">
        <ele>179.9</ele>
        <time>2013-11-23T15:00:54Z</time>
      </trkpt>
      <trkpt lat="43.44133" lon="-0.54603">
        <ele>179.42</ele>
        <time>2013-11-23T15:00:55Z</time>
      </trkpt>
      <trkpt lat="43.44138" lon="-0.54595">
        <ele>179.42</ele>
        <time>2013-11-23T15:00:56Z</time>
      </trkpt>
      <trkpt lat="43.44143" lon="-0.54587">
        <ele>178.94</ele>
        <time>2013-11-23T15:00:57Z</time>
      </trkpt>
      <trkpt lat="43.44149" lon="-0.54581">
        <ele>179.42</ele>
        <time>2013-11-23T15:00:58Z</time>
      </trkpt>
      <trkpt lat="43.44213" lon="-0.5454">
        <ele>179.42</ele>
        <time>2013-11-23T15:01:08Z</time>
      </trkpt>
      <trkpt lat="43.4422" lon="-0.54539">
        <ele>178.94</ele>
        <time>2013-11-23T15:01:09Z</time>
      </trkpt>
      <trkpt lat="43.44245" lon="-0.54538">
        <ele>179.42</ele>
        <time>2013-11-23T15:01:13Z</time>
      </trkpt>
      <trkpt lat="43.44284" lon="-0.54544">
        <ele>179.9</ele>
        <time>2013-11-23T15:01:20Z</time>
      </trkpt>
      <trkpt lat="43.44313" lon="-0.54557">
        <ele>178.94</ele>
        <time>2013-11-23T15:01:28Z</time>
      </trkpt>
      <trkpt lat="43.44315" lon="-0.54555">
        <ele>178.94</ele>
        <time>2013-11-23T15:01:29Z</time>
      </trkpt>
      <trkpt lat="43.44317" lon="-0.54552">
        <ele>178.94</ele>
        <time>2013-11-23T15:01:30Z</time>
      </trkpt>
      <trkpt lat="43.44317" lon="-0.54548">
        <ele>178.94</ele>
        <time>2013-11-23T15:01:31Z</time>
      </trkpt>
      <trkpt lat="43.44316" lon="-0.54545">
        <ele>178.94</ele>
        <time>2013-11-23T15:01:32Z</time>
      </trkpt>
      <trkpt lat="43.44315" lon="-0.54541">
        <ele>178.46</ele>
        <time>2013-11-23T15:01:33Z</time>
      </trkpt>
      <trkpt lat="43.44315" lon="-0.54538">
        <ele>178.94</ele>
        <time>2013-11-23T15:01:34Z</time>
      </trkpt>
      <trkpt lat="43.44293" lon="-0.54476">
        <ele>179.42</ele>
        <time>2013-11-23T15:01:53Z</time>
      </trkpt>
      <trkpt lat="43.44293" lon="-0.54472">
        <ele>179.9</ele>
        <time>2013-11-23T15:01:55Z</time>
      </trkpt>
      <trkpt lat="43.44294" lon="-0.5447">
        <ele>179.9</ele>
        <time>2013-11-23T15:01:56Z</time>
      </trkpt>
      <trkpt lat="43.44295" lon="-0.54468">
        <ele>179.9</ele>
        <time>2013-11-23T15:01:57Z</time>
      </trkpt>
      <trkpt lat="43.44298" lon="-0.54468">
        <ele>180.38</ele>
        <time>2013-11-23T15:02:00Z</time>
      </trkpt>
      <trkpt lat="43.44299" lon="-0.54467">
        <ele>179.9</ele>
        <time>2013-11-23T15:02:01Z</time>
      </trkpt>
      <trkpt lat="43.443" lon="-0.54466">
        <ele>179.9</ele>
        <time>2013-11-23T15:02:02Z</time>
      </trkpt>
      <trkpt lat="43.44312" lon="-0.54454">
        <ele>183.27</ele>
        <time>2013-11-23T15:02:16Z</time>
      </trkpt>
      <trkpt lat="43.44326" lon="-0.54442">
        <ele>187.11</ele>
        <time>2013-11-23T15:02:31Z</time>
      </trkpt>
      <trkpt lat="43.44337" lon="-0.54435">
        <ele>189.04</ele>
        <time>2013-11-23T15:02:46Z</time>
      </trkpt>
      <trkpt lat="43.4435" lon="-0.54424">
        <ele>192.4</ele>
        <time>2013-11-23T15:03:05Z</time>
      </trkpt>
      <trkpt lat="43.44364" lon="-0.5441">
        <ele>195.28</ele>
        <time>2013-11-23T15:03:26Z</time>
      </trkpt>
      <trkpt lat="43.44371" lon="-0.54395">
        <ele>197.21</ele>
        <time>2013-11-23T15:03:45Z</time>
      </trkpt>
      <trkpt lat="43.44379" lon="-0.54376">
        <ele>200.57</ele>
        <time>2013-11-23T15:04:03Z</time>
      </trkpt>
      <trkpt lat="43.44383" lon="-0.54367">
        <ele>201.53</ele>
        <time>2013-11-23T15:04:26Z</time>
      </trkpt>
      <trkpt lat="43.44387" lon="-0.54353">
        <ele>203.94</ele>
        <time>2013-11-23T15:04:39Z</time>
      </trkpt>
      <trkpt lat="43.44387" lon="-0.54349">
        <ele>203.94</ele>
        <time>2013-11-23T15:04:42Z</time>
      </trkpt>
      <trkpt lat="43.44395" lon="-0.5433">
        <ele>206.82</ele>
        <time>2013-11-23T15:05:01Z</time>
      </trkpt>
      <trkpt lat="43.44399" lon="-0.54311">
        <ele>209.7</ele>
        <time>2013-11-23T15:05:20Z</time>
      </trkpt>
      <trkpt lat="43.44403" lon="-0.54289">
        <ele>213.07</ele>
        <time>2013-11-23T15:05:40Z</time>
      </trkpt>
      <trkpt lat="43.44408" lon="-0.54267">
        <ele>215.95</ele>
        <time>2013-11-23T15:05:59Z</time>
      </trkpt>
      <trkpt lat="43.44413" lon="-0.54255">
        <ele>217.4</ele>
        <time>2013-11-23T15:06:28Z</time>
      </trkpt>
      <trkpt lat="43.44424" lon="-0.54237">
        <ele>220.28</ele>
        <time>2013-11-23T15:06:48Z</time>
      </trkpt>
      <trkpt lat="43.44432" lon="-0.54219">
        <ele>222.68</ele>
        <time>2013-11-23T15:07:07Z</time>
      </trkpt>
      <trkpt lat="43.4444" lon="-0.54203">
        <ele>226.05</ele>
        <time>2013-11-23T15:07:24Z</time>
      </trkpt>
      <trkpt lat="43.44455" lon="-0.54188">
        <ele>228.93</ele>
        <time>2013-11-23T15:07:45Z</time>
      </trkpt>
      <trkpt lat="43.44464" lon="-0.5417">
        <ele>231.33</ele>
        <time>2013-11-23T15:08:06Z</time>
      </trkpt>
      <trkpt lat="43.44462" lon="-0.54165">
        <ele>231.81</ele>
        <time>2013-11-23T15:08:25Z</time>
      </trkpt>
      <trkpt lat="43.44462" lon="-0.54164">
        <ele>231.81</ele>
        <time>2013-11-23T15:08:29Z</time>
      </trkpt>
      <trkpt lat="43.44461" lon="-0.54161">
        <ele>232.3</ele>
        <time>2013-11-23T15:08:31Z</time>
      </trkpt>
      <trkpt lat="43.44461" lon="-0.5416">
        <ele>232.3</ele>
        <time>2013-11-23T15:08:32Z</time>
      </trkpt>
      <trkpt lat="43.44459" lon="-0.54156">
        <ele>232.78</ele>
        <time>2013-11-23T15:08:34Z</time>
      </trkpt>
      <trkpt lat="43.44458" lon="-0.54154">
        <ele>232.78</ele>
        <time>2013-11-23T15:08:35Z</time>
      </trkpt>
      <trkpt lat="43.44458" lon="-0.54152">
        <ele>232.78</ele>
        <time>2013-11-23T15:08:36Z</time>
      </trkpt>
      <trkpt lat="43.44457" lon="-0.5415">
        <ele>232.78</ele>
        <time>2013-11-23T15:08:37Z</time>
      </trkpt>
      <trkpt lat="43.44457" lon="-0.54148">
        <ele>233.26</ele>
        <time>2013-11-23T15:08:38Z</time>
      </trkpt>
      <trkpt lat="43.44452" lon="-0.54115">
        <ele>236.62</ele>
        <time>2013-11-23T15:08:51Z</time>
      </trkpt>
      <trkpt lat="43.44444" lon="-0.54067">
        <ele>238.06</ele>
        <time>2013-11-23T15:09:12Z</time>
      </trkpt>
      <trkpt lat="43.44443" lon="-0.54062">
        <ele>238.06</ele>
        <time>2013-11-23T15:09:15Z</time>
      </trkpt>
      <trkpt lat="43.44442" lon="-0.5406">
        <ele>238.54</ele>
        <time>2013-11-23T15:09:16Z</time>
      </trkpt>
      <trkpt lat="43.44442" lon="-0.54048">
        <ele>238.54</ele>
        <time>2013-11-23T15:09:37Z</time>
      </trkpt>
      <trkpt lat="43.44442" lon="-0.54047">
        <ele>238.54</ele>
        <time>2013-11-23T15:09:39Z</time>
      </trkpt>
      <trkpt lat="43.44442" lon="-0.54046">
        <ele>238.06</ele>
        <time>2013-11-23T15:09:40Z</time>
      </trkpt>
      <trkpt lat="43.44441" lon="-0.54044">
        <ele>238.06</ele>
        <time>2013-11-23T15:09:41Z</time>
      </trkpt>
      <trkpt lat="43.44441" lon="-0.54042">
        <ele>238.54</ele>
        <time>2013-11-23T15:09:42Z</time>
      </trkpt>
      <trkpt lat="43.44441" lon="-0.5404">
        <ele>238.06</ele>
        <time>2013-11-23T15:09:43Z</time>
      </trkpt>
      <trkpt lat="43.44435" lon="-0.54003">
        <ele>239.02</ele>
        <time>2013-11-23T15:09:59Z</time>
      </trkpt>
      <trkpt lat="43.44429" lon="-0.53944">
        <ele>239.02</ele>
        <time>2013-11-23T15:10:19Z</time>
      </trkpt>
      <trkpt lat="43.44418" lon="-0.53887">
        <ele>238.54</ele>
        <time>2013-11-23T15:10:40Z</time>
      </trkpt>
      <trkpt lat="43.44407" lon="-0.53835">
        <ele>237.58</ele>
        <time>2013-11-23T15:11:02Z</time>
      </trkpt>
      <trkpt lat="43.44405" lon="-0.53823">
        <ele>237.1</ele>
        <time>2013-11-23T15:11:07Z</time>
      </trkpt>
      <trkpt lat="43.44401" lon="-0.53803">
        <ele>237.1</ele>
        <time>2013-11-23T15:11:26Z</time>
      </trkpt>
      <trkpt lat="43.44401" lon="-0.53802">
        <ele>236.62</ele>
        <time>2013-11-23T15:12:03Z</time>
      </trkpt>
      <trkpt lat="43.44402" lon="-0.538">
        <ele>236.62</ele>
        <time>2013-11-23T15:12:04Z</time>
      </trkpt>
      <trkpt lat="43.44401" lon="-0.53797">
        <ele>236.14</ele>
        <time>2013-11-23T15:12:05Z</time>
      </trkpt>
      <trkpt lat="43.444" lon="-0.53794">
        <ele>236.14</ele>
        <time>2013-11-23T15:12:06Z</time>
      </trkpt>
      <trkpt lat="43.44399" lon="-0.53791">
        <ele>235.66</ele>
        <time>2013-11-23T15:12:07Z</time>
      </trkpt>
      <trkpt lat="43.44396" lon="-0.53775">
        <ele>234.7</ele>
        <time>2013-11-23T15:12:23Z</time>
      </trkpt>
      <trkpt lat="43.44394" lon="-0.53756">
        <ele>233.74</ele>
        <time>2013-11-23T15:12:57Z</time>
      </trkpt>
      <trkpt lat="43.44385" lon="-0.53712">
        <ele>230.37</ele>
        <time>2013-11-23T15:13:05Z</time>
      </trkpt>
      <trkpt lat="43.44372" lon="-0.53652">
        <ele>227.01</ele>
        <time>2013-11-23T15:13:12Z</time>
      </trkpt>
      <trkpt lat="43.44353" lon="-0.53545">
        <ele>224.12</ele>
        <time>2013-11-23T15:13:27Z</time>
      </trkpt>
      <trkpt lat="43.44348" lon="-0.53519">
        <ele>224.61</ele>
        <time>2013-11-23T15:13:31Z</time>
      </trkpt>
      <trkpt lat="43.44344" lon="-0.53506">
        <ele>224.61</ele>
        <time>2013-11-23T15:13:33Z</time>
      </trkpt>
      <trkpt lat="43.44342" lon="-0.53498">
        <ele>224.61</ele>
        <time>2013-11-23T15:13:34Z</time>
      </trkpt>
      <trkpt lat="43.44341" lon="-0.53492">
        <ele>224.61</ele>
        <time>2013-11-23T15:13:35Z</time>
      </trkpt>
      <trkpt lat="43.4434" lon="-0.53487">
        <ele>224.12</ele>
        <time>2013-11-23T15:13:36Z</time>
      </trkpt>
      <trkpt lat="43.4434" lon="-0.53484">
        <ele>224.12</ele>
        <time>2013-11-23T15:13:37Z</time>
      </trkpt>
      <trkpt lat="43.4434" lon="-0.5348">
        <ele>224.12</ele>
        <time>2013-11-23T15:13:39Z</time>
      </trkpt>
      <trkpt lat="43.44312" lon="-0.53408">
        <ele>225.57</ele>
        <time>2013-11-23T15:13:58Z</time>
      </trkpt>
      <trkpt lat="43.44276" lon="-0.53322">
        <ele>226.53</ele>
        <time>2013-11-23T15:14:18Z</time>
      </trkpt>
      <trkpt lat="43.44274" lon="-0.53318">
        <ele>226.53</ele>
        <time>2013-11-23T15:14:19Z</time>
      </trkpt>
      <trkpt lat="43.44257" lon="-0.53292">
        <ele>226.53</ele>
        <time>2013-11-23T15:14:25Z</time>
      </trkpt>
      <trkpt lat="43.44254" lon="-0.53288">
        <ele>227.01</ele>
        <time>2013-11-23T15:14:26Z</time>
      </trkpt>
      <trkpt lat="43.44252" lon="-0.53283">
        <ele>227.01</ele>
        <time>2013-11-23T15:14:27Z</time>
      </trkpt>
      <trkpt lat="43.44249" lon="-0.53279">
        <ele>226.53</ele>
        <time>2013-11-23T15:14:28Z</time>
      </trkpt>
      <trkpt lat="43.44246" lon="-0.53275">
        <ele>226.53</ele>
        <time>2013-11-23T15:14:29Z</time>
      </trkpt>
      <trkpt lat="43.4424" lon="-0.53267">
        <ele>227.01</ele>
        <time>2013-11-23T15:14:31Z</time>
      </trkpt>
      <trkpt lat="43.44237" lon="-0.53262">
        <ele>226.53</ele>
        <time>2013-11-23T15:14:32Z</time>
      </trkpt>
      <trkpt lat="43.44231" lon="-0.53254">
        <ele>227.01</ele>
        <time>2013-11-23T15:14:34Z</time>
      </trkpt>
      <trkpt lat="43.44171" lon="-0.53169">
        <ele>227.49</ele>
        <time>2013-11-23T15:14:55Z</time>
      </trkpt>
      <trkpt lat="43.44123" lon="-0.53108">
        <ele>229.41</ele>
        <time>2013-11-23T15:15:14Z</time>
      </trkpt>
      <trkpt lat="43.44098" lon="-0.53067">
        <ele>232.78</ele>
        <time>2013-11-23T15:15:27Z</time>
      </trkpt>
      <trkpt lat="43.44091" lon="-0.5305">
        <ele>233.26</ele>
        <time>2013-11-23T15:15:33Z</time>
      </trkpt>
      <trkpt lat="43.44089" lon="-0.53048">
        <ele>233.74</ele>
        <time>2013-11-23T15:15:34Z</time>
      </trkpt>
      <trkpt lat="43.44088" lon="-0.53046">
        <ele>234.22</ele>
        <time>2013-11-23T15:15:35Z</time>
      </trkpt>
      <trkpt lat="43.44087" lon="-0.53043">
        <ele>233.74</ele>
        <time>2013-11-23T15:15:36Z</time>
      </trkpt>
      <trkpt lat="43.44086" lon="-0.53041">
        <ele>233.74</ele>
        <time>2013-11-23T15:15:37Z</time>
      </trkpt>
      <trkpt lat="43.44085" lon="-0.53039">
        <ele>233.74</ele>
        <time>2013-11-23T15:15:38Z</time>
      </trkpt>
      <trkpt lat="43.44084" lon="-0.53037">
        <ele>234.22</ele>
        <time>2013-11-23T15:15:39Z</time>
      </trkpt>
      <trkpt lat="43.44083" lon="-0.53034">
        <ele>234.22</ele>
        <time>2013-11-23T15:15:40Z</time>
      </trkpt>
      <trkpt lat="43.44082" lon="-0.53032">
        <ele>234.22</ele>
        <time>2013-11-23T15:15:41Z</time>
      </trkpt>
      <trkpt lat="43.4408" lon="-0.53029">
        <ele>234.7</ele>
        <time>2013-11-23T15:15:42Z</time>
      </trkpt>
      <trkpt lat="43.44079" lon="-0.53027">
        <ele>235.18</ele>
        <time>2013-11-23T15:15:43Z</time>
      </trkpt>
      <trkpt lat="43.44078" lon="-0.53024">
        <ele>234.7</ele>
        <time>2013-11-23T15:15:44Z</time>
      </trkpt>
      <trkpt lat="43.44077" lon="-0.53021">
        <ele>234.7</ele>
        <time>2013-11-23T15:15:45Z</time>
      </trkpt>
      <trkpt lat="43.44076" lon="-0.53018">
        <ele>235.18</ele>
        <time>2013-11-23T15:15:46Z</time>
      </trkpt>
      <trkpt lat="43.44075" lon="-0.53016">
        <ele>235.18</ele>
        <time>2013-11-23T15:15:47Z</time>
      </trkpt>
      <trkpt lat="43.44074" lon="-0.53013">
        <ele>235.18</ele>
        <time>2013-11-23T15:15:48Z</time>
      </trkpt>
      <trkpt lat="43.44073" lon="-0.53011">
        <ele>235.18</ele>
        <time>2013-11-23T15:15:49Z</time>
      </trkpt>
      <trkpt lat="43.44072" lon="-0.53008">
        <ele>235.66</ele>
        <time>2013-11-23T15:15:50Z</time>
      </trkpt>
      <trkpt lat="43.44071" lon="-0.53005">
        <ele>235.18</ele>
        <time>2013-11-23T15:15:51Z</time>
      </trkpt>
      <trkpt lat="43.44038" lon="-0.52938">
        <ele>235.18</ele>
        <time>2013-11-23T15:16:12Z</time>
      </trkpt>
      <trkpt lat="43.44025" lon="-0.52921">
        <ele>233.74</ele>
        <time>2013-11-23T15:16:15Z</time>
      </trkpt>
      <trkpt lat="43.44005" lon="-0.52897">
        <ele>230.37</ele>
        <time>2013-11-23T15:16:18Z</time>
      </trkpt>
      <trkpt lat="43.43974" lon="-0.52864">
        <ele>227.01</ele>
        <time>2013-11-23T15:16:22Z</time>
      </trkpt>
      <trkpt lat="43.43958" lon="-0.52851">
        <ele>226.05</ele>
        <time>2013-11-23T15:16:24Z</time>
      </trkpt>
      <trkpt lat="43.43905" lon="-0.52801">
        <ele>224.12</ele>
        <time>2013-11-23T15:16:32Z</time>
      </trkpt>
      <trkpt lat="43.43901" lon="-0.52794">
        <ele>224.12</ele>
        <time>2013-11-23T15:16:33Z</time>
      </trkpt>
      <trkpt lat="43.43878" lon="-0.52738">
        <ele>224.12</ele>
        <time>2013-11-23T15:16:42Z</time>
      </trkpt>
      <trkpt lat="43.43864" lon="-0.52665">
        <ele>227.49</ele>
        <time>2013-11-23T15:16:56Z</time>
      </trkpt>
      <trkpt lat="43.43849" lon="-0.52622">
        <ele>229.89</ele>
        <time>2013-11-23T15:17:12Z</time>
      </trkpt>
      <trkpt lat="43.43826" lon="-0.52581">
        <ele>232.78</ele>
        <time>2013-11-23T15:17:30Z</time>
      </trkpt>
      <trkpt lat="43.43795" lon="-0.52506">
        <ele>232.3</ele>
        <time>2013-11-23T15:17:53Z</time>
      </trkpt>
      <trkpt lat="43.43792" lon="-0.52501">
        <ele>231.81</ele>
        <time>2013-11-23T15:17:54Z</time>
      </trkpt>
      <trkpt lat="43.43779" lon="-0.52482">
        <ele>229.89</ele>
        <time>2013-11-23T15:17:57Z</time>
      </trkpt>
      <trkpt lat="43.43757" lon="-0.52448">
        <ele>227.49</ele>
        <time>2013-11-23T15:18:01Z</time>
      </trkpt>
      <trkpt lat="43.43734" lon="-0.52413">
        <ele>225.09</ele>
        <time>2013-11-23T15:18:05Z</time>
      </trkpt>
      <trkpt lat="43.43648" lon="-0.52288">
        <ele>224.61</ele>
        <time>2013-11-23T15:18:23Z</time>
      </trkpt>
      <trkpt lat="43.43614" lon="-0.5224">
        <ele>225.57</ele>
        <time>2013-11-23T15:18:32Z</time>
      </trkpt>
      <trkpt lat="43.43603" lon="-0.52221">
        <ele>226.05</ele>
        <time>2013-11-23T15:18:36Z</time>
      </trkpt>
      <trkpt lat="43.43601" lon="-0.52216">
        <ele>226.05</ele>
        <time>2013-11-23T15:18:37Z</time>
      </trkpt>
      <trkpt lat="43.43599" lon="-0.52211">
        <ele>226.53</ele>
        <time>2013-11-23T15:18:38Z</time>
      </trkpt>
      <trkpt lat="43.43572" lon="-0.52154">
        <ele>229.41</ele>
        <time>2013-11-23T15:18:53Z</time>
      </trkpt>
      <trkpt lat="43.43553" lon="-0.52112">
        <ele>233.26</ele>
        <time>2013-11-23T15:19:06Z</time>
      </trkpt>
      <trkpt lat="43.43539" lon="-0.52082">
        <ele>235.18</ele>
        <time>2013-11-23T15:19:19Z</time>
      </trkpt>
      <trkpt lat="43.43539" lon="-0.52079">
        <ele>234.7</ele>
        <time>2013-11-23T15:19:20Z</time>
      </trkpt>
      <trkpt lat="43.43538" lon="-0.52077">
        <ele>235.18</ele>
        <time>2013-11-23T15:19:21Z</time>
      </trkpt>
      <trkpt lat="43.43537" lon="-0.52076">
        <ele>234.7</ele>
        <time>2013-11-23T15:19:22Z</time>
      </trkpt>
      <trkpt lat="43.43536" lon="-0.52073">
        <ele>235.66</ele>
        <time>2013-11-23T15:19:23Z</time>
      </trkpt>
      <trkpt lat="43.43535" lon="-0.52071">
        <ele>235.18</ele>
        <time>2013-11-23T15:19:24Z</time>
      </trkpt>
      <trkpt lat="43.43534" lon="-0.52068">
        <ele>235.18</ele>
        <time>2013-11-23T15:19:25Z</time>
      </trkpt>
      <trkpt lat="43.43533" lon="-0.52065">
        <ele>235.18</ele>
        <time>2013-11-23T15:19:26Z</time>
      </trkpt>
      <trkpt lat="43.43532" lon="-0.52063">
        <ele>235.66</ele>
        <time>2013-11-23T15:19:27Z</time>
      </trkpt>
      <trkpt lat="43.4353" lon="-0.52061">
        <ele>235.66</ele>
        <time>2013-11-23T15:19:28Z</time>
      </trkpt>
      <trkpt lat="43.43529" lon="-0.52058">
        <ele>235.66</ele>
        <time>2013-11-23T15:19:29Z</time>
      </trkpt>
      <trkpt lat="43.43528" lon="-0.52056">
        <ele>236.14</ele>
        <time>2013-11-23T15:19:30Z</time>
      </trkpt>
      <trkpt lat="43.43491" lon="-0.51989">
        <ele>237.58</ele>
        <time>2013-11-23T15:19:54Z</time>
      </trkpt>
      <trkpt lat="43.43455" lon="-0.51939">
        <ele>237.58</ele>
        <time>2013-11-23T15:20:12Z</time>
      </trkpt>
      <trkpt lat="43.43402" lon="-0.51871">
        <ele>236.62</ele>
        <time>2013-11-23T15:20:33Z</time>
      </trkpt>
      <trkpt lat="43.43356" lon="-0.51803">
        <ele>239.99</ele>
        <time>2013-11-23T15:20:54Z</time>
      </trkpt>
      <trkpt lat="43.43315" lon="-0.51741">
        <ele>242.87</ele>
        <time>2013-11-23T15:21:14Z</time>
      </trkpt>
      <trkpt lat="43.43272" lon="-0.51653">
        <ele>244.79</ele>
        <time>2013-11-23T15:21:38Z</time>
      </trkpt>
      <trkpt lat="43.43244" lon="-0.51581">
        <ele>243.83</ele>
        <time>2013-11-23T15:21:55Z</time>
      </trkpt>
      <trkpt lat="43.43243" lon="-0.51576">
        <ele>243.83</ele>
        <time>2013-11-23T15:21:56Z</time>
      </trkpt>
      <trkpt lat="43.43198" lon="-0.51472">
        <ele>242.87</ele>
        <time>2013-11-23T15:22:15Z</time>
      </trkpt>
      <trkpt lat="43.4312" lon="-0.51402">
        <ele>239.51</ele>
        <time>2013-11-23T15:22:32Z</time>
      </trkpt>
      <trkpt lat="43.43046" lon="-0.51287">
        <ele>237.1</ele>
        <time>2013-11-23T15:22:53Z</time>
      </trkpt>
      <trkpt lat="43.43011" lon="-0.51225">
        <ele>236.14</ele>
        <time>2013-11-23T15:23:04Z</time>
      </trkpt>
      <trkpt lat="43.43008" lon="-0.51219">
        <ele>236.14</ele>
        <time>2013-11-23T15:23:05Z</time>
      </trkpt>
      <trkpt lat="43.42996" lon="-0.51198">
        <ele>236.14</ele>
        <time>2013-11-23T15:23:09Z</time>
      </trkpt>
      <trkpt lat="43.42993" lon="-0.51193">
        <ele>236.14</ele>
        <time>2013-11-23T15:23:10Z</time>
      </trkpt>
      <trkpt lat="43.42936" lon="-0.51084">
        <ele>234.7</ele>
        <time>2013-11-23T15:23:29Z</time>
      </trkpt>
      <trkpt lat="43.42926" lon="-0.51061">
        <ele>234.7</ele>
        <time>2013-11-23T15:23:33Z</time>
      </trkpt>
      <trkpt lat="43.42921" lon="-0.5105">
        <ele>234.7</ele>
        <time>2013-11-23T15:23:35Z</time>
      </trkpt>
      <trkpt lat="43.42888" lon="-0.51008">
        <ele>233.26</ele>
        <time>2013-11-23T15:23:44Z</time>
      </trkpt>
      <trkpt lat="43.42846" lon="-0.50951">
        <ele>230.37</ele>
        <time>2013-11-23T15:23:54Z</time>
      </trkpt>
      <trkpt lat="43.42822" lon="-0.50911">
        <ele>227.49</ele>
        <time>2013-11-23T15:23:59Z</time>
      </trkpt>
      <trkpt lat="43.42817" lon="-0.50903">
        <ele>227.01</ele>
        <time>2013-11-23T15:24:00Z</time>
      </trkpt>
      <trkpt lat="43.42769" lon="-0.50824">
        <ele>224.12</ele>
        <time>2013-11-23T15:24:10Z</time>
      </trkpt>
      <trkpt lat="43.42749" lon="-0.50793">
        <ele>223.64</ele>
        <time>2013-11-23T15:24:15Z</time>
      </trkpt>
      <trkpt lat="43.42704" lon="-0.50727">
        <ele>223.64</ele>
        <time>2013-11-23T15:24:32Z</time>
      </trkpt>
      <trkpt lat="43.4268" lon="-0.50689">
        <ele>224.12</ele>
        <time>2013-11-23T15:24:45Z</time>
      </trkpt>
      <trkpt lat="43.42641" lon="-0.50632">
        <ele>225.09</ele>
        <time>2013-11-23T15:25:03Z</time>
      </trkpt>
      <trkpt lat="43.42609" lon="-0.50587">
        <ele>227.01</ele>
        <time>2013-11-23T15:25:19Z</time>
      </trkpt>
      <trkpt lat="43.42591" lon="-0.50555">
        <ele>228.93</ele>
        <time>2013-11-23T15:25:31Z</time>
      </trkpt>
      <trkpt lat="43.4259" lon="-0.50553">
        <ele>229.41</ele>
        <time>2013-11-23T15:25:32Z</time>
      </trkpt>
      <trkpt lat="43.42589" lon="-0.50551">
        <ele>229.89</ele>
        <time>2013-11-23T15:25:33Z</time>
      </trkpt>
      <trkpt lat="43.42587" lon="-0.50548">
        <ele>229.89</ele>
        <time>2013-11-23T15:25:34Z</time>
      </trkpt>
      <trkpt lat="43.42586" lon="-0.50545">
        <ele>229.89</ele>
        <time>2013-11-23T15:25:35Z</time>
      </trkpt>
      <trkpt lat="43.42585" lon="-0.50543">
        <ele>229.89</ele>
        <time>2013-11-23T15:25:36Z</time>
      </trkpt>
      <trkpt lat="43.42564" lon="-0.50508">
        <ele>232.78</ele>
        <time>2013-11-23T15:25:52Z</time>
      </trkpt>
      <trkpt lat="43.42539" lon="-0.50467">
        <ele>236.14</ele>
        <time>2013-11-23T15:26:10Z</time>
      </trkpt>
      <trkpt lat="43.42518" lon="-0.50428">
        <ele>239.02</ele>
        <time>2013-11-23T15:26:28Z</time>
      </trkpt>
      <trkpt lat="43.42506" lon="-0.50412">
        <ele>239.99</ele>
        <time>2013-11-23T15:26:39Z</time>
      </trkpt>
      <trkpt lat="43.42504" lon="-0.50416">
        <ele>239.99</ele>
        <time>2013-11-23T15:26:42Z</time>
      </trkpt>
      <trkpt lat="43.42481" lon="-0.50439">
        <ele>236.62</ele>
        <time>2013-11-23T15:26:51Z</time>
      </trkpt>
      <trkpt lat="43.4246" lon="-0.50458">
        <ele>234.22</ele>
        <time>2013-11-23T15:26:56Z</time>
      </trkpt>
      <trkpt lat="43.42441" lon="-0.50479">
        <ele>232.3</ele>
        <time>2013-11-23T15:27:01Z</time>
      </trkpt>
      <trkpt lat="43.42432" lon="-0.50505">
        <ele>227.01</ele>
        <time>2013-11-23T15:27:05Z</time>
      </trkpt>
      <trkpt lat="43.42424" lon="-0.50527">
        <ele>221.24</ele>
        <time>2013-11-23T15:27:09Z</time>
      </trkpt>
      <trkpt lat="43.42419" lon="-0.50538">
        <ele>219.32</ele>
        <time>2013-11-23T15:27:11Z</time>
      </trkpt>
      <trkpt lat="43.42415" lon="-0.50558">
        <ele>217.4</ele>
        <time>2013-11-23T15:27:15Z</time>
      </trkpt>
      <trkpt lat="43.42404" lon="-0.50571">
        <ele>214.03</ele>
        <time>2013-11-23T15:27:21Z</time>
      </trkpt>
      <trkpt lat="43.424" lon="-0.50574">
        <ele>214.03</ele>
        <time>2013-11-23T15:27:23Z</time>
      </trkpt>
      <trkpt lat="43.42374" lon="-0.50589">
        <ele>217.4</ele>
        <time>2013-11-23T15:27:39Z</time>
      </trkpt>
      <trkpt lat="43.42362" lon="-0.50606">
        <ele>219.8</ele>
        <time>2013-11-23T15:27:49Z</time>
      </trkpt>
      <trkpt lat="43.42344" lon="-0.50629">
        <ele>223.16</ele>
        <time>2013-11-23T15:28:05Z</time>
      </trkpt>
      <trkpt lat="43.4233" lon="-0.50637">
        <ele>226.53</ele>
        <time>2013-11-23T15:28:23Z</time>
      </trkpt>
      <trkpt lat="43.42315" lon="-0.5065">
        <ele>229.41</ele>
        <time>2013-11-23T15:28:42Z</time>
      </trkpt>
      <trkpt lat="43.42293" lon="-0.50666">
        <ele>232.78</ele>
        <time>2013-11-23T15:29:04Z</time>
      </trkpt>
      <trkpt lat="43.42277" lon="-0.50678">
        <ele>235.18</ele>
        <time>2013-11-23T15:29:24Z</time>
      </trkpt>
      <trkpt lat="43.42262" lon="-0.50684">
        <ele>238.06</ele>
        <time>2013-11-23T15:29:39Z</time>
      </trkpt>
      <trkpt lat="43.4225" lon="-0.50693">
        <ele>239.51</ele>
        <time>2013-11-23T15:29:59Z</time>
      </trkpt>
      <trkpt lat="43.42229" lon="-0.50705">
        <ele>241.43</ele>
        <time>2013-11-23T15:30:20Z</time>
      </trkpt>
      <trkpt lat="43.42213" lon="-0.50715">
        <ele>244.31</ele>
        <time>2013-11-23T15:30:39Z</time>
      </trkpt>
      <trkpt lat="43.422" lon="-0.5073">
        <ele>246.72</ele>
        <time>2013-11-23T15:30:59Z</time>
      </trkpt>
      <trkpt lat="43.42197" lon="-0.50734">
        <ele>247.2</ele>
        <time>2013-11-23T15:31:03Z</time>
      </trkpt>
      <trkpt lat="43.42182" lon="-0.50746">
        <ele>249.12</ele>
        <time>2013-11-23T15:31:22Z</time>
      </trkpt>
      <trkpt lat="43.42163" lon="-0.50773">
        <ele>251.52</ele>
        <time>2013-11-23T15:31:42Z</time>
      </trkpt>
      <trkpt lat="43.42144" lon="-0.50806">
        <ele>253.44</ele>
        <time>2013-11-23T15:31:59Z</time>
      </trkpt>
      <trkpt lat="43.42138" lon="-0.50817">
        <ele>253.44</ele>
        <time>2013-11-23T15:32:16Z</time>
      </trkpt>
      <trkpt lat="43.42141" lon="-0.50817">
        <ele>253.44</ele>
        <time>2013-11-23T15:33:07Z</time>
      </trkpt>
      <trkpt lat="43.42142" lon="-0.50818">
        <ele>253.44</ele>
        <time>2013-11-23T15:33:55Z</time>
      </trkpt>
      <trkpt lat="43.42139" lon="-0.50815">
        <ele>253.44</ele>
        <time>2013-11-23T15:34:42Z</time>
      </trkpt>
      <trkpt lat="43.4214" lon="-0.50815">
        <ele>252.96</ele>
        <time>2013-11-23T15:35:37Z</time>
      </trkpt>
      <trkpt lat="43.42138" lon="-0.50815">
        <ele>252.96</ele>
        <time>2013-11-23T15:36:15Z</time>
      </trkpt>
      <trkpt lat="43.42121" lon="-0.50834">
        <ele>253.93</ele>
        <time>2013-11-23T15:36:31Z</time>
      </trkpt>
      <trkpt lat="43.42092" lon="-0.50873">
        <ele>253.93</ele>
        <time>2013-11-23T15:36:47Z</time>
      </trkpt>
      <trkpt lat="43.42058" lon="-0.5094">
        <ele>252.96</ele>
        <time>2013-11-23T15:37:04Z</time>
      </trkpt>
      <trkpt lat="43.42008" lon="-0.50979">
        <ele>254.89</ele>
        <time>2013-11-23T15:37:21Z</time>
      </trkpt>
      <trkpt lat="43.41961" lon="-0.51012">
        <ele>256.81</ele>
        <time>2013-11-23T15:37:40Z</time>
      </trkpt>
      <trkpt lat="43.41937" lon="-0.51033">
        <ele>259.69</ele>
        <time>2013-11-23T15:37:51Z</time>
      </trkpt>
      <trkpt lat="43.41893" lon="-0.51085">
        <ele>259.69</ele>
        <time>2013-11-23T15:38:12Z</time>
      </trkpt>
      <trkpt lat="43.4187" lon="-0.51116">
        <ele>258.25</ele>
        <time>2013-11-23T15:38:23Z</time>
      </trkpt>
      <trkpt lat="43.41871" lon="-0.51118">
        <ele>258.73</ele>
        <time>2013-11-23T15:38:24Z</time>
      </trkpt>
      <trkpt lat="43.41873" lon="-0.51121">
        <ele>258.73</ele>
        <time>2013-11-23T15:38:25Z</time>
      </trkpt>
      <trkpt lat="43.41916" lon="-0.51178">
        <ele>259.69</ele>
        <time>2013-11-23T15:38:43Z</time>
      </trkpt>
      <trkpt lat="43.41965" lon="-0.51264">
        <ele>258.25</ele>
        <time>2013-11-23T15:39:06Z</time>
      </trkpt>
      <trkpt lat="43.42021" lon="-0.51367">
        <ele>256.81</ele>
        <time>2013-11-23T15:39:25Z</time>
      </trkpt>
      <trkpt lat="43.42073" lon="-0.5152">
        <ele>256.33</ele>
        <time>2013-11-23T15:39:50Z</time>
      </trkpt>
      <trkpt lat="43.42089" lon="-0.51557">
        <ele>256.33</ele>
        <time>2013-11-23T15:39:57Z</time>
      </trkpt>
      <trkpt lat="43.42159" lon="-0.51648">
        <ele>255.37</ele>
        <time>2013-11-23T15:40:18Z</time>
      </trkpt>
      <trkpt lat="43.42266" lon="-0.51748">
        <ele>254.41</ele>
        <time>2013-11-23T15:40:44Z</time>
      </trkpt>
      <trkpt lat="43.4229" lon="-0.51776">
        <ele>253.93</ele>
        <time>2013-11-23T15:40:50Z</time>
      </trkpt>
      <trkpt lat="43.42293" lon="-0.51781">
        <ele>253.93</ele>
        <time>2013-11-23T15:40:51Z</time>
      </trkpt>
      <trkpt lat="43.42296" lon="-0.51788">
        <ele>253.93</ele>
        <time>2013-11-23T15:40:52Z</time>
      </trkpt>
      <trkpt lat="43.42319" lon="-0.51876">
        <ele>253.44</ele>
        <time>2013-11-23T15:41:05Z</time>
      </trkpt>
      <trkpt lat="43.42321" lon="-0.51882">
        <ele>253.44</ele>
        <time>2013-11-23T15:41:06Z</time>
      </trkpt>
      <trkpt lat="43.42327" lon="-0.51894">
        <ele>253.44</ele>
        <time>2013-11-23T15:41:08Z</time>
      </trkpt>
      <trkpt lat="43.4233" lon="-0.519">
        <ele>253.44</ele>
        <time>2013-11-23T15:41:09Z</time>
      </trkpt>
      <trkpt lat="43.42364" lon="-0.51952">
        <ele>254.41</ele>
        <time>2013-11-23T15:41:20Z</time>
      </trkpt>
      <trkpt lat="43.42366" lon="-0.51957">
        <ele>254.89</ele>
        <time>2013-11-23T15:41:21Z</time>
      </trkpt>
      <trkpt lat="43.42382" lon="-0.5203">
        <ele>255.37</ele>
        <time>2013-11-23T15:41:35Z</time>
      </trkpt>
      <trkpt lat="43.42389" lon="-0.52119">
        <ele>255.37</ele>
        <time>2013-11-23T15:41:50Z</time>
      </trkpt>
      <trkpt lat="43.4239" lon="-0.52125">
        <ele>254.89</ele>
        <time>2013-11-23T15:41:51Z</time>
      </trkpt>
      <trkpt lat="43.42398" lon="-0.52181">
        <ele>253.44</ele>
        <time>2013-11-23T15:41:59Z</time>
      </trkpt>
      <trkpt lat="43.424" lon="-0.52189">
        <ele>252.96</ele>
        <time>2013-11-23T15:42:00Z</time>
      </trkpt>
      <trkpt lat="43.42402" lon="-0.52197">
        <ele>252.96</ele>
        <time>2013-11-23T15:42:01Z</time>
      </trkpt>
      <trkpt lat="43.42422" lon="-0.52262">
        <ele>250.56</ele>
        <time>2013-11-23T15:42:10Z</time>
      </trkpt>
      <trkpt lat="43.42422" lon="-0.52267">
        <ele>250.56</ele>
        <time>2013-11-23T15:42:11Z</time>
      </trkpt>
      <trkpt lat="43.42423" lon="-0.52272">
        <ele>251.04</ele>
        <time>2013-11-23T15:42:12Z</time>
      </trkpt>
      <trkpt lat="43.42427" lon="-0.52288">
        <ele>251.04</ele>
        <time>2013-11-23T15:42:15Z</time>
      </trkpt>
      <trkpt lat="43.42429" lon="-0.52294">
        <ele>251.04</ele>
        <time>2013-11-23T15:42:16Z</time>
      </trkpt>
      <trkpt lat="43.42434" lon="-0.52307">
        <ele>250.08</ele>
        <time>2013-11-23T15:42:18Z</time>
      </trkpt>
      <trkpt lat="43.42488" lon="-0.52457">
        <ele>248.64</ele>
        <time>2013-11-23T15:42:41Z</time>
      </trkpt>
      <trkpt lat="43.42539" lon="-0.5256">
        <ele>249.6</ele>
        <time>2013-11-23T15:42:58Z</time>
      </trkpt>
      <trkpt lat="43.42545" lon="-0.52578">
        <ele>250.56</ele>
        <time>2013-11-23T15:43:01Z</time>
      </trkpt>
      <trkpt lat="43.42546" lon="-0.52584">
        <ele>250.56</ele>
        <time>2013-11-23T15:43:02Z</time>
      </trkpt>
      <trkpt lat="43.42547" lon="-0.52597">
        <ele>251.04</ele>
        <time>2013-11-23T15:43:04Z</time>
      </trkpt>
      <trkpt lat="43.4255" lon="-0.52657">
        <ele>251.04</ele>
        <time>2013-11-23T15:43:13Z</time>
      </trkpt>
      <trkpt lat="43.42561" lon="-0.52794">
        <ele>253.93</ele>
        <time>2013-11-23T15:43:37Z</time>
      </trkpt>
      <trkpt lat="43.4257" lon="-0.52842">
        <ele>253.44</ele>
        <time>2013-11-23T15:43:46Z</time>
      </trkpt>
      <trkpt lat="43.42587" lon="-0.52927">
        <ele>252.96</ele>
        <time>2013-11-23T15:44:01Z</time>
      </trkpt>
      <trkpt lat="43.42591" lon="-0.52944">
        <ele>252.96</ele>
        <time>2013-11-23T15:44:04Z</time>
      </trkpt>
      <trkpt lat="43.42647" lon="-0.53047">
        <ele>252.48</ele>
        <time>2013-11-23T15:44:24Z</time>
      </trkpt>
      <trkpt lat="43.42669" lon="-0.53062">
        <ele>252</ele>
        <time>2013-11-23T15:44:29Z</time>
      </trkpt>
      <trkpt lat="43.42713" lon="-0.53077">
        <ele>251.52</ele>
        <time>2013-11-23T15:44:38Z</time>
      </trkpt>
      <trkpt lat="43.42718" lon="-0.5308">
        <ele>251.04</ele>
        <time>2013-11-23T15:44:39Z</time>
      </trkpt>
      <trkpt lat="43.42721" lon="-0.53084">
        <ele>251.52</ele>
        <time>2013-11-23T15:44:40Z</time>
      </trkpt>
      <trkpt lat="43.42724" lon="-0.5309">
        <ele>251.04</ele>
        <time>2013-11-23T15:44:41Z</time>
      </trkpt>
      <trkpt lat="43.42726" lon="-0.53096">
        <ele>250.56</ele>
        <time>2013-11-23T15:44:42Z</time>
      </trkpt>
      <trkpt lat="43.42727" lon="-0.53103">
        <ele>250.08</ele>
        <time>2013-11-23T15:44:43Z</time>
      </trkpt>
      <trkpt lat="43.42727" lon="-0.5311">
        <ele>250.56</ele>
        <time>2013-11-23T15:44:44Z</time>
      </trkpt>
      <trkpt lat="43.42726" lon="-0.53118">
        <ele>250.08</ele>
        <time>2013-11-23T15:44:45Z</time>
      </trkpt>
      <trkpt lat="43.42725" lon="-0.53125">
        <ele>250.08</ele>
        <time>2013-11-23T15:44:46Z</time>
      </trkpt>
      <trkpt lat="43.42723" lon="-0.53132">
        <ele>249.12</ele>
        <time>2013-11-23T15:44:47Z</time>
      </trkpt>
      <trkpt lat="43.4272" lon="-0.53139">
        <ele>249.6</ele>
        <time>2013-11-23T15:44:48Z</time>
      </trkpt>
      <trkpt lat="43.42698" lon="-0.53208">
        <ele>248.16</ele>
        <time>2013-11-23T15:44:57Z</time>
      </trkpt>
      <trkpt lat="43.42697" lon="-0.53217">
        <ele>247.68</ele>
        <time>2013-11-23T15:44:58Z</time>
      </trkpt>
      <trkpt lat="43.42697" lon="-0.53225">
        <ele>248.16</ele>
        <time>2013-11-23T15:44:59Z</time>
      </trkpt>
      <trkpt lat="43.42698" lon="-0.53233">
        <ele>247.68</ele>
        <time>2013-11-23T15:45:00Z</time>
      </trkpt>
      <trkpt lat="43.427" lon="-0.53241">
        <ele>248.16</ele>
        <time>2013-11-23T15:45:01Z</time>
      </trkpt>
      <trkpt lat="43.42702" lon="-0.53249">
        <ele>247.68</ele>
        <time>2013-11-23T15:45:02Z</time>
      </trkpt>
      <trkpt lat="43.42704" lon="-0.53257">
        <ele>247.68</ele>
        <time>2013-11-23T15:45:03Z</time>
      </trkpt>
      <trkpt lat="43.42706" lon="-0.53264">
        <ele>247.68</ele>
        <time>2013-11-23T15:45:04Z</time>
      </trkpt>
      <trkpt lat="43.42708" lon="-0.53272">
        <ele>248.16</ele>
        <time>2013-11-23T15:45:05Z</time>
      </trkpt>
      <trkpt lat="43.42743" lon="-0.53387">
        <ele>250.08</ele>
        <time>2013-11-23T15:45:25Z</time>
      </trkpt>
      <trkpt lat="43.42768" lon="-0.53455">
        <ele>251.04</ele>
        <time>2013-11-23T15:45:39Z</time>
      </trkpt>
      <trkpt lat="43.4277" lon="-0.5346">
        <ele>250.56</ele>
        <time>2013-11-23T15:45:40Z</time>
      </trkpt>
      <trkpt lat="43.42773" lon="-0.53465">
        <ele>250.56</ele>
        <time>2013-11-23T15:45:41Z</time>
      </trkpt>
      <trkpt lat="43.42775" lon="-0.5347">
        <ele>250.56</ele>
        <time>2013-11-23T15:45:42Z</time>
      </trkpt>
      <trkpt lat="43.42777" lon="-0.53474">
        <ele>250.56</ele>
        <time>2013-11-23T15:45:43Z</time>
      </trkpt>
      <trkpt lat="43.4278" lon="-0.53479">
        <ele>250.56</ele>
        <time>2013-11-23T15:45:44Z</time>
      </trkpt>
      <trkpt lat="43.42861" lon="-0.53591">
        <ele>249.6</ele>
        <time>2013-11-23T15:46:04Z</time>
      </trkpt>
      <trkpt lat="43.42916" lon="-0.53692">
        <ele>251.04</ele>
        <time>2013-11-23T15:46:19Z</time>
      </trkpt>
      <trkpt lat="43.42917" lon="-0.53699">
        <ele>251.04</ele>
        <time>2013-11-23T15:46:20Z</time>
      </trkpt>
      <trkpt lat="43.42922" lon="-0.53728">
        <ele>251.04</ele>
        <time>2013-11-23T15:46:24Z</time>
      </trkpt>
      <trkpt lat="43.42922" lon="-0.53735">
        <ele>250.56</ele>
        <time>2013-11-23T15:46:25Z</time>
      </trkpt>
      <trkpt lat="43.42923" lon="-0.53754">
        <ele>250.56</ele>
        <time>2013-11-23T15:46:28Z</time>
      </trkpt>
      <trkpt lat="43.42922" lon="-0.5378">
        <ele>250.08</ele>
        <time>2013-11-23T15:46:32Z</time>
      </trkpt>
      <trkpt lat="43.42919" lon="-0.53799">
        <ele>249.6</ele>
        <time>2013-11-23T15:46:35Z</time>
      </trkpt>
      <trkpt lat="43.42895" lon="-0.53873">
        <ele>246.72</ele>
        <time>2013-11-23T15:46:46Z</time>
      </trkpt>
      <trkpt lat="43.42839" lon="-0.54041">
        <ele>245.27</ele>
        <time>2013-11-23T15:47:08Z</time>
      </trkpt>
      <trkpt lat="43.42837" lon="-0.54047">
        <ele>245.75</ele>
        <time>2013-11-23T15:47:09Z</time>
      </trkpt>
      <trkpt lat="43.42834" lon="-0.54054">
        <ele>245.75</ele>
        <time>2013-11-23T15:47:10Z</time>
      </trkpt>
      <trkpt lat="43.42831" lon="-0.54061">
        <ele>246.23</ele>
        <time>2013-11-23T15:47:11Z</time>
      </trkpt>
      <trkpt lat="43.42826" lon="-0.54088">
        <ele>247.2</ele>
        <time>2013-11-23T15:47:14Z</time>
      </trkpt>
      <trkpt lat="43.42826" lon="-0.54098">
        <ele>246.72</ele>
        <time>2013-11-23T15:47:15Z</time>
      </trkpt>
      <trkpt lat="43.42826" lon="-0.54109">
        <ele>247.2</ele>
        <time>2013-11-23T15:47:16Z</time>
      </trkpt>
      <trkpt lat="43.42827" lon="-0.54119">
        <ele>246.72</ele>
        <time>2013-11-23T15:47:17Z</time>
      </trkpt>
      <trkpt lat="43.42828" lon="-0.54129">
        <ele>246.72</ele>
        <time>2013-11-23T15:47:18Z</time>
      </trkpt>
      <trkpt lat="43.42829" lon="-0.54138">
        <ele>246.23</ele>
        <time>2013-11-23T15:47:19Z</time>
      </trkpt>
      <trkpt lat="43.42836" lon="-0.54181">
        <ele>246.23</ele>
        <time>2013-11-23T15:47:24Z</time>
      </trkpt>
      <trkpt lat="43.42859" lon="-0.54298">
        <ele>242.87</ele>
        <time>2013-11-23T15:47:38Z</time>
      </trkpt>
      <trkpt lat="43.42937" lon="-0.54443">
        <ele>240.47</ele>
        <time>2013-11-23T15:47:55Z</time>
      </trkpt>
      <trkpt lat="43.43015" lon="-0.54552">
        <ele>242.87</ele>
        <time>2013-11-23T15:48:12Z</time>
      </trkpt>
      <trkpt lat="43.43091" lon="-0.54676">
        <ele>243.35</ele>
        <time>2013-11-23T15:48:35Z</time>
      </trkpt>
      <trkpt lat="43.43108" lon="-0.54714">
        <ele>243.83</ele>
        <time>2013-11-23T15:48:43Z</time>
      </trkpt>
      <trkpt lat="43.43114" lon="-0.5473">
        <ele>244.31</ele>
        <time>2013-11-23T15:48:46Z</time>
      </trkpt>
      <trkpt lat="43.43116" lon="-0.54735">
        <ele>244.79</ele>
        <time>2013-11-23T15:48:47Z</time>
      </trkpt>
      <trkpt lat="43.43154" lon="-0.54867">
        <ele>245.27</ele>
        <time>2013-11-23T15:49:11Z</time>
      </trkpt>
      <trkpt lat="43.43155" lon="-0.54873">
        <ele>245.27</ele>
        <time>2013-11-23T15:49:12Z</time>
      </trkpt>
      <trkpt lat="43.43157" lon="-0.54878">
        <ele>245.27</ele>
        <time>2013-11-23T15:49:13Z</time>
      </trkpt>
      <trkpt lat="43.43158" lon="-0.54883">
        <ele>245.27</ele>
        <time>2013-11-23T15:49:14Z</time>
      </trkpt>
      <trkpt lat="43.4316" lon="-0.54889">
        <ele>245.27</ele>
        <time>2013-11-23T15:49:15Z</time>
      </trkpt>
      <trkpt lat="43.43197" lon="-0.54986">
        <ele>248.16</ele>
        <time>2013-11-23T15:49:36Z</time>
      </trkpt>
      <trkpt lat="43.432" lon="-0.54991">
        <ele>247.2</ele>
        <time>2013-11-23T15:49:37Z</time>
      </trkpt>
      <trkpt lat="43.43203" lon="-0.54995">
        <ele>247.68</ele>
        <time>2013-11-23T15:49:38Z</time>
      </trkpt>
      <trkpt lat="43.43287" lon="-0.55087">
        <ele>247.2</ele>
        <time>2013-11-23T15:50:02Z</time>
      </trkpt>
      <trkpt lat="43.43381" lon="-0.55189">
        <ele>247.2</ele>
        <time>2013-11-23T15:50:25Z</time>
      </trkpt>
      <trkpt lat="43.43433" lon="-0.55232">
        <ele>246.23</ele>
        <time>2013-11-23T15:50:36Z</time>
      </trkpt>
      <trkpt lat="43.43438" lon="-0.55236">
        <ele>246.23</ele>
        <time>2013-11-23T15:50:37Z</time>
      </trkpt>
      <trkpt lat="43.4348" lon="-0.55261">
        <ele>245.75</ele>
        <time>2013-11-23T15:50:45Z</time>
      </trkpt>
      <trkpt lat="43.43585" lon="-0.55327">
        <ele>243.83</ele>
        <time>2013-11-23T15:51:05Z</time>
      </trkpt>
      <trkpt lat="43.43628" lon="-0.55338">
        <ele>245.27</ele>
        <time>2013-11-23T15:51:14Z</time>
      </trkpt>
      <trkpt lat="43.43636" lon="-0.5534">
        <ele>245.75</ele>
        <time>2013-11-23T15:51:16Z</time>
      </trkpt>
      <trkpt lat="43.43671" lon="-0.55343">
        <ele>246.72</ele>
        <time>2013-11-23T15:51:24Z</time>
      </trkpt>
      <trkpt lat="43.43684" lon="-0.55342">
        <ele>245.75</ele>
        <time>2013-11-23T15:51:27Z</time>
      </trkpt>
      <trkpt lat="43.43689" lon="-0.55341">
        <ele>245.27</ele>
        <time>2013-11-23T15:51:28Z</time>
      </trkpt>
      <trkpt lat="43.43694" lon="-0.5534">
        <ele>245.27</ele>
        <time>2013-11-23T15:51:29Z</time>
      </trkpt>
      <trkpt lat="43.43699" lon="-0.55339">
        <ele>244.79</ele>
        <time>2013-11-23T15:51:30Z</time>
      </trkpt>
      <trkpt lat="43.43704" lon="-0.55339">
        <ele>244.79</ele>
        <time>2013-11-23T15:51:31Z</time>
      </trkpt>
      <trkpt lat="43.43709" lon="-0.55338">
        <ele>244.31</ele>
        <time>2013-11-23T15:51:32Z</time>
      </trkpt>
      <trkpt lat="43.43714" lon="-0.55337">
        <ele>243.83</ele>
        <time>2013-11-23T15:51:33Z</time>
      </trkpt>
      <trkpt lat="43.43719" lon="-0.55336">
        <ele>243.83</ele>
        <time>2013-11-23T15:51:34Z</time>
      </trkpt>
      <trkpt lat="43.43764" lon="-0.5533">
        <ele>240.47</ele>
        <time>2013-11-23T15:51:41Z</time>
      </trkpt>
      <trkpt lat="43.43792" lon="-0.55326">
        <ele>237.58</ele>
        <time>2013-11-23T15:51:46Z</time>
      </trkpt>
      <trkpt lat="43.43797" lon="-0.55326">
        <ele>236.62</ele>
        <time>2013-11-23T15:51:47Z</time>
      </trkpt>
      <trkpt lat="43.43802" lon="-0.55328">
        <ele>236.62</ele>
        <time>2013-11-23T15:51:48Z</time>
      </trkpt>
      <trkpt lat="43.43823" lon="-0.55337">
        <ele>232.78</ele>
        <time>2013-11-23T15:51:51Z</time>
      </trkpt>
      <trkpt lat="43.43857" lon="-0.55365">
        <ele>228.93</ele>
        <time>2013-11-23T15:51:55Z</time>
      </trkpt>
      <trkpt lat="43.43877" lon="-0.55381">
        <ele>226.05</ele>
        <time>2013-11-23T15:51:57Z</time>
      </trkpt>
      <trkpt lat="43.43908" lon="-0.55403">
        <ele>223.16</ele>
        <time>2013-11-23T15:52:00Z</time>
      </trkpt>
      <trkpt lat="43.4396" lon="-0.5543">
        <ele>219.8</ele>
        <time>2013-11-23T15:52:05Z</time>
      </trkpt>
      <trkpt lat="43.44009" lon="-0.55453">
        <ele>216.43</ele>
        <time>2013-11-23T15:52:10Z</time>
      </trkpt>
      <trkpt lat="43.44017" lon="-0.55459">
        <ele>216.43</ele>
        <time>2013-11-23T15:52:11Z</time>
      </trkpt>
      <trkpt lat="43.44025" lon="-0.55466">
        <ele>216.91</ele>
        <time>2013-11-23T15:52:12Z</time>
      </trkpt>
      <trkpt lat="43.44031" lon="-0.55474">
        <ele>216.43</ele>
        <time>2013-11-23T15:52:13Z</time>
      </trkpt>
      <trkpt lat="43.44037" lon="-0.55483">
        <ele>216.43</ele>
        <time>2013-11-23T15:52:14Z</time>
      </trkpt>
      <trkpt lat="43.44041" lon="-0.55492">
        <ele>215.95</ele>
        <time>2013-11-23T15:52:15Z</time>
      </trkpt>
      <trkpt lat="43.44071" lon="-0.55558">
        <ele>216.43</ele>
        <time>2013-11-23T15:52:23Z</time>
      </trkpt>
      <trkpt lat="43.44074" lon="-0.55566">
        <ele>215.95</ele>
        <time>2013-11-23T15:52:24Z</time>
      </trkpt>
      <trkpt lat="43.44115" lon="-0.55661">
        <ele>217.88</ele>
        <time>2013-11-23T15:52:39Z</time>
      </trkpt>
      <trkpt lat="43.44117" lon="-0.55666">
        <ele>218.36</ele>
        <time>2013-11-23T15:52:40Z</time>
      </trkpt>
      <trkpt lat="43.44119" lon="-0.55672">
        <ele>218.36</ele>
        <time>2013-11-23T15:52:41Z</time>
      </trkpt>
      <trkpt lat="43.44121" lon="-0.55677">
        <ele>218.36</ele>
        <time>2013-11-23T15:52:42Z</time>
      </trkpt>
      <trkpt lat="43.44124" lon="-0.55681">
        <ele>218.84</ele>
        <time>2013-11-23T15:52:43Z</time>
      </trkpt>
      <trkpt lat="43.44126" lon="-0.55687">
        <ele>218.84</ele>
        <time>2013-11-23T15:52:44Z</time>
      </trkpt>
      <trkpt lat="43.44128" lon="-0.55692">
        <ele>218.84</ele>
        <time>2013-11-23T15:52:45Z</time>
      </trkpt>
      <trkpt lat="43.44136" lon="-0.55715">
        <ele>218.84</ele>
        <time>2013-11-23T15:52:49Z</time>
      </trkpt>
      <trkpt lat="43.44159" lon="-0.55803">
        <ele>218.84</ele>
        <time>2013-11-23T15:53:03Z</time>
      </trkpt>
      <trkpt lat="43.44221" lon="-0.56001">
        <ele>218.36</ele>
        <time>2013-11-23T15:53:31Z</time>
      </trkpt>
      <trkpt lat="43.44271" lon="-0.56142">
        <ele>219.32</ele>
        <time>2013-11-23T15:53:54Z</time>
      </trkpt>
      <trkpt lat="43.44294" lon="-0.56198">
        <ele>219.8</ele>
        <time>2013-11-23T15:54:04Z</time>
      </trkpt>
      <trkpt lat="43.44342" lon="-0.56284">
        <ele>223.16</ele>
        <time>2013-11-23T15:54:25Z</time>
      </trkpt>
      <trkpt lat="43.44391" lon="-0.56347">
        <ele>224.61</ele>
        <time>2013-11-23T15:54:46Z</time>
      </trkpt>
      <trkpt lat="43.44426" lon="-0.56394">
        <ele>225.09</ele>
        <time>2013-11-23T15:54:59Z</time>
      </trkpt>
      <trkpt lat="43.44453" lon="-0.56431">
        <ele>225.09</ele>
        <time>2013-11-23T15:55:08Z</time>
      </trkpt>
      <trkpt lat="43.44462" lon="-0.56444">
        <ele>225.57</ele>
        <time>2013-11-23T15:55:11Z</time>
      </trkpt>
      <trkpt lat="43.44465" lon="-0.56448">
        <ele>225.57</ele>
        <time>2013-11-23T15:55:12Z</time>
      </trkpt>
      <trkpt lat="43.44508" lon="-0.56511">
        <ele>226.05</ele>
        <time>2013-11-23T15:55:27Z</time>
      </trkpt>
      <trkpt lat="43.44517" lon="-0.56524">
        <ele>226.05</ele>
        <time>2013-11-23T15:55:30Z</time>
      </trkpt>
      <trkpt lat="43.4452" lon="-0.56527">
        <ele>226.53</ele>
        <time>2013-11-23T15:55:31Z</time>
      </trkpt>
      <trkpt lat="43.44576" lon="-0.56611">
        <ele>228.45</ele>
        <time>2013-11-23T15:55:54Z</time>
      </trkpt>
      <trkpt lat="43.44613" lon="-0.56663">
        <ele>227.97</ele>
        <time>2013-11-23T15:56:07Z</time>
      </trkpt>
      <trkpt lat="43.44616" lon="-0.56667">
        <ele>227.49</ele>
        <time>2013-11-23T15:56:08Z</time>
      </trkpt>
      <trkpt lat="43.44619" lon="-0.56671">
        <ele>227.49</ele>
        <time>2013-11-23T15:56:09Z</time>
      </trkpt>
      <trkpt lat="43.44638" lon="-0.56698">
        <ele>226.53</ele>
        <time>2013-11-23T15:56:14Z</time>
      </trkpt>
      <trkpt lat="43.44695" lon="-0.56781">
        <ele>223.16</ele>
        <time>2013-11-23T15:56:28Z</time>
      </trkpt>
      <trkpt lat="43.44775" lon="-0.56926">
        <ele>221.72</ele>
        <time>2013-11-23T15:56:50Z</time>
      </trkpt>
      <trkpt lat="43.4478" lon="-0.56938">
        <ele>222.2</ele>
        <time>2013-11-23T15:56:52Z</time>
      </trkpt>
      <trkpt lat="43.448" lon="-0.56979">
        <ele>223.16</ele>
        <time>2013-11-23T15:57:00Z</time>
      </trkpt>
      <trkpt lat="43.44822" lon="-0.57029">
        <ele>223.64</ele>
        <time>2013-11-23T15:57:10Z</time>
      </trkpt>
      <trkpt lat="43.44824" lon="-0.57034">
        <ele>223.64</ele>
        <time>2013-11-23T15:57:11Z</time>
      </trkpt>
      <trkpt lat="43.44844" lon="-0.57079">
        <ele>223.16</ele>
        <time>2013-11-23T15:57:20Z</time>
      </trkpt>
      <trkpt lat="43.44871" lon="-0.57139">
        <ele>222.2</ele>
        <time>2013-11-23T15:57:31Z</time>
      </trkpt>
      <trkpt lat="43.44885" lon="-0.57182">
        <ele>222.2</ele>
        <time>2013-11-23T15:57:38Z</time>
      </trkpt>
      <trkpt lat="43.44889" lon="-0.57194">
        <ele>222.2</ele>
        <time>2013-11-23T15:57:40Z</time>
      </trkpt>
      <trkpt lat="43.44907" lon="-0.57254">
        <ele>222.2</ele>
        <time>2013-11-23T15:57:50Z</time>
      </trkpt>
      <trkpt lat="43.44912" lon="-0.57278">
        <ele>222.2</ele>
        <time>2013-11-23T15:57:54Z</time>
      </trkpt>
      <trkpt lat="43.44913" lon="-0.57284">
        <ele>222.2</ele>
        <time>2013-11-23T15:57:55Z</time>
      </trkpt>
      <trkpt lat="43.44915" lon="-0.5729">
        <ele>222.2</ele>
        <time>2013-11-23T15:57:56Z</time>
      </trkpt>
      <trkpt lat="43.44915" lon="-0.57295">
        <ele>222.68</ele>
        <time>2013-11-23T15:57:57Z</time>
      </trkpt>
      <trkpt lat="43.44916" lon="-0.57301">
        <ele>222.2</ele>
        <time>2013-11-23T15:57:58Z</time>
      </trkpt>
      <trkpt lat="43.44916" lon="-0.57307">
        <ele>222.2</ele>
        <time>2013-11-23T15:57:59Z</time>
      </trkpt>
      <trkpt lat="43.44917" lon="-0.57312">
        <ele>222.2</ele>
        <time>2013-11-23T15:58:00Z</time>
      </trkpt>
      <trkpt lat="43.44917" lon="-0.57318">
        <ele>222.2</ele>
        <time>2013-11-23T15:58:01Z</time>
      </trkpt>
      <trkpt lat="43.44919" lon="-0.57349">
        <ele>222.2</ele>
        <time>2013-11-23T15:58:06Z</time>
      </trkpt>
      <trkpt lat="43.44916" lon="-0.57452">
        <ele>222.68</ele>
        <time>2013-11-23T15:58:22Z</time>
      </trkpt>
      <trkpt lat="43.44916" lon="-0.57458">
        <ele>222.68</ele>
        <time>2013-11-23T15:58:23Z</time>
      </trkpt>
      <trkpt lat="43.44914" lon="-0.57476">
        <ele>223.16</ele>
        <time>2013-11-23T15:58:26Z</time>
      </trkpt>
      <trkpt lat="43.44914" lon="-0.57481">
        <ele>223.64</ele>
        <time>2013-11-23T15:58:27Z</time>
      </trkpt>
      <trkpt lat="43.44913" lon="-0.57487">
        <ele>223.16</ele>
        <time>2013-11-23T15:58:28Z</time>
      </trkpt>
      <trkpt lat="43.44912" lon="-0.57594">
        <ele>225.57</ele>
        <time>2013-11-23T15:58:48Z</time>
      </trkpt>
      <trkpt lat="43.44919" lon="-0.57693">
        <ele>223.16</ele>
        <time>2013-11-23T15:59:05Z</time>
      </trkpt>
      <trkpt lat="43.44919" lon="-0.57772">
        <ele>219.8</ele>
        <time>2013-11-23T15:59:15Z</time>
      </trkpt>
      <trkpt lat="43.44918" lon="-0.5782">
        <ele>217.88</ele>
        <time>2013-11-23T15:59:20Z</time>
      </trkpt>
      <trkpt lat="43.44903" lon="-0.5798">
        <ele>214.99</ele>
        <time>2013-11-23T15:59:38Z</time>
      </trkpt>
      <trkpt lat="43.44892" lon="-0.58046">
        <ele>214.99</ele>
        <time>2013-11-23T15:59:46Z</time>
      </trkpt>
      <trkpt lat="43.44885" lon="-0.58177">
        <ele>211.63</ele>
        <time>2013-11-23T16:00:03Z</time>
      </trkpt>
      <trkpt lat="43.44887" lon="-0.58216">
        <ele>208.26</ele>
        <time>2013-11-23T16:00:06Z</time>
      </trkpt>
      <trkpt lat="43.44886" lon="-0.58258">
        <ele>206.82</ele>
        <time>2013-11-23T16:00:09Z</time>
      </trkpt>
      <trkpt lat="43.44882" lon="-0.58322">
        <ele>207.78</ele>
        <time>2013-11-23T16:00:15Z</time>
      </trkpt>
      <trkpt lat="43.44882" lon="-0.58447">
        <ele>207.78</ele>
        <time>2013-11-23T16:00:32Z</time>
      </trkpt>
      <trkpt lat="43.44881" lon="-0.58458">
        <ele>208.26</ele>
        <time>2013-11-23T16:00:34Z</time>
      </trkpt>
      <trkpt lat="43.44881" lon="-0.58464">
        <ele>208.26</ele>
        <time>2013-11-23T16:00:35Z</time>
      </trkpt>
      <trkpt lat="43.44878" lon="-0.58514">
        <ele>211.63</ele>
        <time>2013-11-23T16:00:46Z</time>
      </trkpt>
      <trkpt lat="43.44878" lon="-0.58518">
        <ele>211.63</ele>
        <time>2013-11-23T16:00:47Z</time>
      </trkpt>
      <trkpt lat="43.44876" lon="-0.58583">
        <ele>213.07</ele>
        <time>2013-11-23T16:01:03Z</time>
      </trkpt>
      <trkpt lat="43.44875" lon="-0.586">
        <ele>212.11</ele>
        <time>2013-11-23T16:01:17Z</time>
      </trkpt>
      <trkpt lat="43.44872" lon="-0.58634">
        <ele>210.19</ele>
        <time>2013-11-23T16:01:24Z</time>
      </trkpt>
      <trkpt lat="43.44871" lon="-0.58674">
        <ele>206.82</ele>
        <time>2013-11-23T16:01:28Z</time>
      </trkpt>
      <trkpt lat="43.44871" lon="-0.58738">
        <ele>202.98</ele>
        <time>2013-11-23T16:01:33Z</time>
      </trkpt>
      <trkpt lat="43.44872" lon="-0.58752">
        <ele>202.01</ele>
        <time>2013-11-23T16:01:34Z</time>
      </trkpt>
      <trkpt lat="43.44874" lon="-0.58765">
        <ele>202.01</ele>
        <time>2013-11-23T16:01:35Z</time>
      </trkpt>
      <trkpt lat="43.44878" lon="-0.58778">
        <ele>201.05</ele>
        <time>2013-11-23T16:01:36Z</time>
      </trkpt>
      <trkpt lat="43.44884" lon="-0.5879">
        <ele>200.09</ele>
        <time>2013-11-23T16:01:37Z</time>
      </trkpt>
      <trkpt lat="43.44891" lon="-0.58802">
        <ele>198.65</ele>
        <time>2013-11-23T16:01:38Z</time>
      </trkpt>
      <trkpt lat="43.44924" lon="-0.58847">
        <ele>194.8</ele>
        <time>2013-11-23T16:01:42Z</time>
      </trkpt>
      <trkpt lat="43.45012" lon="-0.58951">
        <ele>193.36</ele>
        <time>2013-11-23T16:01:56Z</time>
      </trkpt>
      <trkpt lat="43.45021" lon="-0.58959">
        <ele>193.84</ele>
        <time>2013-11-23T16:01:58Z</time>
      </trkpt>
      <trkpt lat="43.45031" lon="-0.58972">
        <ele>195.28</ele>
        <time>2013-11-23T16:02:01Z</time>
      </trkpt>
      <trkpt lat="43.45035" lon="-0.58975">
        <ele>195.77</ele>
        <time>2013-11-23T16:02:02Z</time>
      </trkpt>
      <trkpt lat="43.45038" lon="-0.58978">
        <ele>195.77</ele>
        <time>2013-11-23T16:02:03Z</time>
      </trkpt>
      <trkpt lat="43.45051" lon="-0.58992">
        <ele>198.17</ele>
        <time>2013-11-23T16:02:08Z</time>
      </trkpt>
      <trkpt lat="43.45076" lon="-0.59031">
        <ele>201.05</ele>
        <time>2013-11-23T16:02:19Z</time>
      </trkpt>
      <trkpt lat="43.45114" lon="-0.5909">
        <ele>202.98</ele>
        <time>2013-11-23T16:02:37Z</time>
      </trkpt>
      <trkpt lat="43.45127" lon="-0.59119">
        <ele>202.01</ele>
        <time>2013-11-23T16:02:44Z</time>
      </trkpt>
      <trkpt lat="43.45128" lon="-0.59125">
        <ele>201.53</ele>
        <time>2013-11-23T16:02:45Z</time>
      </trkpt>
      <trkpt lat="43.45137" lon="-0.59159">
        <ele>198.65</ele>
        <time>2013-11-23T16:02:49Z</time>
      </trkpt>
      <trkpt lat="43.45146" lon="-0.59204">
        <ele>195.28</ele>
        <time>2013-11-23T16:02:53Z</time>
      </trkpt>
      <trkpt lat="43.45159" lon="-0.59254">
        <ele>192.88</ele>
        <time>2013-11-23T16:02:57Z</time>
      </trkpt>
      <trkpt lat="43.45223" lon="-0.59368">
        <ele>189.52</ele>
        <time>2013-11-23T16:03:11Z</time>
      </trkpt>
      <trkpt lat="43.45252" lon="-0.59409">
        <ele>186.15</ele>
        <time>2013-11-23T16:03:16Z</time>
      </trkpt>
      <trkpt lat="43.45289" lon="-0.59462">
        <ele>183.27</ele>
        <time>2013-11-23T16:03:22Z</time>
      </trkpt>
      <trkpt lat="43.45308" lon="-0.59489">
        <ele>181.83</ele>
        <time>2013-11-23T16:03:25Z</time>
      </trkpt>
      <trkpt lat="43.45312" lon="-0.59499">
        <ele>181.83</ele>
        <time>2013-11-23T16:03:26Z</time>
      </trkpt>
      <trkpt lat="43.45315" lon="-0.5951">
        <ele>180.87</ele>
        <time>2013-11-23T16:03:27Z</time>
      </trkpt>
      <trkpt lat="43.45328" lon="-0.59553">
        <ele>179.42</ele>
        <time>2013-11-23T16:03:31Z</time>
      </trkpt>
      <trkpt lat="43.45332" lon="-0.59563">
        <ele>179.42</ele>
        <time>2013-11-23T16:03:32Z</time>
      </trkpt>
      <trkpt lat="43.45379" lon="-0.59644">
        <ele>176.06</ele>
        <time>2013-11-23T16:03:42Z</time>
      </trkpt>
      <trkpt lat="43.45418" lon="-0.59691">
        <ele>172.69</ele>
        <time>2013-11-23T16:03:48Z</time>
      </trkpt>
      <trkpt lat="43.45489" lon="-0.598">
        <ele>175.1</ele>
        <time>2013-11-23T16:04:04Z</time>
      </trkpt>
      <trkpt lat="43.45514" lon="-0.59846">
        <ele>178.46</ele>
        <time>2013-11-23T16:04:15Z</time>
      </trkpt>
      <trkpt lat="43.45556" lon="-0.59903">
        <ele>181.35</ele>
        <time>2013-11-23T16:04:36Z</time>
      </trkpt>
      <trkpt lat="43.45594" lon="-0.59938">
        <ele>184.23</ele>
        <time>2013-11-23T16:04:56Z</time>
      </trkpt>
      <trkpt lat="43.45634" lon="-0.59968">
        <ele>186.63</ele>
        <time>2013-11-23T16:05:17Z</time>
      </trkpt>
      <trkpt lat="43.45655" lon="-0.59962">
        <ele>188.08</ele>
        <time>2013-11-23T16:05:27Z</time>
      </trkpt>
      <trkpt lat="43.45657" lon="-0.59961">
        <ele>188.08</ele>
        <time>2013-11-23T16:05:28Z</time>
      </trkpt>
      <trkpt lat="43.45659" lon="-0.59959">
        <ele>188.08</ele>
        <time>2013-11-23T16:05:29Z</time>
      </trkpt>
      <trkpt lat="43.45693" lon="-0.59933">
        <ele>190.48</ele>
        <time>2013-11-23T16:05:48Z</time>
      </trkpt>
      <trkpt lat="43.45725" lon="-0.59921">
        <ele>192.88</ele>
        <time>2013-11-23T16:06:06Z</time>
      </trkpt>
      <trkpt lat="43.45727" lon="-0.59921">
        <ele>193.36</ele>
        <time>2013-11-23T16:06:07Z</time>
      </trkpt>
      <trkpt lat="43.45767" lon="-0.59921">
        <ele>195.77</ele>
        <time>2013-11-23T16:06:28Z</time>
      </trkpt>
      <trkpt lat="43.45798" lon="-0.59925">
        <ele>198.17</ele>
        <time>2013-11-23T16:06:44Z</time>
      </trkpt>
      <trkpt lat="43.4583" lon="-0.59969">
        <ele>201.05</ele>
        <time>2013-11-23T16:07:07Z</time>
      </trkpt>
      <trkpt lat="43.4583" lon="-0.59995">
        <ele>202.01</ele>
        <time>2013-11-23T16:07:17Z</time>
      </trkpt>
      <trkpt lat="43.45829" lon="-0.59998">
        <ele>202.01</ele>
        <time>2013-11-23T16:07:18Z</time>
      </trkpt>
      <trkpt lat="43.45829" lon="-0.6">
        <ele>202.49</ele>
        <time>2013-11-23T16:07:19Z</time>
      </trkpt>
      <trkpt lat="43.45829" lon="-0.60003">
        <ele>202.49</ele>
        <time>2013-11-23T16:07:20Z</time>
      </trkpt>
      <trkpt lat="43.45829" lon="-0.60005">
        <ele>202.49</ele>
        <time>2013-11-23T16:07:21Z</time>
      </trkpt>
      <trkpt lat="43.45829" lon="-0.60008">
        <ele>202.49</ele>
        <time>2013-11-23T16:07:22Z</time>
      </trkpt>
      <trkpt lat="43.4583" lon="-0.6001">
        <ele>202.49</ele>
        <time>2013-11-23T16:07:23Z</time>
      </trkpt>
      <trkpt lat="43.45831" lon="-0.60027">
        <ele>203.46</ele>
        <time>2013-11-23T16:07:29Z</time>
      </trkpt>
      <trkpt lat="43.45831" lon="-0.6003">
        <ele>203.94</ele>
        <time>2013-11-23T16:07:30Z</time>
      </trkpt>
      <trkpt lat="43.45831" lon="-0.60033">
        <ele>203.46</ele>
        <time>2013-11-23T16:07:31Z</time>
      </trkpt>
      <trkpt lat="43.45832" lon="-0.60035">
        <ele>203.46</ele>
        <time>2013-11-23T16:07:32Z</time>
      </trkpt>
      <trkpt lat="43.45833" lon="-0.60038">
        <ele>203.94</ele>
        <time>2013-11-23T16:07:33Z</time>
      </trkpt>
      <trkpt lat="43.45834" lon="-0.6004">
        <ele>203.94</ele>
        <time>2013-11-23T16:07:34Z</time>
      </trkpt>
      <trkpt lat="43.45834" lon="-0.60042">
        <ele>203.94</ele>
        <time>2013-11-23T16:07:35Z</time>
      </trkpt>
      <trkpt lat="43.45835" lon="-0.60044">
        <ele>204.42</ele>
        <time>2013-11-23T16:07:36Z</time>
      </trkpt>
      <trkpt lat="43.45836" lon="-0.60046">
        <ele>204.42</ele>
        <time>2013-11-23T16:07:37Z</time>
      </trkpt>
      <trkpt lat="43.45866" lon="-0.60091">
        <ele>206.82</ele>
        <time>2013-11-23T16:07:57Z</time>
      </trkpt>
      <trkpt lat="43.45875" lon="-0.60104">
        <ele>207.3</ele>
        <time>2013-11-23T16:08:03Z</time>
      </trkpt>
      <trkpt lat="43.45876" lon="-0.60107">
        <ele>207.3</ele>
        <time>2013-11-23T16:08:04Z</time>
      </trkpt>
      <trkpt lat="43.45875" lon="-0.60109">
        <ele>207.78</ele>
        <time>2013-11-23T16:08:05Z</time>
      </trkpt>
      <trkpt lat="43.45873" lon="-0.60111">
        <ele>207.78</ele>
        <time>2013-11-23T16:08:06Z</time>
      </trkpt>
      <trkpt lat="43.45872" lon="-0.60112">
        <ele>207.78</ele>
        <time>2013-11-23T16:08:07Z</time>
      </trkpt>
      <trkpt lat="43.4587" lon="-0.60113">
        <ele>207.78</ele>
        <time>2013-11-23T16:08:09Z</time>
      </trkpt>
      <trkpt lat="43.45869" lon="-0.6011">
        <ele>207.78</ele>
        <time>2013-11-23T16:08:27Z</time>
      </trkpt>
      <trkpt lat="43.45868" lon="-0.60109">
        <ele>207.78</ele>
        <time>2013-11-23T16:08:28Z</time>
      </trkpt>
      <trkpt lat="43.45869" lon="-0.60108">
        <ele>207.78</ele>
        <time>2013-11-23T16:08:29Z</time>
      </trkpt>
      <trkpt lat="43.4587" lon="-0.60106">
        <ele>207.3</ele>
        <time>2013-11-23T16:08:30Z</time>
      </trkpt>
      <trkpt lat="43.45872" lon="-0.60105">
        <ele>207.78</ele>
        <time>2013-11-23T16:08:31Z</time>
      </trkpt>
      <trkpt lat="43.45874" lon="-0.60105">
        <ele>207.78</ele>
        <time>2013-11-23T16:08:32Z</time>
      </trkpt>
      <trkpt lat="43.45877" lon="-0.60106">
        <ele>207.78</ele>
        <time>2013-11-23T16:08:33Z</time>
      </trkpt>
      <trkpt lat="43.45881" lon="-0.60108">
        <ele>207.3</ele>
        <time>2013-11-23T16:08:34Z</time>
      </trkpt>
      <trkpt lat="43.45885" lon="-0.6011">
        <ele>207.3</ele>
        <time>2013-11-23T16:08:35Z</time>
      </trkpt>
      <trkpt lat="43.45888" lon="-0.60112">
        <ele>207.3</ele>
        <time>2013-11-23T16:08:36Z</time>
      </trkpt>
      <trkpt lat="43.4597" lon="-0.60131">
        <ele>205.86</ele>
        <time>2013-11-23T16:08:54Z</time>
      </trkpt>
      <trkpt lat="43.45975" lon="-0.60131">
        <ele>204.9</ele>
        <time>2013-11-23T16:08:55Z</time>
      </trkpt>
      <trkpt lat="43.4599" lon="-0.60131">
        <ele>205.38</ele>
        <time>2013-11-23T16:08:58Z</time>
      </trkpt>
      <trkpt lat="43.45994" lon="-0.60131">
        <ele>204.9</ele>
        <time>2013-11-23T16:08:59Z</time>
      </trkpt>
      <trkpt lat="43.46095" lon="-0.60123">
        <ele>205.38</ele>
        <time>2013-11-23T16:09:21Z</time>
      </trkpt>
      <trkpt lat="43.46112" lon="-0.60124">
        <ele>205.38</ele>
        <time>2013-11-23T16:09:25Z</time>
      </trkpt>
      <trkpt lat="43.46193" lon="-0.60151">
        <ele>207.78</ele>
        <time>2013-11-23T16:09:47Z</time>
      </trkpt>
      <trkpt lat="43.46274" lon="-0.60213">
        <ele>210.19</ele>
        <time>2013-11-23T16:10:12Z</time>
      </trkpt>
      <trkpt lat="43.46334" lon="-0.6028">
        <ele>210.19</ele>
        <time>2013-11-23T16:10:31Z</time>
      </trkpt>
      <trkpt lat="43.46369" lon="-0.60341">
        <ele>210.19</ele>
        <time>2013-11-23T16:10:44Z</time>
      </trkpt>
      <trkpt lat="43.46371" lon="-0.60346">
        <ele>209.7</ele>
        <time>2013-11-23T16:10:45Z</time>
      </trkpt>
      <trkpt lat="43.46375" lon="-0.60355">
        <ele>210.19</ele>
        <time>2013-11-23T16:10:47Z</time>
      </trkpt>
      <trkpt lat="43.4642" lon="-0.60433">
        <ele>211.15</ele>
        <time>2013-11-23T16:11:05Z</time>
      </trkpt>
      <trkpt lat="43.46459" lon="-0.60544">
        <ele>212.11</ele>
        <time>2013-11-23T16:11:27Z</time>
      </trkpt>
      <trkpt lat="43.46467" lon="-0.60579">
        <ele>212.11</ele>
        <time>2013-11-23T16:11:33Z</time>
      </trkpt>
      <trkpt lat="43.46469" lon="-0.60585">
        <ele>212.11</ele>
        <time>2013-11-23T16:11:34Z</time>
      </trkpt>
      <trkpt lat="43.46478" lon="-0.60616">
        <ele>211.15</ele>
        <time>2013-11-23T16:11:40Z</time>
      </trkpt>
      <trkpt lat="43.46492" lon="-0.60719">
        <ele>210.19</ele>
        <time>2013-11-23T16:11:57Z</time>
      </trkpt>
      <trkpt lat="43.46489" lon="-0.60803">
        <ele>209.7</ele>
        <time>2013-11-23T16:12:09Z</time>
      </trkpt>
      <trkpt lat="43.46488" lon="-0.60808">
        <ele>210.19</ele>
        <time>2013-11-23T16:12:10Z</time>
      </trkpt>
      <trkpt lat="43.46487" lon="-0.60814">
        <ele>210.67</ele>
        <time>2013-11-23T16:12:11Z</time>
      </trkpt>
      <trkpt lat="43.46487" lon="-0.6082">
        <ele>210.67</ele>
        <time>2013-11-23T16:12:12Z</time>
      </trkpt>
      <trkpt lat="43.46485" lon="-0.60827">
        <ele>210.67</ele>
        <time>2013-11-23T16:12:13Z</time>
      </trkpt>
      <trkpt lat="43.46484" lon="-0.60832">
        <ele>210.67</ele>
        <time>2013-11-23T16:12:14Z</time>
      </trkpt>
      <trkpt lat="43.46483" lon="-0.60837">
        <ele>210.19</ele>
        <time>2013-11-23T16:12:15Z</time>
      </trkpt>
      <trkpt lat="43.46474" lon="-0.60863">
        <ele>211.15</ele>
        <time>2013-11-23T16:12:20Z</time>
      </trkpt>
      <trkpt lat="43.46432" lon="-0.60965">
        <ele>211.15</ele>
        <time>2013-11-23T16:12:42Z</time>
      </trkpt>
      <trkpt lat="43.46425" lon="-0.61006">
        <ele>210.67</ele>
        <time>2013-11-23T16:12:49Z</time>
      </trkpt>
      <trkpt lat="43.46424" lon="-0.61024">
        <ele>210.67</ele>
        <time>2013-11-23T16:12:52Z</time>
      </trkpt>
      <trkpt lat="43.46424" lon="-0.6103">
        <ele>210.67</ele>
        <time>2013-11-23T16:12:53Z</time>
      </trkpt>
      <trkpt lat="43.46425" lon="-0.61036">
        <ele>210.67</ele>
        <time>2013-11-23T16:12:54Z</time>
      </trkpt>
      <trkpt lat="43.46425" lon="-0.61062">
        <ele>209.7</ele>
        <time>2013-11-23T16:12:58Z</time>
      </trkpt>
      <trkpt lat="43.46424" lon="-0.61068">
        <ele>209.7</ele>
        <time>2013-11-23T16:12:59Z</time>
      </trkpt>
      <trkpt lat="43.46419" lon="-0.61125">
        <ele>208.74</ele>
        <time>2013-11-23T16:13:08Z</time>
      </trkpt>
      <trkpt lat="43.46418" lon="-0.61132">
        <ele>208.26</ele>
        <time>2013-11-23T16:13:09Z</time>
      </trkpt>
      <trkpt lat="43.46418" lon="-0.61153">
        <ele>208.74</ele>
        <time>2013-11-23T16:13:12Z</time>
      </trkpt>
      <trkpt lat="43.46419" lon="-0.61167">
        <ele>207.78</ele>
        <time>2013-11-23T16:13:14Z</time>
      </trkpt>
      <trkpt lat="43.46435" lon="-0.61282">
        <ele>206.82</ele>
        <time>2013-11-23T16:13:32Z</time>
      </trkpt>
      <trkpt lat="43.46437" lon="-0.61315">
        <ele>206.82</ele>
        <time>2013-11-23T16:13:37Z</time>
      </trkpt>
      <trkpt lat="43.46442" lon="-0.61345">
        <ele>206.82</ele>
        <time>2013-11-23T16:13:42Z</time>
      </trkpt>
      <trkpt lat="43.46442" lon="-0.61352">
        <ele>207.78</ele>
        <time>2013-11-23T16:13:43Z</time>
      </trkpt>
      <trkpt lat="43.46442" lon="-0.61358">
        <ele>207.78</ele>
        <time>2013-11-23T16:13:44Z</time>
      </trkpt>
      <trkpt lat="43.46443" lon="-0.61364">
        <ele>207.78</ele>
        <time>2013-11-23T16:13:45Z</time>
      </trkpt>
      <trkpt lat="43.46443" lon="-0.6137">
        <ele>207.78</ele>
        <time>2013-11-23T16:13:46Z</time>
      </trkpt>
      <trkpt lat="43.46444" lon="-0.61376">
        <ele>207.78</ele>
        <time>2013-11-23T16:13:47Z</time>
      </trkpt>
      <trkpt lat="43.46444" lon="-0.61381">
        <ele>207.78</ele>
        <time>2013-11-23T16:13:48Z</time>
      </trkpt>
      <trkpt lat="43.46445" lon="-0.61385">
        <ele>208.26</ele>
        <time>2013-11-23T16:13:49Z</time>
      </trkpt>
      <trkpt lat="43.46446" lon="-0.61389">
        <ele>208.74</ele>
        <time>2013-11-23T16:13:50Z</time>
      </trkpt>
      <trkpt lat="43.46476" lon="-0.61461">
        <ele>211.63</ele>
        <time>2013-11-23T16:14:09Z</time>
      </trkpt>
      <trkpt lat="43.46499" lon="-0.6152">
        <ele>209.7</ele>
        <time>2013-11-23T16:14:24Z</time>
      </trkpt>
      <trkpt lat="43.46475" lon="-0.61575">
        <ele>208.26</ele>
        <time>2013-11-23T16:14:38Z</time>
      </trkpt>
      <trkpt lat="43.46467" lon="-0.61616">
        <ele>207.3</ele>
        <time>2013-11-23T16:14:51Z</time>
      </trkpt>
      <trkpt lat="43.46468" lon="-0.61662">
        <ele>207.3</ele>
        <time>2013-11-23T16:15:01Z</time>
      </trkpt>
      <trkpt lat="43.46468" lon="-0.61665">
        <ele>207.3</ele>
        <time>2013-11-23T16:15:02Z</time>
      </trkpt>
      <trkpt lat="43.46468" lon="-0.61668">
        <ele>207.3</ele>
        <time>2013-11-23T16:15:03Z</time>
      </trkpt>
      <trkpt lat="43.46468" lon="-0.6167">
        <ele>207.3</ele>
        <time>2013-11-23T16:15:04Z</time>
      </trkpt>
      <trkpt lat="43.46467" lon="-0.61676">
        <ele>206.82</ele>
        <time>2013-11-23T16:15:11Z</time>
      </trkpt>
      <trkpt lat="43.46467" lon="-0.61678">
        <ele>206.82</ele>
        <time>2013-11-23T16:15:12Z</time>
      </trkpt>
      <trkpt lat="43.46467" lon="-0.61678">
        <ele>206.82</ele>
        <time>2013-11-23T16:15:15Z</time>
      </trkpt>
      <trkpt lat="43.46467" lon="-0.61663">
        <ele>207.3</ele>
        <time>2013-11-23T16:15:20Z</time>
      </trkpt>
      <trkpt lat="43.46469" lon="-0.61635">
        <ele>207.3</ele>
        <time>2013-11-23T16:15:25Z</time>
      </trkpt>
      <trkpt lat="43.4647" lon="-0.6161">
        <ele>207.78</ele>
        <time>2013-11-23T16:15:29Z</time>
      </trkpt>
      <trkpt lat="43.46478" lon="-0.61564">
        <ele>208.26</ele>
        <time>2013-11-23T16:15:37Z</time>
      </trkpt>
      <trkpt lat="43.46479" lon="-0.6156">
        <ele>208.74</ele>
        <time>2013-11-23T16:15:38Z</time>
      </trkpt>
      <trkpt lat="43.46481" lon="-0.61555">
        <ele>208.74</ele>
        <time>2013-11-23T16:15:39Z</time>
      </trkpt>
      <trkpt lat="43.46494" lon="-0.61502">
        <ele>209.7</ele>
        <time>2013-11-23T16:15:56Z</time>
      </trkpt>
      <trkpt lat="43.46493" lon="-0.615">
        <ele>209.7</ele>
        <time>2013-11-23T16:15:58Z</time>
      </trkpt>
      <trkpt lat="43.46491" lon="-0.615">
        <ele>209.7</ele>
        <time>2013-11-23T16:15:59Z</time>
      </trkpt>
      <trkpt lat="43.4649" lon="-0.61499">
        <ele>209.7</ele>
        <time>2013-11-23T16:16:00Z</time>
      </trkpt>
      <trkpt lat="43.46489" lon="-0.61497">
        <ele>209.7</ele>
        <time>2013-11-23T16:16:01Z</time>
      </trkpt>
      <trkpt lat="43.46488" lon="-0.61495">
        <ele>209.7</ele>
        <time>2013-11-23T16:16:02Z</time>
      </trkpt>
      <trkpt lat="43.46488" lon="-0.61493">
        <ele>209.7</ele>
        <time>2013-11-23T16:16:03Z</time>
      </trkpt>
      <trkpt lat="43.46488" lon="-0.61488">
        <ele>209.7</ele>
        <time>2013-11-23T16:16:05Z</time>
      </trkpt>
      <trkpt lat="43.46488" lon="-0.61486">
        <ele>209.7</ele>
        <time>2013-11-23T16:16:06Z</time>
      </trkpt>
      <trkpt lat="43.46488" lon="-0.61484">
        <ele>209.7</ele>
        <time>2013-11-23T16:16:07Z</time>
      </trkpt>
      <trkpt lat="43.46488" lon="-0.61482">
        <ele>209.7</ele>
        <time>2013-11-23T16:16:08Z</time>
      </trkpt>
      <trkpt lat="43.46486" lon="-0.6148">
        <ele>210.19</ele>
        <time>2013-11-23T16:16:09Z</time>
      </trkpt>
      <trkpt lat="43.46483" lon="-0.61477">
        <ele>210.19</ele>
        <time>2013-11-23T16:16:10Z</time>
      </trkpt>
      <trkpt lat="43.46481" lon="-0.61472">
        <ele>210.19</ele>
        <time>2013-11-23T16:16:11Z</time>
      </trkpt>
      <trkpt lat="43.46479" lon="-0.61468">
        <ele>210.67</ele>
        <time>2013-11-23T16:16:12Z</time>
      </trkpt>
      <trkpt lat="43.46477" lon="-0.61465">
        <ele>210.67</ele>
        <time>2013-11-23T16:16:13Z</time>
      </trkpt>
      <trkpt lat="43.46475" lon="-0.61462">
        <ele>211.15</ele>
        <time>2013-11-23T16:16:14Z</time>
      </trkpt>
      <trkpt lat="43.46475" lon="-0.61459">
        <ele>211.15</ele>
        <time>2013-11-23T16:16:23Z</time>
      </trkpt>
      <trkpt lat="43.4648" lon="-0.61466">
        <ele>211.15</ele>
        <time>2013-11-23T16:16:27Z</time>
      </trkpt>
      <trkpt lat="43.46481" lon="-0.61469">
        <ele>211.15</ele>
        <time>2013-11-23T16:16:28Z</time>
      </trkpt>
      <trkpt lat="43.46483" lon="-0.61472">
        <ele>211.15</ele>
        <time>2013-11-23T16:16:29Z</time>
      </trkpt>
      <trkpt lat="43.46499" lon="-0.61521">
        <ele>209.22</ele>
        <time>2013-11-23T16:16:42Z</time>
      </trkpt>
      <trkpt lat="43.46497" lon="-0.61526">
        <ele>209.22</ele>
        <time>2013-11-23T16:16:43Z</time>
      </trkpt>
      <trkpt lat="43.46495" lon="-0.61531">
        <ele>209.22</ele>
        <time>2013-11-23T16:16:44Z</time>
      </trkpt>
      <trkpt lat="43.46476" lon="-0.61568">
        <ele>208.74</ele>
        <time>2013-11-23T16:16:51Z</time>
      </trkpt>
      <trkpt lat="43.46473" lon="-0.6158">
        <ele>208.26</ele>
        <time>2013-11-23T16:16:53Z</time>
      </trkpt>
      <trkpt lat="43.46472" lon="-0.61586">
        <ele>207.78</ele>
        <time>2013-11-23T16:16:54Z</time>
      </trkpt>
      <trkpt lat="43.46471" lon="-0.61591">
        <ele>208.26</ele>
        <time>2013-11-23T16:16:55Z</time>
      </trkpt>
      <trkpt lat="43.4647" lon="-0.61596">
        <ele>208.26</ele>
        <time>2013-11-23T16:16:56Z</time>
      </trkpt>
      <trkpt lat="43.46469" lon="-0.61603">
        <ele>207.78</ele>
        <time>2013-11-23T16:16:57Z</time>
      </trkpt>
      <trkpt lat="43.46468" lon="-0.61609">
        <ele>207.78</ele>
        <time>2013-11-23T16:16:58Z</time>
      </trkpt>
      <trkpt lat="43.46468" lon="-0.61616">
        <ele>207.78</ele>
        <time>2013-11-23T16:16:59Z</time>
      </trkpt>
      <trkpt lat="43.46466" lon="-0.61675">
        <ele>206.82</ele>
        <time>2013-11-23T16:17:10Z</time>
      </trkpt>
      <trkpt lat="43.46477" lon="-0.61803">
        <ele>208.26</ele>
        <time>2013-11-23T16:17:29Z</time>
      </trkpt>
      <trkpt lat="43.46482" lon="-0.6184">
        <ele>208.26</ele>
        <time>2013-11-23T16:17:35Z</time>
      </trkpt>
      <trkpt lat="43.46482" lon="-0.61846">
        <ele>208.26</ele>
        <time>2013-11-23T16:17:36Z</time>
      </trkpt>
      <trkpt lat="43.46483" lon="-0.61852">
        <ele>208.74</ele>
        <time>2013-11-23T16:17:37Z</time>
      </trkpt>
      <trkpt lat="43.46483" lon="-0.61858">
        <ele>208.74</ele>
        <time>2013-11-23T16:17:38Z</time>
      </trkpt>
      <trkpt lat="43.46484" lon="-0.61865">
        <ele>208.26</ele>
        <time>2013-11-23T16:17:39Z</time>
      </trkpt>
      <trkpt lat="43.46484" lon="-0.61906">
        <ele>207.3</ele>
        <time>2013-11-23T16:17:45Z</time>
      </trkpt>
      <trkpt lat="43.46479" lon="-0.62048">
        <ele>206.34</ele>
        <time>2013-11-23T16:18:05Z</time>
      </trkpt>
      <trkpt lat="43.46477" lon="-0.6207">
        <ele>206.34</ele>
        <time>2013-11-23T16:18:10Z</time>
      </trkpt>
      <trkpt lat="43.46475" lon="-0.62176">
        <ele>209.22</ele>
        <time>2013-11-23T16:18:33Z</time>
      </trkpt>
      <trkpt lat="43.46473" lon="-0.62219">
        <ele>212.59</ele>
        <time>2013-11-23T16:18:46Z</time>
      </trkpt>
      <trkpt lat="43.46478" lon="-0.62271">
        <ele>215.47</ele>
        <time>2013-11-23T16:19:06Z</time>
      </trkpt>
      <trkpt lat="43.4649" lon="-0.62325">
        <ele>216.91</ele>
        <time>2013-11-23T16:19:26Z</time>
      </trkpt>
      <trkpt lat="43.46502" lon="-0.62336">
        <ele>218.36</ele>
        <time>2013-11-23T16:19:35Z</time>
      </trkpt>
      <trkpt lat="43.46504" lon="-0.6234">
        <ele>218.36</ele>
        <time>2013-11-23T16:19:38Z</time>
      </trkpt>
      <trkpt lat="43.46504" lon="-0.62341">
        <ele>218.36</ele>
        <time>2013-11-23T16:19:39Z</time>
      </trkpt>
      <trkpt lat="43.46502" lon="-0.62343">
        <ele>218.36</ele>
        <time>2013-11-23T16:19:40Z</time>
      </trkpt>
      <trkpt lat="43.465" lon="-0.62344">
        <ele>218.36</ele>
        <time>2013-11-23T16:19:41Z</time>
      </trkpt>
      <trkpt lat="43.46498" lon="-0.62345">
        <ele>218.36</ele>
        <time>2013-11-23T16:19:42Z</time>
      </trkpt>
      <trkpt lat="43.46496" lon="-0.62347">
        <ele>217.88</ele>
        <time>2013-11-23T16:19:43Z</time>
      </trkpt>
      <trkpt lat="43.46494" lon="-0.6235">
        <ele>217.88</ele>
        <time>2013-11-23T16:19:44Z</time>
      </trkpt>
      <trkpt lat="43.46493" lon="-0.62354">
        <ele>217.88</ele>
        <time>2013-11-23T16:19:45Z</time>
      </trkpt>
      <trkpt lat="43.46492" lon="-0.62358">
        <ele>217.88</ele>
        <time>2013-11-23T16:19:46Z</time>
      </trkpt>
      <trkpt lat="43.46493" lon="-0.62363">
        <ele>217.88</ele>
        <time>2013-11-23T16:19:47Z</time>
      </trkpt>
      <trkpt lat="43.46493" lon="-0.62368">
        <ele>217.88</ele>
        <time>2013-11-23T16:19:48Z</time>
      </trkpt>
      <trkpt lat="43.46495" lon="-0.62373">
        <ele>218.36</ele>
        <time>2013-11-23T16:19:49Z</time>
      </trkpt>
      <trkpt lat="43.46511" lon="-0.62457">
        <ele>220.76</ele>
        <time>2013-11-23T16:20:12Z</time>
      </trkpt>
      <trkpt lat="43.46513" lon="-0.62465">
        <ele>220.76</ele>
        <time>2013-11-23T16:20:26Z</time>
      </trkpt>
      <trkpt lat="43.46514" lon="-0.62467">
        <ele>220.76</ele>
        <time>2013-11-23T16:20:30Z</time>
      </trkpt>
      <trkpt lat="43.46513" lon="-0.62468">
        <ele>220.76</ele>
        <time>2013-11-23T16:20:32Z</time>
      </trkpt>
      <trkpt lat="43.46511" lon="-0.62468">
        <ele>220.76</ele>
        <time>2013-11-23T16:20:33Z</time>
      </trkpt>
      <trkpt lat="43.46509" lon="-0.62465">
        <ele>220.76</ele>
        <time>2013-11-23T16:20:34Z</time>
      </trkpt>
      <trkpt lat="43.46508" lon="-0.62462">
        <ele>220.76</ele>
        <time>2013-11-23T16:20:35Z</time>
      </trkpt>
      <trkpt lat="43.46507" lon="-0.62457">
        <ele>220.76</ele>
        <time>2013-11-23T16:20:36Z</time>
      </trkpt>
      <trkpt lat="43.46505" lon="-0.62453">
        <ele>220.76</ele>
        <time>2013-11-23T16:20:37Z</time>
      </trkpt>
      <trkpt lat="43.46504" lon="-0.62448">
        <ele>220.28</ele>
        <time>2013-11-23T16:20:38Z</time>
      </trkpt>
      <trkpt lat="43.46503" lon="-0.62443">
        <ele>219.8</ele>
        <time>2013-11-23T16:20:39Z</time>
      </trkpt>
      <trkpt lat="43.46502" lon="-0.62437">
        <ele>219.8</ele>
        <time>2013-11-23T16:20:40Z</time>
      </trkpt>
      <trkpt lat="43.46501" lon="-0.62433">
        <ele>220.28</ele>
        <time>2013-11-23T16:20:41Z</time>
      </trkpt>
      <trkpt lat="43.465" lon="-0.62428">
        <ele>220.28</ele>
        <time>2013-11-23T16:20:42Z</time>
      </trkpt>
      <trkpt lat="43.46497" lon="-0.62402">
        <ele>219.32</ele>
        <time>2013-11-23T16:20:48Z</time>
      </trkpt>
      <trkpt lat="43.46497" lon="-0.62396">
        <ele>218.84</ele>
        <time>2013-11-23T16:20:49Z</time>
      </trkpt>
      <trkpt lat="43.46495" lon="-0.62389">
        <ele>218.84</ele>
        <time>2013-11-23T16:20:50Z</time>
      </trkpt>
      <trkpt lat="43.46494" lon="-0.62382">
        <ele>218.84</ele>
        <time>2013-11-23T16:20:51Z</time>
      </trkpt>
      <trkpt lat="43.46493" lon="-0.62376">
        <ele>218.36</ele>
        <time>2013-11-23T16:20:52Z</time>
      </trkpt>
      <trkpt lat="43.46491" lon="-0.62337">
        <ele>217.88</ele>
        <time>2013-11-23T16:20:59Z</time>
      </trkpt>
      <trkpt lat="43.46494" lon="-0.62334">
        <ele>217.88</ele>
        <time>2013-11-23T16:21:00Z</time>
      </trkpt>
      <trkpt lat="43.46498" lon="-0.62334">
        <ele>218.36</ele>
        <time>2013-11-23T16:21:01Z</time>
      </trkpt>
      <trkpt lat="43.46502" lon="-0.62335">
        <ele>218.36</ele>
        <time>2013-11-23T16:21:02Z</time>
      </trkpt>
      <trkpt lat="43.46505" lon="-0.62337">
        <ele>218.36</ele>
        <time>2013-11-23T16:21:03Z</time>
      </trkpt>
      <trkpt lat="43.46508" lon="-0.6234">
        <ele>218.84</ele>
        <time>2013-11-23T16:21:04Z</time>
      </trkpt>
      <trkpt lat="43.46511" lon="-0.62342">
        <ele>218.36</ele>
        <time>2013-11-23T16:21:05Z</time>
      </trkpt>
      <trkpt lat="43.46528" lon="-0.6236">
        <ele>221.72</ele>
        <time>2013-11-23T16:21:12Z</time>
      </trkpt>
      <trkpt lat="43.4653" lon="-0.62363">
        <ele>221.72</ele>
        <time>2013-11-23T16:21:13Z</time>
      </trkpt>
      <trkpt lat="43.46558" lon="-0.62381">
        <ele>224.61</ele>
        <time>2013-11-23T16:21:24Z</time>
      </trkpt>
      <trkpt lat="43.46611" lon="-0.62402">
        <ele>226.53</ele>
        <time>2013-11-23T16:21:47Z</time>
      </trkpt>
      <trkpt lat="43.46614" lon="-0.624">
        <ele>227.01</ele>
        <time>2013-11-23T16:22:06Z</time>
      </trkpt>
      <trkpt lat="43.46616" lon="-0.62401">
        <ele>227.01</ele>
        <time>2013-11-23T16:22:31Z</time>
      </trkpt>
      <trkpt lat="43.46629" lon="-0.62411">
        <ele>227.01</ele>
        <time>2013-11-23T16:22:56Z</time>
      </trkpt>
      <trkpt lat="43.46682" lon="-0.6243">
        <ele>224.61</ele>
        <time>2013-11-23T16:23:14Z</time>
      </trkpt>
      <trkpt lat="43.46713" lon="-0.62436">
        <ele>221.24</ele>
        <time>2013-11-23T16:23:20Z</time>
      </trkpt>
      <trkpt lat="43.46745" lon="-0.62441">
        <ele>218.36</ele>
        <time>2013-11-23T16:23:25Z</time>
      </trkpt>
      <trkpt lat="43.46777" lon="-0.62447">
        <ele>216.43</ele>
        <time>2013-11-23T16:23:29Z</time>
      </trkpt>
      <trkpt lat="43.46826" lon="-0.6246">
        <ele>213.07</ele>
        <time>2013-11-23T16:23:35Z</time>
      </trkpt>
      <trkpt lat="43.46863" lon="-0.62479">
        <ele>212.11</ele>
        <time>2013-11-23T16:23:40Z</time>
      </trkpt>
      <trkpt lat="43.46894" lon="-0.625">
        <ele>211.63</ele>
        <time>2013-11-23T16:23:45Z</time>
      </trkpt>
      <trkpt lat="43.46902" lon="-0.62505">
        <ele>211.15</ele>
        <time>2013-11-23T16:23:47Z</time>
      </trkpt>
      <trkpt lat="43.46905" lon="-0.62503">
        <ele>210.19</ele>
        <time>2013-11-23T16:23:48Z</time>
      </trkpt>
      <trkpt lat="43.46907" lon="-0.62499">
        <ele>210.67</ele>
        <time>2013-11-23T16:23:49Z</time>
      </trkpt>
      <trkpt lat="43.46909" lon="-0.62496">
        <ele>211.15</ele>
        <time>2013-11-23T16:23:50Z</time>
      </trkpt>
      <trkpt lat="43.4691" lon="-0.62493">
        <ele>210.19</ele>
        <time>2013-11-23T16:23:51Z</time>
      </trkpt>
      <trkpt lat="43.46911" lon="-0.62491">
        <ele>210.67</ele>
        <time>2013-11-23T16:23:52Z</time>
      </trkpt>
      <trkpt lat="43.46911" lon="-0.62488">
        <ele>211.15</ele>
        <time>2013-11-23T16:23:53Z</time>
      </trkpt>
      <trkpt lat="43.46913" lon="-0.62485">
        <ele>210.67</ele>
        <time>2013-11-23T16:23:54Z</time>
      </trkpt>
      <trkpt lat="43.46924" lon="-0.62458">
        <ele>210.67</ele>
        <time>2013-11-23T16:24:04Z</time>
      </trkpt>
      <trkpt lat="43.46924" lon="-0.62456">
        <ele>210.19</ele>
        <time>2013-11-23T16:24:05Z</time>
      </trkpt>
      <trkpt lat="43.46925" lon="-0.62454">
        <ele>210.19</ele>
        <time>2013-11-23T16:24:06Z</time>
      </trkpt>
      <trkpt lat="43.46926" lon="-0.62451">
        <ele>210.19</ele>
        <time>2013-11-23T16:24:07Z</time>
      </trkpt>
      <trkpt lat="43.46927" lon="-0.62448">
        <ele>210.67</ele>
        <time>2013-11-23T16:24:08Z</time>
      </trkpt>
      <trkpt lat="43.46928" lon="-0.62446">
        <ele>210.19</ele>
        <time>2013-11-23T16:24:09Z</time>
      </trkpt>
      <trkpt lat="43.46944" lon="-0.62414">
        <ele>209.7</ele>
        <time>2013-11-23T16:24:24Z</time>
      </trkpt>
      <trkpt lat="43.46945" lon="-0.62412">
        <ele>209.7</ele>
        <time>2013-11-23T16:24:25Z</time>
      </trkpt>
      <trkpt lat="43.46947" lon="-0.62411">
        <ele>209.22</ele>
        <time>2013-11-23T16:24:26Z</time>
      </trkpt>
      <trkpt lat="43.46948" lon="-0.62409">
        <ele>209.22</ele>
        <time>2013-11-23T16:24:27Z</time>
      </trkpt>
      <trkpt lat="43.46949" lon="-0.62407">
        <ele>210.19</ele>
        <time>2013-11-23T16:24:28Z</time>
      </trkpt>
      <trkpt lat="43.46957" lon="-0.62384">
        <ele>208.74</ele>
        <time>2013-11-23T16:24:43Z</time>
      </trkpt>
      <trkpt lat="43.46961" lon="-0.62377">
        <ele>209.7</ele>
        <time>2013-11-23T16:25:02Z</time>
      </trkpt>
      <trkpt lat="43.46965" lon="-0.62367">
        <ele>209.7</ele>
        <time>2013-11-23T16:25:07Z</time>
      </trkpt>
      <trkpt lat="43.46966" lon="-0.62365">
        <ele>208.74</ele>
        <time>2013-11-23T16:25:08Z</time>
      </trkpt>
      <trkpt lat="43.46966" lon="-0.62363">
        <ele>209.22</ele>
        <time>2013-11-23T16:25:09Z</time>
      </trkpt>
      <trkpt lat="43.46967" lon="-0.62361">
        <ele>209.22</ele>
        <time>2013-11-23T16:25:10Z</time>
      </trkpt>
      <trkpt lat="43.46968" lon="-0.62359">
        <ele>209.22</ele>
        <time>2013-11-23T16:25:11Z</time>
      </trkpt>
      <trkpt lat="43.4699" lon="-0.62312">
        <ele>208.26</ele>
        <time>2013-11-23T16:25:33Z</time>
      </trkpt>
      <trkpt lat="43.47008" lon="-0.62288">
        <ele>208.26</ele>
        <time>2013-11-23T16:25:53Z</time>
      </trkpt>
      <trkpt lat="43.47008" lon="-0.62288">
        <ele>207.78</ele>
        <time>2013-11-23T16:26:29Z</time>
      </trkpt>
      <trkpt lat="43.47009" lon="-0.62289">
        <ele>207.78</ele>
        <time>2013-11-23T16:27:12Z</time>
      </trkpt>
      <trkpt lat="43.47007" lon="-0.62287">
        <ele>207.78</ele>
        <time>2013-11-23T16:27:59Z</time>
      </trkpt>
      <trkpt lat="43.47009" lon="-0.62287">
        <ele>207.78</ele>
        <time>2013-11-23T16:28:30Z</time>
      </trkpt>
      <trkpt lat="43.4701" lon="-0.62285">
        <ele>207.78</ele>
        <time>2013-11-23T16:28:31Z</time>
      </trkpt>
      <trkpt lat="43.47011" lon="-0.62284">
        <ele>207.3</ele>
        <time>2013-11-23T16:28:32Z</time>
      </trkpt>
      <trkpt lat="43.47013" lon="-0.62284">
        <ele>207.3</ele>
        <time>2013-11-23T16:28:33Z</time>
      </trkpt>
      <trkpt lat="43.47015" lon="-0.62283">
        <ele>207.3</ele>
        <time>2013-11-23T16:28:34Z</time>
      </trkpt>
      <trkpt lat="43.47028" lon="-0.62267">
        <ele>205.86</ele>
        <time>2013-11-23T16:28:44Z</time>
      </trkpt>
      <trkpt lat="43.4703" lon="-0.62265">
        <ele>204.9</ele>
        <time>2013-11-23T16:28:45Z</time>
      </trkpt>
      <trkpt lat="43.47032" lon="-0.62263">
        <ele>204.42</ele>
        <time>2013-11-23T16:28:46Z</time>
      </trkpt>
      <trkpt lat="43.47035" lon="-0.62261">
        <ele>203.94</ele>
        <time>2013-11-23T16:28:47Z</time>
      </trkpt>
      <trkpt lat="43.47037" lon="-0.62259">
        <ele>203.94</ele>
        <time>2013-11-23T16:28:48Z</time>
      </trkpt>
      <trkpt lat="43.47074" lon="-0.62237">
        <ele>203.46</ele>
        <time>2013-11-23T16:29:02Z</time>
      </trkpt>
      <trkpt lat="43.47118" lon="-0.62214">
        <ele>202.98</ele>
        <time>2013-11-23T16:29:17Z</time>
      </trkpt>
      <trkpt lat="43.4716" lon="-0.62193">
        <ele>201.05</ele>
        <time>2013-11-23T16:29:31Z</time>
      </trkpt>
      <trkpt lat="43.47191" lon="-0.62151">
        <ele>197.69</ele>
        <time>2013-11-23T16:29:40Z</time>
      </trkpt>
      <trkpt lat="43.47194" lon="-0.62146">
        <ele>197.69</ele>
        <time>2013-11-23T16:29:41Z</time>
      </trkpt>
      <trkpt lat="43.47251" lon="-0.62073">
        <ele>195.77</ele>
        <time>2013-11-23T16:30:00Z</time>
      </trkpt>
      <trkpt lat="43.4729" lon="-0.62018">
        <ele>195.77</ele>
        <time>2013-11-23T16:30:15Z</time>
      </trkpt>
      <trkpt lat="43.47309" lon="-0.61989">
        <ele>194.32</ele>
        <time>2013-11-23T16:30:24Z</time>
      </trkpt>
      <trkpt lat="43.47318" lon="-0.6196">
        <ele>192.4</ele>
        <time>2013-11-23T16:30:39Z</time>
      </trkpt>
      <trkpt lat="43.47323" lon="-0.61952">
        <ele>191.92</ele>
        <time>2013-11-23T16:30:43Z</time>
      </trkpt>
      <trkpt lat="43.4733" lon="-0.61952">
        <ele>191.92</ele>
        <time>2013-11-23T16:30:48Z</time>
      </trkpt>
      <trkpt lat="43.47364" lon="-0.6197">
        <ele>188.56</ele>
        <time>2013-11-23T16:31:07Z</time>
      </trkpt>
      <trkpt lat="43.47366" lon="-0.61972">
        <ele>188.08</ele>
        <time>2013-11-23T16:31:08Z</time>
      </trkpt>
      <trkpt lat="43.47371" lon="-0.61977">
        <ele>187.11</ele>
        <time>2013-11-23T16:31:10Z</time>
      </trkpt>
      <trkpt lat="43.47373" lon="-0.61979">
        <ele>186.63</ele>
        <time>2013-11-23T16:31:11Z</time>
      </trkpt>
      <trkpt lat="43.47381" lon="-0.61981">
        <ele>184.23</ele>
        <time>2013-11-23T16:31:14Z</time>
      </trkpt>
      <trkpt lat="43.47383" lon="-0.61979">
        <ele>182.79</ele>
        <time>2013-11-23T16:31:15Z</time>
      </trkpt>
      <trkpt lat="43.47396" lon="-0.61967">
        <ele>179.9</ele>
        <time>2013-11-23T16:31:22Z</time>
      </trkpt>
      <trkpt lat="43.47396" lon="-0.61965">
        <ele>179.9</ele>
        <time>2013-11-23T16:31:23Z</time>
      </trkpt>
      <trkpt lat="43.47399" lon="-0.61964">
        <ele>178.46</ele>
        <time>2013-11-23T16:31:25Z</time>
      </trkpt>
      <trkpt lat="43.47405" lon="-0.61966">
        <ele>177.5</ele>
        <time>2013-11-23T16:31:28Z</time>
      </trkpt>
      <trkpt lat="43.47413" lon="-0.6196">
        <ele>175.1</ele>
        <time>2013-11-23T16:31:32Z</time>
      </trkpt>
      <trkpt lat="43.47419" lon="-0.61945">
        <ele>173.17</ele>
        <time>2013-11-23T16:31:36Z</time>
      </trkpt>
      <trkpt lat="43.47422" lon="-0.61933">
        <ele>170.29</ele>
        <time>2013-11-23T16:31:40Z</time>
      </trkpt>
      <trkpt lat="43.47425" lon="-0.6192">
        <ele>168.37</ele>
        <time>2013-11-23T16:31:44Z</time>
      </trkpt>
      <trkpt lat="43.47426" lon="-0.61917">
        <ele>166.93</ele>
        <time>2013-11-23T16:31:45Z</time>
      </trkpt>
      <trkpt lat="43.4743" lon="-0.61909">
        <ele>166.45</ele>
        <time>2013-11-23T16:31:48Z</time>
      </trkpt>
      <trkpt lat="43.47439" lon="-0.61905">
        <ele>164.52</ele>
        <time>2013-11-23T16:31:52Z</time>
      </trkpt>
      <trkpt lat="43.47464" lon="-0.61927">
        <ele>160.2</ele>
        <time>2013-11-23T16:32:00Z</time>
      </trkpt>
      <trkpt lat="43.47478" lon="-0.61932">
        <ele>156.83</ele>
        <time>2013-11-23T16:32:07Z</time>
      </trkpt>
      <trkpt lat="43.47485" lon="-0.61933">
        <ele>156.35</ele>
        <time>2013-11-23T16:32:12Z</time>
      </trkpt>
      <trkpt lat="43.47498" lon="-0.6194">
        <ele>153.47</ele>
        <time>2013-11-23T16:32:18Z</time>
      </trkpt>
      <trkpt lat="43.475" lon="-0.61942">
        <ele>152.99</ele>
        <time>2013-11-23T16:32:19Z</time>
      </trkpt>
      <trkpt lat="43.4752" lon="-0.61945">
        <ele>148.66</ele>
        <time>2013-11-23T16:32:26Z</time>
      </trkpt>
      <trkpt lat="43.47521" lon="-0.61945">
        <ele>148.66</ele>
        <time>2013-11-23T16:32:27Z</time>
      </trkpt>
      <trkpt lat="43.47528" lon="-0.61943">
        <ele>147.7</ele>
        <time>2013-11-23T16:32:31Z</time>
      </trkpt>
      <trkpt lat="43.47544" lon="-0.61939">
        <ele>145.3</ele>
        <time>2013-11-23T16:32:48Z</time>
      </trkpt>
      <trkpt lat="43.4756" lon="-0.6194">
        <ele>145.78</ele>
        <time>2013-11-23T16:33:07Z</time>
      </trkpt>
      <trkpt lat="43.47561" lon="-0.61936">
        <ele>145.78</ele>
        <time>2013-11-23T16:33:11Z</time>
      </trkpt>
      <trkpt lat="43.47571" lon="-0.61926">
        <ele>143.37</ele>
        <time>2013-11-23T16:33:17Z</time>
      </trkpt>
      <trkpt lat="43.47593" lon="-0.61906">
        <ele>141.45</ele>
        <time>2013-11-23T16:33:28Z</time>
      </trkpt>
      <trkpt lat="43.47604" lon="-0.61889">
        <ele>140.49</ele>
        <time>2013-11-23T16:33:45Z</time>
      </trkpt>
      <trkpt lat="43.47606" lon="-0.61888">
        <ele>140.01</ele>
        <time>2013-11-23T16:33:49Z</time>
      </trkpt>
      <trkpt lat="43.47625" lon="-0.6185">
        <ele>139.53</ele>
        <time>2013-11-23T16:34:06Z</time>
      </trkpt>
      <trkpt lat="43.47634" lon="-0.61808">
        <ele>139.05</ele>
        <time>2013-11-23T16:34:14Z</time>
      </trkpt>
      <trkpt lat="43.47648" lon="-0.61773">
        <ele>138.57</ele>
        <time>2013-11-23T16:34:21Z</time>
      </trkpt>
      <trkpt lat="43.47652" lon="-0.61769">
        <ele>138.57</ele>
        <time>2013-11-23T16:34:22Z</time>
      </trkpt>
      <trkpt lat="43.47655" lon="-0.61766">
        <ele>138.57</ele>
        <time>2013-11-23T16:34:23Z</time>
      </trkpt>
      <trkpt lat="43.47659" lon="-0.61763">
        <ele>138.09</ele>
        <time>2013-11-23T16:34:24Z</time>
      </trkpt>
      <trkpt lat="43.47663" lon="-0.61761">
        <ele>138.09</ele>
        <time>2013-11-23T16:34:25Z</time>
      </trkpt>
      <trkpt lat="43.47668" lon="-0.6176">
        <ele>138.57</ele>
        <time>2013-11-23T16:34:26Z</time>
      </trkpt>
      <trkpt lat="43.47673" lon="-0.61759">
        <ele>138.09</ele>
        <time>2013-11-23T16:34:27Z</time>
      </trkpt>
      <trkpt lat="43.47678" lon="-0.61757">
        <ele>138.57</ele>
        <time>2013-11-23T16:34:28Z</time>
      </trkpt>
      <trkpt lat="43.47683" lon="-0.61756">
        <ele>138.09</ele>
        <time>2013-11-23T16:34:29Z</time>
      </trkpt>
      <trkpt lat="43.47688" lon="-0.61755">
        <ele>137.61</ele>
        <time>2013-11-23T16:34:30Z</time>
      </trkpt>
      <trkpt lat="43.47698" lon="-0.61752">
        <ele>136.64</ele>
        <time>2013-11-23T16:34:32Z</time>
      </trkpt>
      <trkpt lat="43.47703" lon="-0.6175">
        <ele>137.13</ele>
        <time>2013-11-23T16:34:33Z</time>
      </trkpt>
      <trkpt lat="43.47712" lon="-0.61745">
        <ele>136.64</ele>
        <time>2013-11-23T16:34:35Z</time>
      </trkpt>
      <trkpt lat="43.47716" lon="-0.61741">
        <ele>136.64</ele>
        <time>2013-11-23T16:34:36Z</time>
      </trkpt>
      <trkpt lat="43.47724" lon="-0.61734">
        <ele>136.64</ele>
        <time>2013-11-23T16:34:38Z</time>
      </trkpt>
      <trkpt lat="43.47729" lon="-0.61731">
        <ele>136.64</ele>
        <time>2013-11-23T16:34:39Z</time>
      </trkpt>
      <trkpt lat="43.47733" lon="-0.61728">
        <ele>136.64</ele>
        <time>2013-11-23T16:34:40Z</time>
      </trkpt>
      <trkpt lat="43.47737" lon="-0.61724">
        <ele>136.64</ele>
        <time>2013-11-23T16:34:41Z</time>
      </trkpt>
      <trkpt lat="43.4774" lon="-0.61718">
        <ele>136.64</ele>
        <time>2013-11-23T16:34:42Z</time>
      </trkpt>
      <trkpt lat="43.47743" lon="-0.61711">
        <ele>136.64</ele>
        <time>2013-11-23T16:34:43Z</time>
      </trkpt>
      <trkpt lat="43.47744" lon="-0.61703">
        <ele>135.68</ele>
        <time>2013-11-23T16:34:44Z</time>
      </trkpt>
      <trkpt lat="43.47745" lon="-0.61695">
        <ele>136.16</ele>
        <time>2013-11-23T16:34:45Z</time>
      </trkpt>
      <trkpt lat="43.47746" lon="-0.61687">
        <ele>135.68</ele>
        <time>2013-11-23T16:34:46Z</time>
      </trkpt>
      <trkpt lat="43.47747" lon="-0.61678">
        <ele>135.2</ele>
        <time>2013-11-23T16:34:47Z</time>
      </trkpt>
      <trkpt lat="43.47777" lon="-0.61536">
        <ele>132.8</ele>
        <time>2013-11-23T16:35:06Z</time>
      </trkpt>
      <trkpt lat="43.47778" lon="-0.61494">
        <ele>132.32</ele>
        <time>2013-11-23T16:35:11Z</time>
      </trkpt>
      <trkpt lat="43.47782" lon="-0.61351">
        <ele>128.95</ele>
        <time>2013-11-23T16:35:29Z</time>
      </trkpt>
      <trkpt lat="43.47807" lon="-0.61228">
        <ele>127.51</ele>
        <time>2013-11-23T16:35:50Z</time>
      </trkpt>
      <trkpt lat="43.47807" lon="-0.61227">
        <ele>127.51</ele>
        <time>2013-11-23T16:35:51Z</time>
      </trkpt>
      <trkpt lat="43.47807" lon="-0.61225">
        <ele>127.51</ele>
        <time>2013-11-23T16:35:52Z</time>
      </trkpt>
      <trkpt lat="43.47808" lon="-0.61222">
        <ele>127.99</ele>
        <time>2013-11-23T16:35:53Z</time>
      </trkpt>
      <trkpt lat="43.47808" lon="-0.61219">
        <ele>127.99</ele>
        <time>2013-11-23T16:35:54Z</time>
      </trkpt>
      <trkpt lat="43.47809" lon="-0.61216">
        <ele>127.51</ele>
        <time>2013-11-23T16:35:55Z</time>
      </trkpt>
      <trkpt lat="43.47812" lon="-0.61214">
        <ele>127.51</ele>
        <time>2013-11-23T16:35:56Z</time>
      </trkpt>
      <trkpt lat="43.47814" lon="-0.61213">
        <ele>127.51</ele>
        <time>2013-11-23T16:35:57Z</time>
      </trkpt>
      <trkpt lat="43.47817" lon="-0.61212">
        <ele>127.51</ele>
        <time>2013-11-23T16:35:58Z</time>
      </trkpt>
      <trkpt lat="43.47893" lon="-0.61175">
        <ele>126.55</ele>
        <time>2013-11-23T16:36:16Z</time>
      </trkpt>
      <trkpt lat="43.47908" lon="-0.61168">
        <ele>126.07</ele>
        <time>2013-11-23T16:36:19Z</time>
      </trkpt>
      <trkpt lat="43.47914" lon="-0.61168">
        <ele>126.55</ele>
        <time>2013-11-23T16:36:20Z</time>
      </trkpt>
      <trkpt lat="43.47919" lon="-0.61167">
        <ele>126.55</ele>
        <time>2013-11-23T16:36:21Z</time>
      </trkpt>
      <trkpt lat="43.47925" lon="-0.61166">
        <ele>126.07</ele>
        <time>2013-11-23T16:36:22Z</time>
      </trkpt>
      <trkpt lat="43.4793" lon="-0.61164">
        <ele>126.55</ele>
        <time>2013-11-23T16:36:23Z</time>
      </trkpt>
      <trkpt lat="43.47936" lon="-0.61162">
        <ele>126.07</ele>
        <time>2013-11-23T16:36:24Z</time>
      </trkpt>
      <trkpt lat="43.47969" lon="-0.61149">
        <ele>125.11</ele>
        <time>2013-11-23T16:36:31Z</time>
      </trkpt>
      <trkpt lat="43.47973" lon="-0.61147">
        <ele>125.11</ele>
        <time>2013-11-23T16:36:32Z</time>
      </trkpt>
      <trkpt lat="43.47977" lon="-0.61147">
        <ele>124.63</ele>
        <time>2013-11-23T16:36:33Z</time>
      </trkpt>
      <trkpt lat="43.4798" lon="-0.61148">
        <ele>125.11</ele>
        <time>2013-11-23T16:36:34Z</time>
      </trkpt>
      <trkpt lat="43.47983" lon="-0.61151">
        <ele>124.63</ele>
        <time>2013-11-23T16:36:35Z</time>
      </trkpt>
      <trkpt lat="43.47984" lon="-0.61156">
        <ele>125.11</ele>
        <time>2013-11-23T16:36:36Z</time>
      </trkpt>
      <trkpt lat="43.47986" lon="-0.61162">
        <ele>125.11</ele>
        <time>2013-11-23T16:36:37Z</time>
      </trkpt>
      <trkpt lat="43.47987" lon="-0.61167">
        <ele>125.11</ele>
        <time>2013-11-23T16:36:38Z</time>
      </trkpt>
      <trkpt lat="43.4799" lon="-0.61172">
        <ele>125.59</ele>
        <time>2013-11-23T16:36:39Z</time>
      </trkpt>
      <trkpt lat="43.47993" lon="-0.61178">
        <ele>125.11</ele>
        <time>2013-11-23T16:36:40Z</time>
      </trkpt>
      <trkpt lat="43.47997" lon="-0.61183">
        <ele>125.11</ele>
        <time>2013-11-23T16:36:41Z</time>
      </trkpt>
      <trkpt lat="43.48023" lon="-0.61221">
        <ele>124.63</ele>
        <time>2013-11-23T16:36:49Z</time>
      </trkpt>
      <trkpt lat="43.48104" lon="-0.61303">
        <ele>124.15</ele>
        <time>2013-11-23T16:37:14Z</time>
      </trkpt>
      <trkpt lat="43.48191" lon="-0.61374">
        <ele>124.63</ele>
        <time>2013-11-23T16:37:39Z</time>
      </trkpt>
      <trkpt lat="43.48257" lon="-0.61462">
        <ele>123.67</ele>
        <time>2013-11-23T16:38:00Z</time>
      </trkpt>
      <trkpt lat="43.4826" lon="-0.61467">
        <ele>123.67</ele>
        <time>2013-11-23T16:38:01Z</time>
      </trkpt>
      <trkpt lat="43.48265" lon="-0.61477">
        <ele>124.15</ele>
        <time>2013-11-23T16:38:03Z</time>
      </trkpt>
      <trkpt lat="43.48267" lon="-0.61481">
        <ele>124.15</ele>
        <time>2013-11-23T16:38:04Z</time>
      </trkpt>
      <trkpt lat="43.48269" lon="-0.61486">
        <ele>124.15</ele>
        <time>2013-11-23T16:38:05Z</time>
      </trkpt>
      <trkpt lat="43.48272" lon="-0.61491">
        <ele>124.63</ele>
        <time>2013-11-23T16:38:06Z</time>
      </trkpt>
      <trkpt lat="43.48274" lon="-0.61496">
        <ele>124.63</ele>
        <time>2013-11-23T16:38:07Z</time>
      </trkpt>
      <trkpt lat="43.48276" lon="-0.615">
        <ele>124.63</ele>
        <time>2013-11-23T16:38:08Z</time>
      </trkpt>
      <trkpt lat="43.48278" lon="-0.61505">
        <ele>124.63</ele>
        <time>2013-11-23T16:38:09Z</time>
      </trkpt>
      <trkpt lat="43.48292" lon="-0.61527">
        <ele>124.63</ele>
        <time>2013-11-23T16:38:14Z</time>
      </trkpt>
      <trkpt lat="43.48335" lon="-0.61582">
        <ele>124.63</ele>
        <time>2013-11-23T16:38:27Z</time>
      </trkpt>
      <trkpt lat="43.48411" lon="-0.61685">
        <ele>123.67</ele>
        <time>2013-11-23T16:38:48Z</time>
      </trkpt>
      <trkpt lat="43.48422" lon="-0.61699">
        <ele>123.67</ele>
        <time>2013-11-23T16:38:51Z</time>
      </trkpt>
      <trkpt lat="43.48426" lon="-0.61703">
        <ele>123.67</ele>
        <time>2013-11-23T16:38:52Z</time>
      </trkpt>
      <trkpt lat="43.48478" lon="-0.61738">
        <ele>123.67</ele>
        <time>2013-11-23T16:39:04Z</time>
      </trkpt>
      <trkpt lat="43.48508" lon="-0.61762">
        <ele>123.19</ele>
        <time>2013-11-23T16:39:11Z</time>
      </trkpt>
      <trkpt lat="43.48512" lon="-0.61766">
        <ele>123.19</ele>
        <time>2013-11-23T16:39:12Z</time>
      </trkpt>
      <trkpt lat="43.48515" lon="-0.6177">
        <ele>122.71</ele>
        <time>2013-11-23T16:39:13Z</time>
      </trkpt>
      <trkpt lat="43.48519" lon="-0.61773">
        <ele>122.71</ele>
        <time>2013-11-23T16:39:14Z</time>
      </trkpt>
      <trkpt lat="43.48523" lon="-0.61776">
        <ele>123.19</ele>
        <time>2013-11-23T16:39:15Z</time>
      </trkpt>
      <trkpt lat="43.48526" lon="-0.61779">
        <ele>122.71</ele>
        <time>2013-11-23T16:39:16Z</time>
      </trkpt>
      <trkpt lat="43.48537" lon="-0.6179">
        <ele>122.71</ele>
        <time>2013-11-23T16:39:19Z</time>
      </trkpt>
      <trkpt lat="43.48579" lon="-0.61835">
        <ele>121.74</ele>
        <time>2013-11-23T16:39:29Z</time>
      </trkpt>
      <trkpt lat="43.48583" lon="-0.61838">
        <ele>122.22</ele>
        <time>2013-11-23T16:39:30Z</time>
      </trkpt>
      <trkpt lat="43.48586" lon="-0.61843">
        <ele>122.22</ele>
        <time>2013-11-23T16:39:31Z</time>
      </trkpt>
      <trkpt lat="43.4859" lon="-0.61847">
        <ele>122.22</ele>
        <time>2013-11-23T16:39:32Z</time>
      </trkpt>
      <trkpt lat="43.48595" lon="-0.61852">
        <ele>122.22</ele>
        <time>2013-11-23T16:39:33Z</time>
      </trkpt>
      <trkpt lat="43.48652" lon="-0.61912">
        <ele>121.74</ele>
        <time>2013-11-23T16:39:50Z</time>
      </trkpt>
      <trkpt lat="43.48657" lon="-0.6191">
        <ele>121.74</ele>
        <time>2013-11-23T16:39:51Z</time>
      </trkpt>
      <trkpt lat="43.48661" lon="-0.61907">
        <ele>121.74</ele>
        <time>2013-11-23T16:39:52Z</time>
      </trkpt>
      <trkpt lat="43.48665" lon="-0.61903">
        <ele>121.26</ele>
        <time>2013-11-23T16:39:53Z</time>
      </trkpt>
      <trkpt lat="43.48669" lon="-0.61898">
        <ele>121.74</ele>
        <time>2013-11-23T16:39:54Z</time>
      </trkpt>
      <trkpt lat="43.48673" lon="-0.61893">
        <ele>121.74</ele>
        <time>2013-11-23T16:39:55Z</time>
      </trkpt>
      <trkpt lat="43.48707" lon="-0.61844">
        <ele>119.34</ele>
        <time>2013-11-23T16:40:04Z</time>
      </trkpt>
      <trkpt lat="43.48724" lon="-0.61822">
        <ele>118.86</ele>
        <time>2013-11-23T16:40:08Z</time>
      </trkpt>
      <trkpt lat="43.48729" lon="-0.61819">
        <ele>118.86</ele>
        <time>2013-11-23T16:40:09Z</time>
      </trkpt>
      <trkpt lat="43.48734" lon="-0.61816">
        <ele>118.86</ele>
        <time>2013-11-23T16:40:10Z</time>
      </trkpt>
      <trkpt lat="43.48739" lon="-0.61814">
        <ele>117.9</ele>
        <time>2013-11-23T16:40:11Z</time>
      </trkpt>
      <trkpt lat="43.48744" lon="-0.61813">
        <ele>118.86</ele>
        <time>2013-11-23T16:40:12Z</time>
      </trkpt>
      <trkpt lat="43.48749" lon="-0.61812">
        <ele>118.38</ele>
        <time>2013-11-23T16:40:13Z</time>
      </trkpt>
      <trkpt lat="43.48768" lon="-0.6181">
        <ele>118.38</ele>
        <time>2013-11-23T16:40:17Z</time>
      </trkpt>
      <trkpt lat="43.48774" lon="-0.6181">
        <ele>118.38</ele>
        <time>2013-11-23T16:40:18Z</time>
      </trkpt>
      <trkpt lat="43.48779" lon="-0.6181">
        <ele>118.38</ele>
        <time>2013-11-23T16:40:19Z</time>
      </trkpt>
      <trkpt lat="43.489" lon="-0.61816">
        <ele>116.94</ele>
        <time>2013-11-23T16:40:43Z</time>
      </trkpt>
      <trkpt lat="43.49019" lon="-0.61799">
        <ele>113.57</ele>
        <time>2013-11-23T16:41:05Z</time>
      </trkpt>
      <trkpt lat="43.49097" lon="-0.61782">
        <ele>112.61</ele>
        <time>2013-11-23T16:41:20Z</time>
      </trkpt>
      <trkpt lat="43.49162" lon="-0.61794">
        <ele>111.65</ele>
        <time>2013-11-23T16:41:36Z</time>
      </trkpt>
      <trkpt lat="43.49164" lon="-0.61796">
        <ele>112.13</ele>
        <time>2013-11-23T16:41:37Z</time>
      </trkpt>
      <trkpt lat="43.49165" lon="-0.61804">
        <ele>112.13</ele>
        <time>2013-11-23T16:41:39Z</time>
      </trkpt>
      <trkpt lat="43.49165" lon="-0.61807">
        <ele>112.13</ele>
        <time>2013-11-23T16:41:40Z</time>
      </trkpt>
      <trkpt lat="43.49164" lon="-0.6181">
        <ele>111.65</ele>
        <time>2013-11-23T16:41:41Z</time>
      </trkpt>
      <trkpt lat="43.49155" lon="-0.61821">
        <ele>112.61</ele>
        <time>2013-11-23T16:41:58Z</time>
      </trkpt>
      <trkpt lat="43.49155" lon="-0.61819">
        <ele>113.09</ele>
        <time>2013-11-23T16:42:30Z</time>
      </trkpt>
    </trkseg>
  </trk>
</gpx>